<?xml version="1.0" encoding="UTF-8" standalone="no" ?>
<gpx xmlns="http://www.topografix.com/GPX/1/1" xmlns:xsi="http://www.w3.org/2001/XMLSchema-instance" xsi:schemaLocation="http://www.topografix.com/GPX/1/1 http://www.topografix.com/GPX/1/1/gpx.xsd" version="1.1" creator="VisuGPX - https://www.visugpx.com">
  <metadata>
    <name>Arboras-Max Nègre-grotte des Fées</name>
  </metadata>
  <trk>
    <name><![CDATA[2024-03-21 16:17:47]]></name>
    <trkseg>
      <trkpt lat="43.71168" lon="3.49371">
        <ele>363.04</ele>
        <time>2024-03-21T09:15:38Z</time>
      </trkpt>
      <trkpt lat="43.71168" lon="3.49371">
        <ele>363.04</ele>
        <time>2024-03-21T09:15:39Z</time>
      </trkpt>
      <trkpt lat="43.71168" lon="3.49371">
        <ele>292.38</ele>
        <time>2024-03-21T09:15:42Z</time>
      </trkpt>
      <trkpt lat="43.71168" lon="3.49371">
        <ele>292.38</ele>
        <time>2024-03-21T09:15:43Z</time>
      </trkpt>
      <trkpt lat="43.71167" lon="3.49371">
        <ele>292.38</ele>
        <time>2024-03-21T09:15:52Z</time>
      </trkpt>
      <trkpt lat="43.7117" lon="3.4937">
        <ele>291.42</ele>
        <time>2024-03-21T09:15:56Z</time>
      </trkpt>
      <trkpt lat="43.71169" lon="3.49372">
        <ele>291.42</ele>
        <time>2024-03-21T09:16:06Z</time>
      </trkpt>
      <trkpt lat="43.71171" lon="3.49375">
        <ele>291.42</ele>
        <time>2024-03-21T09:16:21Z</time>
      </trkpt>
      <trkpt lat="43.7117" lon="3.49376">
        <ele>291.42</ele>
        <time>2024-03-21T09:16:36Z</time>
      </trkpt>
      <trkpt lat="43.71169" lon="3.49382">
        <ele>291.42</ele>
        <time>2024-03-21T09:16:48Z</time>
      </trkpt>
      <trkpt lat="43.71168" lon="3.4938">
        <ele>290.94</ele>
        <time>2024-03-21T09:17:01Z</time>
      </trkpt>
      <trkpt lat="43.71166" lon="3.49379">
        <ele>290.94</ele>
        <time>2024-03-21T09:17:26Z</time>
      </trkpt>
      <trkpt lat="43.71167" lon="3.4938">
        <ele>290.94</ele>
        <time>2024-03-21T09:17:41Z</time>
      </trkpt>
      <trkpt lat="43.71167" lon="3.49377">
        <ele>290.94</ele>
        <time>2024-03-21T09:17:59Z</time>
      </trkpt>
      <trkpt lat="43.71166" lon="3.49377">
        <ele>290.94</ele>
        <time>2024-03-21T09:18:22Z</time>
      </trkpt>
      <trkpt lat="43.71168" lon="3.49379">
        <ele>290.94</ele>
        <time>2024-03-21T09:18:42Z</time>
      </trkpt>
      <trkpt lat="43.71173" lon="3.49378">
        <ele>290.46</ele>
        <time>2024-03-21T09:18:52Z</time>
      </trkpt>
      <trkpt lat="43.71183" lon="3.4938">
        <ele>291.9</ele>
        <time>2024-03-21T09:19:03Z</time>
      </trkpt>
      <trkpt lat="43.71191" lon="3.49384">
        <ele>292.38</ele>
        <time>2024-03-21T09:19:13Z</time>
      </trkpt>
      <trkpt lat="43.71202" lon="3.49385">
        <ele>292.86</ele>
        <time>2024-03-21T09:19:24Z</time>
      </trkpt>
      <trkpt lat="43.71209" lon="3.4939">
        <ele>293.34</ele>
        <time>2024-03-21T09:19:31Z</time>
      </trkpt>
      <trkpt lat="43.71211" lon="3.49393">
        <ele>293.34</ele>
        <time>2024-03-21T09:19:34Z</time>
      </trkpt>
      <trkpt lat="43.71213" lon="3.49402">
        <ele>293.34</ele>
        <time>2024-03-21T09:19:45Z</time>
      </trkpt>
      <trkpt lat="43.71213" lon="3.49406">
        <ele>292.38</ele>
        <time>2024-03-21T09:19:48Z</time>
      </trkpt>
      <trkpt lat="43.71213" lon="3.49423">
        <ele>289.97</ele>
        <time>2024-03-21T09:20:02Z</time>
      </trkpt>
      <trkpt lat="43.71215" lon="3.49439">
        <ele>288.53</ele>
        <time>2024-03-21T09:20:16Z</time>
      </trkpt>
      <trkpt lat="43.71219" lon="3.49458">
        <ele>287.09</ele>
        <time>2024-03-21T09:20:30Z</time>
      </trkpt>
      <trkpt lat="43.71221" lon="3.4947">
        <ele>286.13</ele>
        <time>2024-03-21T09:20:43Z</time>
      </trkpt>
      <trkpt lat="43.7122" lon="3.49471">
        <ele>286.13</ele>
        <time>2024-03-21T09:20:58Z</time>
      </trkpt>
      <trkpt lat="43.71225" lon="3.49483">
        <ele>286.13</ele>
        <time>2024-03-21T09:21:10Z</time>
      </trkpt>
      <trkpt lat="43.71231" lon="3.49505">
        <ele>285.17</ele>
        <time>2024-03-21T09:21:24Z</time>
      </trkpt>
      <trkpt lat="43.71236" lon="3.49522">
        <ele>286.61</ele>
        <time>2024-03-21T09:21:35Z</time>
      </trkpt>
      <trkpt lat="43.71236" lon="3.49538">
        <ele>286.61</ele>
        <time>2024-03-21T09:21:47Z</time>
      </trkpt>
      <trkpt lat="43.71235" lon="3.49542">
        <ele>286.61</ele>
        <time>2024-03-21T09:21:50Z</time>
      </trkpt>
      <trkpt lat="43.71233" lon="3.49555">
        <ele>285.17</ele>
        <time>2024-03-21T09:21:58Z</time>
      </trkpt>
      <trkpt lat="43.71229" lon="3.4957">
        <ele>284.69</ele>
        <time>2024-03-21T09:22:07Z</time>
      </trkpt>
      <trkpt lat="43.71228" lon="3.49587">
        <ele>284.21</ele>
        <time>2024-03-21T09:22:17Z</time>
      </trkpt>
      <trkpt lat="43.71241" lon="3.49598">
        <ele>284.21</ele>
        <time>2024-03-21T09:22:31Z</time>
      </trkpt>
      <trkpt lat="43.71245" lon="3.49598">
        <ele>285.17</ele>
        <time>2024-03-21T09:22:38Z</time>
      </trkpt>
      <trkpt lat="43.71248" lon="3.49599">
        <ele>285.17</ele>
        <time>2024-03-21T09:22:42Z</time>
      </trkpt>
      <trkpt lat="43.7125" lon="3.496">
        <ele>286.13</ele>
        <time>2024-03-21T09:22:45Z</time>
      </trkpt>
      <trkpt lat="43.71264" lon="3.49605">
        <ele>287.57</ele>
        <time>2024-03-21T09:22:58Z</time>
      </trkpt>
      <trkpt lat="43.71274" lon="3.4961">
        <ele>288.05</ele>
        <time>2024-03-21T09:23:08Z</time>
      </trkpt>
      <trkpt lat="43.71289" lon="3.49621">
        <ele>288.05</ele>
        <time>2024-03-21T09:23:22Z</time>
      </trkpt>
      <trkpt lat="43.71301" lon="3.49629">
        <ele>289.01</ele>
        <time>2024-03-21T09:23:34Z</time>
      </trkpt>
      <trkpt lat="43.71313" lon="3.4964">
        <ele>289.49</ele>
        <time>2024-03-21T09:23:47Z</time>
      </trkpt>
      <trkpt lat="43.71324" lon="3.49652">
        <ele>289.97</ele>
        <time>2024-03-21T09:24:00Z</time>
      </trkpt>
      <trkpt lat="43.71334" lon="3.49663">
        <ele>290.46</ele>
        <time>2024-03-21T09:24:12Z</time>
      </trkpt>
      <trkpt lat="43.71337" lon="3.49665">
        <ele>289.01</ele>
        <time>2024-03-21T09:24:15Z</time>
      </trkpt>
      <trkpt lat="43.71343" lon="3.49669">
        <ele>288.53</ele>
        <time>2024-03-21T09:24:21Z</time>
      </trkpt>
      <trkpt lat="43.71355" lon="3.49672">
        <ele>287.57</ele>
        <time>2024-03-21T09:24:31Z</time>
      </trkpt>
      <trkpt lat="43.71371" lon="3.49675">
        <ele>286.61</ele>
        <time>2024-03-21T09:24:45Z</time>
      </trkpt>
      <trkpt lat="43.71384" lon="3.49676">
        <ele>286.61</ele>
        <time>2024-03-21T09:24:57Z</time>
      </trkpt>
      <trkpt lat="43.71396" lon="3.4968">
        <ele>285.65</ele>
        <time>2024-03-21T09:25:08Z</time>
      </trkpt>
      <trkpt lat="43.71401" lon="3.49685">
        <ele>284.69</ele>
        <time>2024-03-21T09:25:14Z</time>
      </trkpt>
      <trkpt lat="43.71408" lon="3.49695">
        <ele>283.25</ele>
        <time>2024-03-21T09:25:24Z</time>
      </trkpt>
      <trkpt lat="43.71412" lon="3.4971">
        <ele>281.32</ele>
        <time>2024-03-21T09:25:35Z</time>
      </trkpt>
      <trkpt lat="43.7141" lon="3.49732">
        <ele>279.88</ele>
        <time>2024-03-21T09:25:49Z</time>
      </trkpt>
      <trkpt lat="43.71406" lon="3.49749">
        <ele>279.88</ele>
        <time>2024-03-21T09:26:00Z</time>
      </trkpt>
      <trkpt lat="43.71402" lon="3.49765">
        <ele>279.4</ele>
        <time>2024-03-21T09:26:12Z</time>
      </trkpt>
      <trkpt lat="43.71401" lon="3.49783">
        <ele>279.4</ele>
        <time>2024-03-21T09:26:24Z</time>
      </trkpt>
      <trkpt lat="43.71405" lon="3.49798">
        <ele>279.4</ele>
        <time>2024-03-21T09:26:35Z</time>
      </trkpt>
      <trkpt lat="43.7141" lon="3.49815">
        <ele>278.92</ele>
        <time>2024-03-21T09:26:47Z</time>
      </trkpt>
      <trkpt lat="43.71421" lon="3.49828">
        <ele>277.96</ele>
        <time>2024-03-21T09:27:00Z</time>
      </trkpt>
      <trkpt lat="43.71427" lon="3.49833">
        <ele>277</ele>
        <time>2024-03-21T09:27:06Z</time>
      </trkpt>
      <trkpt lat="43.71438" lon="3.49845">
        <ele>275.07</ele>
        <time>2024-03-21T09:27:20Z</time>
      </trkpt>
      <trkpt lat="43.7145" lon="3.49859">
        <ele>273.63</ele>
        <time>2024-03-21T09:27:34Z</time>
      </trkpt>
      <trkpt lat="43.71458" lon="3.49871">
        <ele>272.19</ele>
        <time>2024-03-21T09:27:47Z</time>
      </trkpt>
      <trkpt lat="43.71462" lon="3.49877">
        <ele>271.23</ele>
        <time>2024-03-21T09:28:04Z</time>
      </trkpt>
      <trkpt lat="43.71466" lon="3.4988">
        <ele>271.23</ele>
        <time>2024-03-21T09:28:28Z</time>
      </trkpt>
      <trkpt lat="43.71475" lon="3.49892">
        <ele>268.83</ele>
        <time>2024-03-21T09:28:42Z</time>
      </trkpt>
      <trkpt lat="43.71484" lon="3.49901">
        <ele>267.86</ele>
        <time>2024-03-21T09:28:54Z</time>
      </trkpt>
      <trkpt lat="43.71495" lon="3.49907">
        <ele>265.94</ele>
        <time>2024-03-21T09:29:07Z</time>
      </trkpt>
      <trkpt lat="43.71509" lon="3.4991">
        <ele>264.98</ele>
        <time>2024-03-21T09:29:21Z</time>
      </trkpt>
      <trkpt lat="43.71522" lon="3.49905">
        <ele>264.02</ele>
        <time>2024-03-21T09:29:35Z</time>
      </trkpt>
      <trkpt lat="43.7153" lon="3.49898">
        <ele>264.02</ele>
        <time>2024-03-21T09:29:44Z</time>
      </trkpt>
      <trkpt lat="43.71539" lon="3.49887">
        <ele>263.06</ele>
        <time>2024-03-21T09:29:57Z</time>
      </trkpt>
      <trkpt lat="43.71542" lon="3.49884">
        <ele>262.58</ele>
        <time>2024-03-21T09:30:01Z</time>
      </trkpt>
      <trkpt lat="43.71551" lon="3.49883">
        <ele>263.06</ele>
        <time>2024-03-21T09:30:14Z</time>
      </trkpt>
      <trkpt lat="43.71552" lon="3.49883">
        <ele>261.62</ele>
        <time>2024-03-21T09:30:20Z</time>
      </trkpt>
      <trkpt lat="43.71553" lon="3.49882">
        <ele>263.06</ele>
        <time>2024-03-21T09:30:41Z</time>
      </trkpt>
      <trkpt lat="43.71552" lon="3.49884">
        <ele>261.14</ele>
        <time>2024-03-21T09:30:56Z</time>
      </trkpt>
      <trkpt lat="43.71553" lon="3.49887">
        <ele>261.14</ele>
        <time>2024-03-21T09:30:58Z</time>
      </trkpt>
      <trkpt lat="43.71547" lon="3.49904">
        <ele>259.69</ele>
        <time>2024-03-21T09:31:13Z</time>
      </trkpt>
      <trkpt lat="43.71541" lon="3.49917">
        <ele>257.77</ele>
        <time>2024-03-21T09:31:25Z</time>
      </trkpt>
      <trkpt lat="43.71541" lon="3.49919">
        <ele>257.77</ele>
        <time>2024-03-21T09:31:27Z</time>
      </trkpt>
      <trkpt lat="43.71535" lon="3.49935">
        <ele>256.81</ele>
        <time>2024-03-21T09:31:38Z</time>
      </trkpt>
      <trkpt lat="43.71531" lon="3.49942">
        <ele>256.33</ele>
        <time>2024-03-21T09:31:47Z</time>
      </trkpt>
      <trkpt lat="43.71518" lon="3.49952">
        <ele>255.85</ele>
        <time>2024-03-21T09:32:00Z</time>
      </trkpt>
      <trkpt lat="43.71504" lon="3.49957">
        <ele>254.89</ele>
        <time>2024-03-21T09:32:13Z</time>
      </trkpt>
      <trkpt lat="43.71492" lon="3.49964">
        <ele>252.48</ele>
        <time>2024-03-21T09:32:27Z</time>
      </trkpt>
      <trkpt lat="43.71477" lon="3.49972">
        <ele>251.04</ele>
        <time>2024-03-21T09:32:41Z</time>
      </trkpt>
      <trkpt lat="43.71461" lon="3.49978">
        <ele>250.08</ele>
        <time>2024-03-21T09:32:55Z</time>
      </trkpt>
      <trkpt lat="43.71447" lon="3.4998">
        <ele>249.12</ele>
        <time>2024-03-21T09:33:08Z</time>
      </trkpt>
      <trkpt lat="43.71434" lon="3.49983">
        <ele>247.2</ele>
        <time>2024-03-21T09:33:20Z</time>
      </trkpt>
      <trkpt lat="43.7142" lon="3.49989">
        <ele>246.23</ele>
        <time>2024-03-21T09:33:32Z</time>
      </trkpt>
      <trkpt lat="43.71409" lon="3.49991">
        <ele>246.23</ele>
        <time>2024-03-21T09:33:42Z</time>
      </trkpt>
      <trkpt lat="43.71395" lon="3.49988">
        <ele>245.75</ele>
        <time>2024-03-21T09:33:58Z</time>
      </trkpt>
      <trkpt lat="43.71379" lon="3.49988">
        <ele>244.79</ele>
        <time>2024-03-21T09:34:13Z</time>
      </trkpt>
      <trkpt lat="43.71378" lon="3.49988">
        <ele>244.79</ele>
        <time>2024-03-21T09:34:14Z</time>
      </trkpt>
      <trkpt lat="43.71361" lon="3.49993">
        <ele>244.79</ele>
        <time>2024-03-21T09:34:31Z</time>
      </trkpt>
      <trkpt lat="43.71354" lon="3.49995">
        <ele>243.35</ele>
        <time>2024-03-21T09:34:38Z</time>
      </trkpt>
      <trkpt lat="43.7135" lon="3.49997">
        <ele>242.39</ele>
        <time>2024-03-21T09:34:43Z</time>
      </trkpt>
      <trkpt lat="43.71338" lon="3.50015">
        <ele>241.91</ele>
        <time>2024-03-21T09:34:59Z</time>
      </trkpt>
      <trkpt lat="43.71334" lon="3.50018">
        <ele>241.91</ele>
        <time>2024-03-21T09:35:03Z</time>
      </trkpt>
      <trkpt lat="43.71324" lon="3.50015">
        <ele>243.35</ele>
        <time>2024-03-21T09:35:13Z</time>
      </trkpt>
      <trkpt lat="43.71308" lon="3.50003">
        <ele>243.35</ele>
        <time>2024-03-21T09:35:26Z</time>
      </trkpt>
      <trkpt lat="43.71291" lon="3.49999">
        <ele>243.83</ele>
        <time>2024-03-21T09:35:39Z</time>
      </trkpt>
      <trkpt lat="43.71276" lon="3.49999">
        <ele>243.83</ele>
        <time>2024-03-21T09:35:51Z</time>
      </trkpt>
      <trkpt lat="43.71261" lon="3.50002">
        <ele>244.31</ele>
        <time>2024-03-21T09:36:03Z</time>
      </trkpt>
      <trkpt lat="43.71247" lon="3.50006">
        <ele>244.79</ele>
        <time>2024-03-21T09:36:16Z</time>
      </trkpt>
      <trkpt lat="43.71233" lon="3.50012">
        <ele>245.75</ele>
        <time>2024-03-21T09:36:29Z</time>
      </trkpt>
      <trkpt lat="43.71221" lon="3.50014">
        <ele>247.2</ele>
        <time>2024-03-21T09:36:41Z</time>
      </trkpt>
      <trkpt lat="43.71211" lon="3.50018">
        <ele>247.68</ele>
        <time>2024-03-21T09:36:54Z</time>
      </trkpt>
      <trkpt lat="43.71207" lon="3.50018">
        <ele>249.12</ele>
        <time>2024-03-21T09:37:07Z</time>
      </trkpt>
      <trkpt lat="43.71197" lon="3.5002">
        <ele>250.56</ele>
        <time>2024-03-21T09:37:20Z</time>
      </trkpt>
      <trkpt lat="43.71191" lon="3.50029">
        <ele>252.48</ele>
        <time>2024-03-21T09:37:30Z</time>
      </trkpt>
      <trkpt lat="43.71181" lon="3.50035">
        <ele>253.44</ele>
        <time>2024-03-21T09:37:42Z</time>
      </trkpt>
      <trkpt lat="43.71172" lon="3.50044">
        <ele>255.85</ele>
        <time>2024-03-21T09:37:54Z</time>
      </trkpt>
      <trkpt lat="43.71165" lon="3.50053">
        <ele>257.77</ele>
        <time>2024-03-21T09:38:07Z</time>
      </trkpt>
      <trkpt lat="43.7116" lon="3.50066">
        <ele>258.73</ele>
        <time>2024-03-21T09:38:18Z</time>
      </trkpt>
      <trkpt lat="43.71153" lon="3.50079">
        <ele>259.21</ele>
        <time>2024-03-21T09:38:30Z</time>
      </trkpt>
      <trkpt lat="43.71147" lon="3.50088">
        <ele>257.77</ele>
        <time>2024-03-21T09:38:39Z</time>
      </trkpt>
      <trkpt lat="43.71142" lon="3.50088">
        <ele>259.21</ele>
        <time>2024-03-21T09:38:44Z</time>
      </trkpt>
      <trkpt lat="43.71136" lon="3.50085">
        <ele>261.62</ele>
        <time>2024-03-21T09:38:53Z</time>
      </trkpt>
      <trkpt lat="43.71139" lon="3.50075">
        <ele>261.62</ele>
        <time>2024-03-21T09:39:06Z</time>
      </trkpt>
      <trkpt lat="43.71141" lon="3.50073">
        <ele>261.62</ele>
        <time>2024-03-21T09:39:09Z</time>
      </trkpt>
      <trkpt lat="43.71141" lon="3.50063">
        <ele>262.58</ele>
        <time>2024-03-21T09:39:20Z</time>
      </trkpt>
      <trkpt lat="43.71138" lon="3.50063">
        <ele>264.02</ele>
        <time>2024-03-21T09:39:25Z</time>
      </trkpt>
      <trkpt lat="43.71129" lon="3.50069">
        <ele>265.94</ele>
        <time>2024-03-21T09:39:38Z</time>
      </trkpt>
      <trkpt lat="43.71119" lon="3.5007">
        <ele>267.38</ele>
        <time>2024-03-21T09:39:51Z</time>
      </trkpt>
      <trkpt lat="43.71111" lon="3.50071">
        <ele>269.31</ele>
        <time>2024-03-21T09:40:03Z</time>
      </trkpt>
      <trkpt lat="43.71103" lon="3.50076">
        <ele>270.75</ele>
        <time>2024-03-21T09:40:15Z</time>
      </trkpt>
      <trkpt lat="43.71093" lon="3.50084">
        <ele>272.67</ele>
        <time>2024-03-21T09:40:27Z</time>
      </trkpt>
      <trkpt lat="43.71092" lon="3.50086">
        <ele>272.67</ele>
        <time>2024-03-21T09:40:29Z</time>
      </trkpt>
      <trkpt lat="43.7109" lon="3.5009">
        <ele>272.67</ele>
        <time>2024-03-21T09:40:32Z</time>
      </trkpt>
      <trkpt lat="43.71087" lon="3.50104">
        <ele>273.63</ele>
        <time>2024-03-21T09:40:43Z</time>
      </trkpt>
      <trkpt lat="43.71082" lon="3.50116">
        <ele>274.59</ele>
        <time>2024-03-21T09:40:54Z</time>
      </trkpt>
      <trkpt lat="43.71078" lon="3.50133">
        <ele>275.56</ele>
        <time>2024-03-21T09:41:06Z</time>
      </trkpt>
      <trkpt lat="43.71076" lon="3.50147">
        <ele>276.04</ele>
        <time>2024-03-21T09:41:17Z</time>
      </trkpt>
      <trkpt lat="43.71073" lon="3.50152">
        <ele>276.04</ele>
        <time>2024-03-21T09:41:22Z</time>
      </trkpt>
      <trkpt lat="43.71066" lon="3.50166">
        <ele>278.44</ele>
        <time>2024-03-21T09:41:36Z</time>
      </trkpt>
      <trkpt lat="43.71066" lon="3.50167">
        <ele>278.44</ele>
        <time>2024-03-21T09:41:37Z</time>
      </trkpt>
      <trkpt lat="43.71062" lon="3.50177">
        <ele>279.88</ele>
        <time>2024-03-21T09:41:53Z</time>
      </trkpt>
      <trkpt lat="43.71059" lon="3.50182">
        <ele>280.36</ele>
        <time>2024-03-21T09:42:16Z</time>
      </trkpt>
      <trkpt lat="43.71053" lon="3.50196">
        <ele>282.28</ele>
        <time>2024-03-21T09:42:31Z</time>
      </trkpt>
      <trkpt lat="43.71049" lon="3.50207">
        <ele>283.25</ele>
        <time>2024-03-21T09:42:38Z</time>
      </trkpt>
      <trkpt lat="43.71045" lon="3.50217">
        <ele>283.73</ele>
        <time>2024-03-21T09:42:49Z</time>
      </trkpt>
      <trkpt lat="43.71041" lon="3.50225">
        <ele>284.69</ele>
        <time>2024-03-21T09:42:57Z</time>
      </trkpt>
      <trkpt lat="43.71037" lon="3.50232">
        <ele>285.65</ele>
        <time>2024-03-21T09:43:04Z</time>
      </trkpt>
      <trkpt lat="43.71033" lon="3.50241">
        <ele>286.13</ele>
        <time>2024-03-21T09:43:12Z</time>
      </trkpt>
      <trkpt lat="43.71026" lon="3.50254">
        <ele>288.05</ele>
        <time>2024-03-21T09:43:26Z</time>
      </trkpt>
      <trkpt lat="43.7102" lon="3.50266">
        <ele>288.53</ele>
        <time>2024-03-21T09:43:38Z</time>
      </trkpt>
      <trkpt lat="43.71014" lon="3.50277">
        <ele>290.94</ele>
        <time>2024-03-21T09:43:49Z</time>
      </trkpt>
      <trkpt lat="43.71011" lon="3.50284">
        <ele>291.42</ele>
        <time>2024-03-21T09:43:57Z</time>
      </trkpt>
      <trkpt lat="43.71006" lon="3.50296">
        <ele>292.86</ele>
        <time>2024-03-21T09:44:10Z</time>
      </trkpt>
      <trkpt lat="43.71001" lon="3.50307">
        <ele>294.78</ele>
        <time>2024-03-21T09:44:23Z</time>
      </trkpt>
      <trkpt lat="43.70997" lon="3.5032">
        <ele>295.74</ele>
        <time>2024-03-21T09:44:35Z</time>
      </trkpt>
      <trkpt lat="43.70991" lon="3.50332">
        <ele>297.18</ele>
        <time>2024-03-21T09:44:47Z</time>
      </trkpt>
      <trkpt lat="43.70985" lon="3.50344">
        <ele>299.11</ele>
        <time>2024-03-21T09:44:59Z</time>
      </trkpt>
      <trkpt lat="43.70981" lon="3.50347">
        <ele>299.11</ele>
        <time>2024-03-21T09:45:07Z</time>
      </trkpt>
      <trkpt lat="43.70975" lon="3.5035">
        <ele>301.03</ele>
        <time>2024-03-21T09:45:14Z</time>
      </trkpt>
      <trkpt lat="43.70966" lon="3.50354">
        <ele>302.95</ele>
        <time>2024-03-21T09:45:24Z</time>
      </trkpt>
      <trkpt lat="43.70958" lon="3.50356">
        <ele>302.47</ele>
        <time>2024-03-21T09:45:33Z</time>
      </trkpt>
      <trkpt lat="43.70955" lon="3.50357">
        <ele>303.91</ele>
        <time>2024-03-21T09:45:37Z</time>
      </trkpt>
      <trkpt lat="43.70948" lon="3.50365">
        <ele>304.88</ele>
        <time>2024-03-21T09:45:47Z</time>
      </trkpt>
      <trkpt lat="43.70945" lon="3.50368">
        <ele>304.88</ele>
        <time>2024-03-21T09:45:52Z</time>
      </trkpt>
      <trkpt lat="43.70931" lon="3.50378">
        <ele>305.36</ele>
        <time>2024-03-21T09:46:07Z</time>
      </trkpt>
      <trkpt lat="43.70922" lon="3.50386">
        <ele>305.36</ele>
        <time>2024-03-21T09:46:19Z</time>
      </trkpt>
      <trkpt lat="43.7092" lon="3.50387">
        <ele>303.91</ele>
        <time>2024-03-21T09:46:26Z</time>
      </trkpt>
      <trkpt lat="43.7092" lon="3.50387">
        <ele>303.91</ele>
        <time>2024-03-21T09:46:49Z</time>
      </trkpt>
      <trkpt lat="43.70918" lon="3.50386">
        <ele>303.91</ele>
        <time>2024-03-21T09:47:12Z</time>
      </trkpt>
      <trkpt lat="43.7092" lon="3.50387">
        <ele>303.91</ele>
        <time>2024-03-21T09:47:28Z</time>
      </trkpt>
      <trkpt lat="43.7092" lon="3.50387">
        <ele>303.91</ele>
        <time>2024-03-21T09:47:47Z</time>
      </trkpt>
      <trkpt lat="43.70921" lon="3.50387">
        <ele>303.91</ele>
        <time>2024-03-21T09:48:08Z</time>
      </trkpt>
      <trkpt lat="43.70922" lon="3.50389">
        <ele>303.91</ele>
        <time>2024-03-21T09:48:16Z</time>
      </trkpt>
      <trkpt lat="43.70926" lon="3.504">
        <ele>304.88</ele>
        <time>2024-03-21T09:48:25Z</time>
      </trkpt>
      <trkpt lat="43.70925" lon="3.50417">
        <ele>305.36</ele>
        <time>2024-03-21T09:48:37Z</time>
      </trkpt>
      <trkpt lat="43.70924" lon="3.50433">
        <ele>306.8</ele>
        <time>2024-03-21T09:48:49Z</time>
      </trkpt>
      <trkpt lat="43.70923" lon="3.50437">
        <ele>307.76</ele>
        <time>2024-03-21T09:48:53Z</time>
      </trkpt>
      <trkpt lat="43.70921" lon="3.50445">
        <ele>308.24</ele>
        <time>2024-03-21T09:48:59Z</time>
      </trkpt>
      <trkpt lat="43.70917" lon="3.50458">
        <ele>309.68</ele>
        <time>2024-03-21T09:49:11Z</time>
      </trkpt>
      <trkpt lat="43.70912" lon="3.50468">
        <ele>310.64</ele>
        <time>2024-03-21T09:49:21Z</time>
      </trkpt>
      <trkpt lat="43.70908" lon="3.50483">
        <ele>313.05</ele>
        <time>2024-03-21T09:49:34Z</time>
      </trkpt>
      <trkpt lat="43.70904" lon="3.50498">
        <ele>314.01</ele>
        <time>2024-03-21T09:49:45Z</time>
      </trkpt>
      <trkpt lat="43.70902" lon="3.50507">
        <ele>314.49</ele>
        <time>2024-03-21T09:49:52Z</time>
      </trkpt>
      <trkpt lat="43.70898" lon="3.50525">
        <ele>314.97</ele>
        <time>2024-03-21T09:50:05Z</time>
      </trkpt>
      <trkpt lat="43.70898" lon="3.50541">
        <ele>316.41</ele>
        <time>2024-03-21T09:50:17Z</time>
      </trkpt>
      <trkpt lat="43.70899" lon="3.50556">
        <ele>317.37</ele>
        <time>2024-03-21T09:50:29Z</time>
      </trkpt>
      <trkpt lat="43.70903" lon="3.50571">
        <ele>318.33</ele>
        <time>2024-03-21T09:50:41Z</time>
      </trkpt>
      <trkpt lat="43.70909" lon="3.50586">
        <ele>319.78</ele>
        <time>2024-03-21T09:50:53Z</time>
      </trkpt>
      <trkpt lat="43.70916" lon="3.50597">
        <ele>320.26</ele>
        <time>2024-03-21T09:51:03Z</time>
      </trkpt>
      <trkpt lat="43.70924" lon="3.50608">
        <ele>321.7</ele>
        <time>2024-03-21T09:51:15Z</time>
      </trkpt>
      <trkpt lat="43.70931" lon="3.5062">
        <ele>323.14</ele>
        <time>2024-03-21T09:51:26Z</time>
      </trkpt>
      <trkpt lat="43.7094" lon="3.50631">
        <ele>324.1</ele>
        <time>2024-03-21T09:51:39Z</time>
      </trkpt>
      <trkpt lat="43.70948" lon="3.50644">
        <ele>325.06</ele>
        <time>2024-03-21T09:51:51Z</time>
      </trkpt>
      <trkpt lat="43.70956" lon="3.50657">
        <ele>326.02</ele>
        <time>2024-03-21T09:52:04Z</time>
      </trkpt>
      <trkpt lat="43.70965" lon="3.50671">
        <ele>327.47</ele>
        <time>2024-03-21T09:52:18Z</time>
      </trkpt>
      <trkpt lat="43.70975" lon="3.50682">
        <ele>328.43</ele>
        <time>2024-03-21T09:52:31Z</time>
      </trkpt>
      <trkpt lat="43.70982" lon="3.50692">
        <ele>329.39</ele>
        <time>2024-03-21T09:52:43Z</time>
      </trkpt>
      <trkpt lat="43.70984" lon="3.50694">
        <ele>329.39</ele>
        <time>2024-03-21T09:53:00Z</time>
      </trkpt>
      <trkpt lat="43.70983" lon="3.50696">
        <ele>329.39</ele>
        <time>2024-03-21T09:53:29Z</time>
      </trkpt>
      <trkpt lat="43.70984" lon="3.50695">
        <ele>329.39</ele>
        <time>2024-03-21T09:53:36Z</time>
      </trkpt>
      <trkpt lat="43.70986" lon="3.50696">
        <ele>329.39</ele>
        <time>2024-03-21T09:53:39Z</time>
      </trkpt>
      <trkpt lat="43.70996" lon="3.50708">
        <ele>329.87</ele>
        <time>2024-03-21T09:53:52Z</time>
      </trkpt>
      <trkpt lat="43.71007" lon="3.50721">
        <ele>330.83</ele>
        <time>2024-03-21T09:54:04Z</time>
      </trkpt>
      <trkpt lat="43.71018" lon="3.50738">
        <ele>331.31</ele>
        <time>2024-03-21T09:54:17Z</time>
      </trkpt>
      <trkpt lat="43.71026" lon="3.50755">
        <ele>331.79</ele>
        <time>2024-03-21T09:54:30Z</time>
      </trkpt>
      <trkpt lat="43.71034" lon="3.50771">
        <ele>332.27</ele>
        <time>2024-03-21T09:54:42Z</time>
      </trkpt>
      <trkpt lat="43.71044" lon="3.50791">
        <ele>332.75</ele>
        <time>2024-03-21T09:54:56Z</time>
      </trkpt>
      <trkpt lat="43.71051" lon="3.50806">
        <ele>333.23</ele>
        <time>2024-03-21T09:55:07Z</time>
      </trkpt>
      <trkpt lat="43.71053" lon="3.50811">
        <ele>333.23</ele>
        <time>2024-03-21T09:55:10Z</time>
      </trkpt>
      <trkpt lat="43.71061" lon="3.50829">
        <ele>333.71</ele>
        <time>2024-03-21T09:55:24Z</time>
      </trkpt>
      <trkpt lat="43.71064" lon="3.50835">
        <ele>334.68</ele>
        <time>2024-03-21T09:55:29Z</time>
      </trkpt>
      <trkpt lat="43.71067" lon="3.50852">
        <ele>336.6</ele>
        <time>2024-03-21T09:55:42Z</time>
      </trkpt>
      <trkpt lat="43.71064" lon="3.50863">
        <ele>337.56</ele>
        <time>2024-03-21T09:55:50Z</time>
      </trkpt>
      <trkpt lat="43.71059" lon="3.50875">
        <ele>339</ele>
        <time>2024-03-21T09:56:00Z</time>
      </trkpt>
      <trkpt lat="43.71055" lon="3.50888">
        <ele>339.96</ele>
        <time>2024-03-21T09:56:10Z</time>
      </trkpt>
      <trkpt lat="43.71054" lon="3.50902">
        <ele>340.92</ele>
        <time>2024-03-21T09:56:20Z</time>
      </trkpt>
      <trkpt lat="43.71055" lon="3.50919">
        <ele>342.37</ele>
        <time>2024-03-21T09:56:31Z</time>
      </trkpt>
      <trkpt lat="43.71055" lon="3.50936">
        <ele>343.33</ele>
        <time>2024-03-21T09:56:43Z</time>
      </trkpt>
      <trkpt lat="43.71058" lon="3.50951">
        <ele>345.25</ele>
        <time>2024-03-21T09:56:54Z</time>
      </trkpt>
      <trkpt lat="43.71061" lon="3.50965">
        <ele>346.69</ele>
        <time>2024-03-21T09:57:05Z</time>
      </trkpt>
      <trkpt lat="43.71067" lon="3.50981">
        <ele>347.65</ele>
        <time>2024-03-21T09:57:18Z</time>
      </trkpt>
      <trkpt lat="43.7107" lon="3.50988">
        <ele>348.13</ele>
        <time>2024-03-21T09:57:23Z</time>
      </trkpt>
      <trkpt lat="43.71071" lon="3.50996">
        <ele>348.62</ele>
        <time>2024-03-21T09:57:29Z</time>
      </trkpt>
      <trkpt lat="43.71072" lon="3.51013">
        <ele>350.06</ele>
        <time>2024-03-21T09:57:41Z</time>
      </trkpt>
      <trkpt lat="43.71071" lon="3.51028">
        <ele>351.5</ele>
        <time>2024-03-21T09:57:52Z</time>
      </trkpt>
      <trkpt lat="43.71072" lon="3.51039">
        <ele>352.46</ele>
        <time>2024-03-21T09:58:00Z</time>
      </trkpt>
      <trkpt lat="43.71078" lon="3.51054">
        <ele>354.38</ele>
        <time>2024-03-21T09:58:13Z</time>
      </trkpt>
      <trkpt lat="43.71081" lon="3.51061">
        <ele>355.83</ele>
        <time>2024-03-21T09:58:19Z</time>
      </trkpt>
      <trkpt lat="43.71082" lon="3.51063">
        <ele>355.83</ele>
        <time>2024-03-21T09:58:21Z</time>
      </trkpt>
      <trkpt lat="43.71089" lon="3.51076">
        <ele>357.75</ele>
        <time>2024-03-21T09:58:34Z</time>
      </trkpt>
      <trkpt lat="43.71095" lon="3.51088">
        <ele>359.67</ele>
        <time>2024-03-21T09:58:46Z</time>
      </trkpt>
      <trkpt lat="43.71101" lon="3.51102">
        <ele>360.63</ele>
        <time>2024-03-21T09:58:57Z</time>
      </trkpt>
      <trkpt lat="43.71106" lon="3.51117">
        <ele>362.55</ele>
        <time>2024-03-21T09:59:10Z</time>
      </trkpt>
      <trkpt lat="43.71109" lon="3.51123">
        <ele>363.04</ele>
        <time>2024-03-21T09:59:15Z</time>
      </trkpt>
      <trkpt lat="43.71115" lon="3.51134">
        <ele>365.44</ele>
        <time>2024-03-21T09:59:27Z</time>
      </trkpt>
      <trkpt lat="43.71118" lon="3.51139">
        <ele>365.44</ele>
        <time>2024-03-21T09:59:33Z</time>
      </trkpt>
      <trkpt lat="43.71119" lon="3.51143">
        <ele>365.44</ele>
        <time>2024-03-21T09:59:46Z</time>
      </trkpt>
      <trkpt lat="43.71124" lon="3.5115">
        <ele>366.4</ele>
        <time>2024-03-21T10:00:04Z</time>
      </trkpt>
      <trkpt lat="43.71134" lon="3.51161">
        <ele>367.84</ele>
        <time>2024-03-21T10:00:16Z</time>
      </trkpt>
      <trkpt lat="43.7114" lon="3.5117">
        <ele>368.32</ele>
        <time>2024-03-21T10:00:24Z</time>
      </trkpt>
      <trkpt lat="43.71146" lon="3.51182">
        <ele>369.76</ele>
        <time>2024-03-21T10:00:35Z</time>
      </trkpt>
      <trkpt lat="43.71153" lon="3.51195">
        <ele>370.73</ele>
        <time>2024-03-21T10:00:47Z</time>
      </trkpt>
      <trkpt lat="43.71161" lon="3.5121">
        <ele>371.69</ele>
        <time>2024-03-21T10:00:59Z</time>
      </trkpt>
      <trkpt lat="43.71167" lon="3.51224">
        <ele>372.65</ele>
        <time>2024-03-21T10:01:10Z</time>
      </trkpt>
      <trkpt lat="43.71174" lon="3.51238">
        <ele>373.61</ele>
        <time>2024-03-21T10:01:22Z</time>
      </trkpt>
      <trkpt lat="43.71183" lon="3.51255">
        <ele>374.09</ele>
        <time>2024-03-21T10:01:35Z</time>
      </trkpt>
      <trkpt lat="43.71186" lon="3.51273">
        <ele>374.57</ele>
        <time>2024-03-21T10:01:46Z</time>
      </trkpt>
      <trkpt lat="43.71188" lon="3.51291">
        <ele>376.01</ele>
        <time>2024-03-21T10:01:58Z</time>
      </trkpt>
      <trkpt lat="43.71192" lon="3.51302">
        <ele>376.49</ele>
        <time>2024-03-21T10:02:06Z</time>
      </trkpt>
      <trkpt lat="43.71202" lon="3.51318">
        <ele>377.94</ele>
        <time>2024-03-21T10:02:20Z</time>
      </trkpt>
      <trkpt lat="43.71211" lon="3.51327">
        <ele>379.38</ele>
        <time>2024-03-21T10:02:30Z</time>
      </trkpt>
      <trkpt lat="43.71221" lon="3.5134">
        <ele>380.34</ele>
        <time>2024-03-21T10:02:43Z</time>
      </trkpt>
      <trkpt lat="43.7123" lon="3.51354">
        <ele>381.3</ele>
        <time>2024-03-21T10:02:55Z</time>
      </trkpt>
      <trkpt lat="43.71235" lon="3.51361">
        <ele>381.78</ele>
        <time>2024-03-21T10:03:07Z</time>
      </trkpt>
      <trkpt lat="43.71237" lon="3.51357">
        <ele>382.74</ele>
        <time>2024-03-21T10:03:29Z</time>
      </trkpt>
      <trkpt lat="43.71237" lon="3.51343">
        <ele>384.18</ele>
        <time>2024-03-21T10:03:42Z</time>
      </trkpt>
      <trkpt lat="43.71236" lon="3.51335">
        <ele>384.66</ele>
        <time>2024-03-21T10:03:50Z</time>
      </trkpt>
      <trkpt lat="43.71234" lon="3.5132">
        <ele>386.11</ele>
        <time>2024-03-21T10:04:02Z</time>
      </trkpt>
      <trkpt lat="43.71232" lon="3.51303">
        <ele>386.11</ele>
        <time>2024-03-21T10:04:14Z</time>
      </trkpt>
      <trkpt lat="43.7123" lon="3.51285">
        <ele>386.59</ele>
        <time>2024-03-21T10:04:26Z</time>
      </trkpt>
      <trkpt lat="43.71229" lon="3.51281">
        <ele>386.59</ele>
        <time>2024-03-21T10:04:30Z</time>
      </trkpt>
      <trkpt lat="43.71228" lon="3.51275">
        <ele>386.59</ele>
        <time>2024-03-21T10:04:35Z</time>
      </trkpt>
      <trkpt lat="43.71227" lon="3.51265">
        <ele>385.15</ele>
        <time>2024-03-21T10:04:41Z</time>
      </trkpt>
      <trkpt lat="43.71224" lon="3.51247">
        <ele>383.22</ele>
        <time>2024-03-21T10:04:55Z</time>
      </trkpt>
      <trkpt lat="43.71221" lon="3.51237">
        <ele>382.74</ele>
        <time>2024-03-21T10:05:03Z</time>
      </trkpt>
      <trkpt lat="43.71215" lon="3.51226">
        <ele>382.26</ele>
        <time>2024-03-21T10:05:11Z</time>
      </trkpt>
      <trkpt lat="43.71211" lon="3.51206">
        <ele>382.26</ele>
        <time>2024-03-21T10:05:24Z</time>
      </trkpt>
      <trkpt lat="43.71211" lon="3.51201">
        <ele>383.7</ele>
        <time>2024-03-21T10:05:27Z</time>
      </trkpt>
      <trkpt lat="43.71211" lon="3.51185">
        <ele>384.18</ele>
        <time>2024-03-21T10:05:39Z</time>
      </trkpt>
      <trkpt lat="43.71213" lon="3.51167">
        <ele>384.66</ele>
        <time>2024-03-21T10:05:51Z</time>
      </trkpt>
      <trkpt lat="43.71217" lon="3.51149">
        <ele>385.15</ele>
        <time>2024-03-21T10:06:03Z</time>
      </trkpt>
      <trkpt lat="43.71223" lon="3.51136">
        <ele>385.15</ele>
        <time>2024-03-21T10:06:14Z</time>
      </trkpt>
      <trkpt lat="43.71228" lon="3.51127">
        <ele>384.18</ele>
        <time>2024-03-21T10:06:22Z</time>
      </trkpt>
      <trkpt lat="43.7124" lon="3.5112">
        <ele>385.15</ele>
        <time>2024-03-21T10:06:35Z</time>
      </trkpt>
      <trkpt lat="43.71241" lon="3.51121">
        <ele>386.11</ele>
        <time>2024-03-21T10:06:36Z</time>
      </trkpt>
      <trkpt lat="43.71249" lon="3.51128">
        <ele>388.03</ele>
        <time>2024-03-21T10:06:47Z</time>
      </trkpt>
      <trkpt lat="43.71252" lon="3.51132">
        <ele>388.03</ele>
        <time>2024-03-21T10:06:51Z</time>
      </trkpt>
      <trkpt lat="43.71254" lon="3.51145">
        <ele>388.99</ele>
        <time>2024-03-21T10:07:02Z</time>
      </trkpt>
      <trkpt lat="43.71254" lon="3.51146">
        <ele>389.47</ele>
        <time>2024-03-21T10:07:03Z</time>
      </trkpt>
      <trkpt lat="43.71254" lon="3.51152">
        <ele>390.91</ele>
        <time>2024-03-21T10:07:08Z</time>
      </trkpt>
      <trkpt lat="43.71251" lon="3.51166">
        <ele>391.39</ele>
        <time>2024-03-21T10:07:19Z</time>
      </trkpt>
      <trkpt lat="43.71251" lon="3.5118">
        <ele>391.87</ele>
        <time>2024-03-21T10:07:30Z</time>
      </trkpt>
      <trkpt lat="43.71251" lon="3.51181">
        <ele>391.87</ele>
        <time>2024-03-21T10:07:31Z</time>
      </trkpt>
      <trkpt lat="43.71257" lon="3.51195">
        <ele>394.28</ele>
        <time>2024-03-21T10:07:43Z</time>
      </trkpt>
      <trkpt lat="43.71261" lon="3.51201">
        <ele>394.28</ele>
        <time>2024-03-21T10:07:50Z</time>
      </trkpt>
      <trkpt lat="43.7127" lon="3.51211">
        <ele>396.2</ele>
        <time>2024-03-21T10:08:02Z</time>
      </trkpt>
      <trkpt lat="43.71274" lon="3.51216">
        <ele>396.68</ele>
        <time>2024-03-21T10:08:08Z</time>
      </trkpt>
      <trkpt lat="43.71279" lon="3.5123">
        <ele>397.16</ele>
        <time>2024-03-21T10:08:20Z</time>
      </trkpt>
      <trkpt lat="43.71281" lon="3.51233">
        <ele>397.16</ele>
        <time>2024-03-21T10:08:23Z</time>
      </trkpt>
      <trkpt lat="43.71286" lon="3.51232">
        <ele>399.08</ele>
        <time>2024-03-21T10:08:31Z</time>
      </trkpt>
      <trkpt lat="43.71292" lon="3.5122">
        <ele>401.01</ele>
        <time>2024-03-21T10:08:44Z</time>
      </trkpt>
      <trkpt lat="43.71291" lon="3.51215">
        <ele>401.01</ele>
        <time>2024-03-21T10:09:00Z</time>
      </trkpt>
      <trkpt lat="43.71294" lon="3.512">
        <ele>402.45</ele>
        <time>2024-03-21T10:09:13Z</time>
      </trkpt>
      <trkpt lat="43.71301" lon="3.51191">
        <ele>403.89</ele>
        <time>2024-03-21T10:09:26Z</time>
      </trkpt>
      <trkpt lat="43.71309" lon="3.51193">
        <ele>405.81</ele>
        <time>2024-03-21T10:09:38Z</time>
      </trkpt>
      <trkpt lat="43.71315" lon="3.51196">
        <ele>406.77</ele>
        <time>2024-03-21T10:09:48Z</time>
      </trkpt>
      <trkpt lat="43.71325" lon="3.51199">
        <ele>408.7</ele>
        <time>2024-03-21T10:10:00Z</time>
      </trkpt>
      <trkpt lat="43.7133" lon="3.51197">
        <ele>409.66</ele>
        <time>2024-03-21T10:10:07Z</time>
      </trkpt>
      <trkpt lat="43.71335" lon="3.51194">
        <ele>411.1</ele>
        <time>2024-03-21T10:10:14Z</time>
      </trkpt>
      <trkpt lat="43.71341" lon="3.51189">
        <ele>412.54</ele>
        <time>2024-03-21T10:10:25Z</time>
      </trkpt>
      <trkpt lat="43.71346" lon="3.51188">
        <ele>413.5</ele>
        <time>2024-03-21T10:10:41Z</time>
      </trkpt>
      <trkpt lat="43.71355" lon="3.51187">
        <ele>414.47</ele>
        <time>2024-03-21T10:10:53Z</time>
      </trkpt>
      <trkpt lat="43.7136" lon="3.51183">
        <ele>415.91</ele>
        <time>2024-03-21T10:11:06Z</time>
      </trkpt>
      <trkpt lat="43.71359" lon="3.51182">
        <ele>415.91</ele>
        <time>2024-03-21T10:11:29Z</time>
      </trkpt>
      <trkpt lat="43.71359" lon="3.51184">
        <ele>415.91</ele>
        <time>2024-03-21T10:11:59Z</time>
      </trkpt>
      <trkpt lat="43.71362" lon="3.51184">
        <ele>415.91</ele>
        <time>2024-03-21T10:12:20Z</time>
      </trkpt>
      <trkpt lat="43.7137" lon="3.51192">
        <ele>416.87</ele>
        <time>2024-03-21T10:12:32Z</time>
      </trkpt>
      <trkpt lat="43.71372" lon="3.51194">
        <ele>418.79</ele>
        <time>2024-03-21T10:12:36Z</time>
      </trkpt>
      <trkpt lat="43.71377" lon="3.51198">
        <ele>420.23</ele>
        <time>2024-03-21T10:12:47Z</time>
      </trkpt>
      <trkpt lat="43.71383" lon="3.51203">
        <ele>421.68</ele>
        <time>2024-03-21T10:13:00Z</time>
      </trkpt>
      <trkpt lat="43.71388" lon="3.51208">
        <ele>422.16</ele>
        <time>2024-03-21T10:13:09Z</time>
      </trkpt>
      <trkpt lat="43.71396" lon="3.51218">
        <ele>423.12</ele>
        <time>2024-03-21T10:13:21Z</time>
      </trkpt>
      <trkpt lat="43.71403" lon="3.51227">
        <ele>425.04</ele>
        <time>2024-03-21T10:13:32Z</time>
      </trkpt>
      <trkpt lat="43.71409" lon="3.51237">
        <ele>425.52</ele>
        <time>2024-03-21T10:13:44Z</time>
      </trkpt>
      <trkpt lat="43.71415" lon="3.51246">
        <ele>427.92</ele>
        <time>2024-03-21T10:13:57Z</time>
      </trkpt>
      <trkpt lat="43.71422" lon="3.51255">
        <ele>428.89</ele>
        <time>2024-03-21T10:14:08Z</time>
      </trkpt>
      <trkpt lat="43.71424" lon="3.51258">
        <ele>427.44</ele>
        <time>2024-03-21T10:14:11Z</time>
      </trkpt>
      <trkpt lat="43.7143" lon="3.51262">
        <ele>431.29</ele>
        <time>2024-03-21T10:14:19Z</time>
      </trkpt>
      <trkpt lat="43.71432" lon="3.51264">
        <ele>430.81</ele>
        <time>2024-03-21T10:14:22Z</time>
      </trkpt>
      <trkpt lat="43.71441" lon="3.51271">
        <ele>431.77</ele>
        <time>2024-03-21T10:14:34Z</time>
      </trkpt>
      <trkpt lat="43.71449" lon="3.51277">
        <ele>433.69</ele>
        <time>2024-03-21T10:14:46Z</time>
      </trkpt>
      <trkpt lat="43.71453" lon="3.51281">
        <ele>434.17</ele>
        <time>2024-03-21T10:14:52Z</time>
      </trkpt>
      <trkpt lat="43.7146" lon="3.51289">
        <ele>436.1</ele>
        <time>2024-03-21T10:15:04Z</time>
      </trkpt>
      <trkpt lat="43.71469" lon="3.51298">
        <ele>437.54</ele>
        <time>2024-03-21T10:15:17Z</time>
      </trkpt>
      <trkpt lat="43.71477" lon="3.51306">
        <ele>438.98</ele>
        <time>2024-03-21T10:15:29Z</time>
      </trkpt>
      <trkpt lat="43.71486" lon="3.51312">
        <ele>440.42</ele>
        <time>2024-03-21T10:15:40Z</time>
      </trkpt>
      <trkpt lat="43.71488" lon="3.51314">
        <ele>440.9</ele>
        <time>2024-03-21T10:15:44Z</time>
      </trkpt>
      <trkpt lat="43.71494" lon="3.51321">
        <ele>441.38</ele>
        <time>2024-03-21T10:15:51Z</time>
      </trkpt>
      <trkpt lat="43.71506" lon="3.51329">
        <ele>442.34</ele>
        <time>2024-03-21T10:16:04Z</time>
      </trkpt>
      <trkpt lat="43.71511" lon="3.51332">
        <ele>442.34</ele>
        <time>2024-03-21T10:16:09Z</time>
      </trkpt>
      <trkpt lat="43.71514" lon="3.51332">
        <ele>442.34</ele>
        <time>2024-03-21T10:16:11Z</time>
      </trkpt>
      <trkpt lat="43.71528" lon="3.51338">
        <ele>442.82</ele>
        <time>2024-03-21T10:16:26Z</time>
      </trkpt>
      <trkpt lat="43.71541" lon="3.51345">
        <ele>443.31</ele>
        <time>2024-03-21T10:16:38Z</time>
      </trkpt>
      <trkpt lat="43.71553" lon="3.5135">
        <ele>443.31</ele>
        <time>2024-03-21T10:16:50Z</time>
      </trkpt>
      <trkpt lat="43.71559" lon="3.51352">
        <ele>443.31</ele>
        <time>2024-03-21T10:16:56Z</time>
      </trkpt>
      <trkpt lat="43.71574" lon="3.5135">
        <ele>443.31</ele>
        <time>2024-03-21T10:17:09Z</time>
      </trkpt>
      <trkpt lat="43.71576" lon="3.51349">
        <ele>443.79</ele>
        <time>2024-03-21T10:17:11Z</time>
      </trkpt>
      <trkpt lat="43.71591" lon="3.51345">
        <ele>443.79</ele>
        <time>2024-03-21T10:17:25Z</time>
      </trkpt>
      <trkpt lat="43.71603" lon="3.51342">
        <ele>443.79</ele>
        <time>2024-03-21T10:17:37Z</time>
      </trkpt>
      <trkpt lat="43.71617" lon="3.51338">
        <ele>443.79</ele>
        <time>2024-03-21T10:17:52Z</time>
      </trkpt>
      <trkpt lat="43.71628" lon="3.51332">
        <ele>442.82</ele>
        <time>2024-03-21T10:18:06Z</time>
      </trkpt>
      <trkpt lat="43.71638" lon="3.51333">
        <ele>442.34</ele>
        <time>2024-03-21T10:18:14Z</time>
      </trkpt>
      <trkpt lat="43.7164" lon="3.51334">
        <ele>441.86</ele>
        <time>2024-03-21T10:18:16Z</time>
      </trkpt>
      <trkpt lat="43.71654" lon="3.51342">
        <ele>441.86</ele>
        <time>2024-03-21T10:18:30Z</time>
      </trkpt>
      <trkpt lat="43.71666" lon="3.51352">
        <ele>440.9</ele>
        <time>2024-03-21T10:18:43Z</time>
      </trkpt>
      <trkpt lat="43.71673" lon="3.51362">
        <ele>439.94</ele>
        <time>2024-03-21T10:18:52Z</time>
      </trkpt>
      <trkpt lat="43.71677" lon="3.51381">
        <ele>438.5</ele>
        <time>2024-03-21T10:19:06Z</time>
      </trkpt>
      <trkpt lat="43.71679" lon="3.51398">
        <ele>437.06</ele>
        <time>2024-03-21T10:19:19Z</time>
      </trkpt>
      <trkpt lat="43.71683" lon="3.51413">
        <ele>436.1</ele>
        <time>2024-03-21T10:19:31Z</time>
      </trkpt>
      <trkpt lat="43.71686" lon="3.5142">
        <ele>434.17</ele>
        <time>2024-03-21T10:19:43Z</time>
      </trkpt>
      <trkpt lat="43.71686" lon="3.51419">
        <ele>436.1</ele>
        <time>2024-03-21T10:19:47Z</time>
      </trkpt>
      <trkpt lat="43.71687" lon="3.51424">
        <ele>434.65</ele>
        <time>2024-03-21T10:19:57Z</time>
      </trkpt>
      <trkpt lat="43.71693" lon="3.51439">
        <ele>432.73</ele>
        <time>2024-03-21T10:20:09Z</time>
      </trkpt>
      <trkpt lat="43.71694" lon="3.51446">
        <ele>431.77</ele>
        <time>2024-03-21T10:20:15Z</time>
      </trkpt>
      <trkpt lat="43.71699" lon="3.51468">
        <ele>429.85</ele>
        <time>2024-03-21T10:20:29Z</time>
      </trkpt>
      <trkpt lat="43.717" lon="3.5147">
        <ele>429.85</ele>
        <time>2024-03-21T10:20:30Z</time>
      </trkpt>
      <trkpt lat="43.71704" lon="3.51494">
        <ele>427.92</ele>
        <time>2024-03-21T10:20:44Z</time>
      </trkpt>
      <trkpt lat="43.71705" lon="3.51497">
        <ele>427.44</ele>
        <time>2024-03-21T10:20:46Z</time>
      </trkpt>
      <trkpt lat="43.7172" lon="3.51516">
        <ele>427.44</ele>
        <time>2024-03-21T10:21:02Z</time>
      </trkpt>
      <trkpt lat="43.71731" lon="3.5153">
        <ele>427.92</ele>
        <time>2024-03-21T10:21:16Z</time>
      </trkpt>
      <trkpt lat="43.71733" lon="3.51533">
        <ele>427.92</ele>
        <time>2024-03-21T10:21:28Z</time>
      </trkpt>
      <trkpt lat="43.71732" lon="3.51534">
        <ele>428.89</ele>
        <time>2024-03-21T10:21:35Z</time>
      </trkpt>
      <trkpt lat="43.7173" lon="3.51531">
        <ele>428.89</ele>
        <time>2024-03-21T10:21:51Z</time>
      </trkpt>
      <trkpt lat="43.7173" lon="3.5153">
        <ele>428.89</ele>
        <time>2024-03-21T10:22:07Z</time>
      </trkpt>
      <trkpt lat="43.71731" lon="3.51533">
        <ele>427.92</ele>
        <time>2024-03-21T10:22:31Z</time>
      </trkpt>
      <trkpt lat="43.71732" lon="3.51536">
        <ele>428.89</ele>
        <time>2024-03-21T10:22:53Z</time>
      </trkpt>
      <trkpt lat="43.71732" lon="3.51532">
        <ele>428.89</ele>
        <time>2024-03-21T10:23:06Z</time>
      </trkpt>
      <trkpt lat="43.71731" lon="3.51529">
        <ele>428.89</ele>
        <time>2024-03-21T10:23:24Z</time>
      </trkpt>
      <trkpt lat="43.71732" lon="3.5153">
        <ele>429.85</ele>
        <time>2024-03-21T10:23:50Z</time>
      </trkpt>
      <trkpt lat="43.71732" lon="3.51529">
        <ele>428.89</ele>
        <time>2024-03-21T10:23:52Z</time>
      </trkpt>
      <trkpt lat="43.71739" lon="3.51524">
        <ele>428.4</ele>
        <time>2024-03-21T10:24:06Z</time>
      </trkpt>
      <trkpt lat="43.71744" lon="3.51521">
        <ele>428.4</ele>
        <time>2024-03-21T10:24:11Z</time>
      </trkpt>
      <trkpt lat="43.71747" lon="3.51518">
        <ele>428.4</ele>
        <time>2024-03-21T10:24:15Z</time>
      </trkpt>
      <trkpt lat="43.71759" lon="3.51512">
        <ele>427.92</ele>
        <time>2024-03-21T10:24:26Z</time>
      </trkpt>
      <trkpt lat="43.71772" lon="3.51503">
        <ele>427.92</ele>
        <time>2024-03-21T10:24:38Z</time>
      </trkpt>
      <trkpt lat="43.71786" lon="3.51492">
        <ele>427.92</ele>
        <time>2024-03-21T10:24:51Z</time>
      </trkpt>
      <trkpt lat="43.718" lon="3.51482">
        <ele>427.44</ele>
        <time>2024-03-21T10:25:04Z</time>
      </trkpt>
      <trkpt lat="43.71812" lon="3.51472">
        <ele>427.44</ele>
        <time>2024-03-21T10:25:16Z</time>
      </trkpt>
      <trkpt lat="43.71825" lon="3.51463">
        <ele>427.44</ele>
        <time>2024-03-21T10:25:29Z</time>
      </trkpt>
      <trkpt lat="43.71837" lon="3.51454">
        <ele>427.44</ele>
        <time>2024-03-21T10:25:41Z</time>
      </trkpt>
      <trkpt lat="43.71847" lon="3.51443">
        <ele>428.4</ele>
        <time>2024-03-21T10:25:53Z</time>
      </trkpt>
      <trkpt lat="43.71858" lon="3.5143">
        <ele>428.4</ele>
        <time>2024-03-21T10:26:05Z</time>
      </trkpt>
      <trkpt lat="43.71871" lon="3.5142">
        <ele>428.4</ele>
        <time>2024-03-21T10:26:18Z</time>
      </trkpt>
      <trkpt lat="43.71887" lon="3.51414">
        <ele>428.4</ele>
        <time>2024-03-21T10:26:31Z</time>
      </trkpt>
      <trkpt lat="43.71901" lon="3.5141">
        <ele>428.89</ele>
        <time>2024-03-21T10:26:43Z</time>
      </trkpt>
      <trkpt lat="43.71915" lon="3.51403">
        <ele>429.37</ele>
        <time>2024-03-21T10:26:56Z</time>
      </trkpt>
      <trkpt lat="43.71929" lon="3.51399">
        <ele>430.81</ele>
        <time>2024-03-21T10:27:09Z</time>
      </trkpt>
      <trkpt lat="43.71942" lon="3.51393">
        <ele>431.77</ele>
        <time>2024-03-21T10:27:22Z</time>
      </trkpt>
      <trkpt lat="43.71952" lon="3.51387">
        <ele>433.69</ele>
        <time>2024-03-21T10:27:34Z</time>
      </trkpt>
      <trkpt lat="43.71962" lon="3.51378">
        <ele>434.65</ele>
        <time>2024-03-21T10:27:46Z</time>
      </trkpt>
      <trkpt lat="43.71966" lon="3.51373">
        <ele>435.13</ele>
        <time>2024-03-21T10:27:51Z</time>
      </trkpt>
      <trkpt lat="43.71975" lon="3.51363">
        <ele>436.58</ele>
        <time>2024-03-21T10:28:02Z</time>
      </trkpt>
      <trkpt lat="43.71985" lon="3.51356">
        <ele>437.54</ele>
        <time>2024-03-21T10:28:13Z</time>
      </trkpt>
      <trkpt lat="43.71995" lon="3.5135">
        <ele>438.5</ele>
        <time>2024-03-21T10:28:25Z</time>
      </trkpt>
      <trkpt lat="43.72004" lon="3.51345">
        <ele>438.98</ele>
        <time>2024-03-21T10:28:37Z</time>
      </trkpt>
      <trkpt lat="43.72009" lon="3.51341">
        <ele>439.46</ele>
        <time>2024-03-21T10:28:42Z</time>
      </trkpt>
      <trkpt lat="43.72019" lon="3.51336">
        <ele>440.9</ele>
        <time>2024-03-21T10:28:54Z</time>
      </trkpt>
      <trkpt lat="43.72024" lon="3.51334">
        <ele>441.86</ele>
        <time>2024-03-21T10:29:00Z</time>
      </trkpt>
      <trkpt lat="43.72034" lon="3.5133">
        <ele>442.82</ele>
        <time>2024-03-21T10:29:11Z</time>
      </trkpt>
      <trkpt lat="43.7204" lon="3.51327">
        <ele>444.27</ele>
        <time>2024-03-21T10:29:18Z</time>
      </trkpt>
      <trkpt lat="43.72043" lon="3.51327">
        <ele>445.23</ele>
        <time>2024-03-21T10:29:32Z</time>
      </trkpt>
      <trkpt lat="43.72049" lon="3.51324">
        <ele>445.71</ele>
        <time>2024-03-21T10:29:44Z</time>
      </trkpt>
      <trkpt lat="43.7206" lon="3.51322">
        <ele>447.15</ele>
        <time>2024-03-21T10:29:57Z</time>
      </trkpt>
      <trkpt lat="43.72072" lon="3.51315">
        <ele>449.07</ele>
        <time>2024-03-21T10:30:10Z</time>
      </trkpt>
      <trkpt lat="43.7208" lon="3.51311">
        <ele>450.03</ele>
        <time>2024-03-21T10:30:18Z</time>
      </trkpt>
      <trkpt lat="43.72092" lon="3.51307">
        <ele>451</ele>
        <time>2024-03-21T10:30:30Z</time>
      </trkpt>
      <trkpt lat="43.72104" lon="3.51302">
        <ele>451.96</ele>
        <time>2024-03-21T10:30:42Z</time>
      </trkpt>
      <trkpt lat="43.72114" lon="3.51292">
        <ele>453.88</ele>
        <time>2024-03-21T10:30:54Z</time>
      </trkpt>
      <trkpt lat="43.72124" lon="3.51282">
        <ele>454.84</ele>
        <time>2024-03-21T10:31:06Z</time>
      </trkpt>
      <trkpt lat="43.72136" lon="3.51279">
        <ele>456.28</ele>
        <time>2024-03-21T10:31:18Z</time>
      </trkpt>
      <trkpt lat="43.72148" lon="3.51276">
        <ele>457.72</ele>
        <time>2024-03-21T10:31:30Z</time>
      </trkpt>
      <trkpt lat="43.72157" lon="3.51271">
        <ele>459.17</ele>
        <time>2024-03-21T10:31:41Z</time>
      </trkpt>
      <trkpt lat="43.72166" lon="3.5127">
        <ele>460.13</ele>
        <time>2024-03-21T10:31:52Z</time>
      </trkpt>
      <trkpt lat="43.72168" lon="3.51271">
        <ele>461.09</ele>
        <time>2024-03-21T10:31:55Z</time>
      </trkpt>
      <trkpt lat="43.72171" lon="3.5127">
        <ele>462.05</ele>
        <time>2024-03-21T10:32:00Z</time>
      </trkpt>
      <trkpt lat="43.72173" lon="3.51264">
        <ele>462.05</ele>
        <time>2024-03-21T10:32:15Z</time>
      </trkpt>
      <trkpt lat="43.72174" lon="3.51267">
        <ele>462.05</ele>
        <time>2024-03-21T10:32:21Z</time>
      </trkpt>
      <trkpt lat="43.72174" lon="3.51275">
        <ele>462.53</ele>
        <time>2024-03-21T10:32:28Z</time>
      </trkpt>
      <trkpt lat="43.72175" lon="3.51285">
        <ele>463.49</ele>
        <time>2024-03-21T10:32:36Z</time>
      </trkpt>
      <trkpt lat="43.72174" lon="3.51289">
        <ele>463.49</ele>
        <time>2024-03-21T10:32:39Z</time>
      </trkpt>
      <trkpt lat="43.72174" lon="3.51293">
        <ele>463.97</ele>
        <time>2024-03-21T10:32:42Z</time>
      </trkpt>
      <trkpt lat="43.72174" lon="3.51302">
        <ele>463.97</ele>
        <time>2024-03-21T10:32:48Z</time>
      </trkpt>
      <trkpt lat="43.72184" lon="3.51315">
        <ele>465.9</ele>
        <time>2024-03-21T10:33:01Z</time>
      </trkpt>
      <trkpt lat="43.72194" lon="3.51324">
        <ele>467.34</ele>
        <time>2024-03-21T10:33:13Z</time>
      </trkpt>
      <trkpt lat="43.72201" lon="3.51329">
        <ele>468.3</ele>
        <time>2024-03-21T10:33:25Z</time>
      </trkpt>
      <trkpt lat="43.72208" lon="3.51332">
        <ele>469.26</ele>
        <time>2024-03-21T10:33:38Z</time>
      </trkpt>
      <trkpt lat="43.72211" lon="3.51332">
        <ele>469.26</ele>
        <time>2024-03-21T10:33:41Z</time>
      </trkpt>
      <trkpt lat="43.72214" lon="3.51333">
        <ele>469.74</ele>
        <time>2024-03-21T10:33:45Z</time>
      </trkpt>
      <trkpt lat="43.72216" lon="3.51333">
        <ele>469.74</ele>
        <time>2024-03-21T10:33:47Z</time>
      </trkpt>
      <trkpt lat="43.72224" lon="3.51332">
        <ele>470.22</ele>
        <time>2024-03-21T10:33:54Z</time>
      </trkpt>
      <trkpt lat="43.72228" lon="3.51332">
        <ele>470.7</ele>
        <time>2024-03-21T10:33:58Z</time>
      </trkpt>
      <trkpt lat="43.72238" lon="3.51334">
        <ele>471.66</ele>
        <time>2024-03-21T10:34:08Z</time>
      </trkpt>
      <trkpt lat="43.72241" lon="3.51334">
        <ele>472.14</ele>
        <time>2024-03-21T10:34:11Z</time>
      </trkpt>
      <trkpt lat="43.72249" lon="3.51339">
        <ele>473.11</ele>
        <time>2024-03-21T10:34:21Z</time>
      </trkpt>
      <trkpt lat="43.72256" lon="3.51345">
        <ele>474.07</ele>
        <time>2024-03-21T10:34:29Z</time>
      </trkpt>
      <trkpt lat="43.72259" lon="3.51347">
        <ele>475.03</ele>
        <time>2024-03-21T10:34:33Z</time>
      </trkpt>
      <trkpt lat="43.72263" lon="3.51352">
        <ele>475.51</ele>
        <time>2024-03-21T10:34:39Z</time>
      </trkpt>
      <trkpt lat="43.72265" lon="3.51358">
        <ele>475.99</ele>
        <time>2024-03-21T10:34:52Z</time>
      </trkpt>
      <trkpt lat="43.72265" lon="3.5136">
        <ele>475.99</ele>
        <time>2024-03-21T10:35:19Z</time>
      </trkpt>
      <trkpt lat="43.72267" lon="3.51362">
        <ele>475.99</ele>
        <time>2024-03-21T10:35:44Z</time>
      </trkpt>
      <trkpt lat="43.72261" lon="3.51363">
        <ele>475.99</ele>
        <time>2024-03-21T10:36:06Z</time>
      </trkpt>
      <trkpt lat="43.72268" lon="3.51362">
        <ele>476.95</ele>
        <time>2024-03-21T10:36:36Z</time>
      </trkpt>
      <trkpt lat="43.72272" lon="3.51364">
        <ele>476.95</ele>
        <time>2024-03-21T10:36:41Z</time>
      </trkpt>
      <trkpt lat="43.72274" lon="3.51365">
        <ele>477.43</ele>
        <time>2024-03-21T10:36:43Z</time>
      </trkpt>
      <trkpt lat="43.72276" lon="3.51366">
        <ele>477.91</ele>
        <time>2024-03-21T10:36:46Z</time>
      </trkpt>
      <trkpt lat="43.72278" lon="3.51367">
        <ele>477.91</ele>
        <time>2024-03-21T10:36:48Z</time>
      </trkpt>
      <trkpt lat="43.7228" lon="3.5137">
        <ele>478.39</ele>
        <time>2024-03-21T10:36:51Z</time>
      </trkpt>
      <trkpt lat="43.72283" lon="3.51372">
        <ele>478.87</ele>
        <time>2024-03-21T10:36:54Z</time>
      </trkpt>
      <trkpt lat="43.72288" lon="3.51377">
        <ele>478.87</ele>
        <time>2024-03-21T10:37:01Z</time>
      </trkpt>
      <trkpt lat="43.7229" lon="3.5138">
        <ele>479.35</ele>
        <time>2024-03-21T10:37:04Z</time>
      </trkpt>
      <trkpt lat="43.72294" lon="3.5139">
        <ele>480.32</ele>
        <time>2024-03-21T10:37:11Z</time>
      </trkpt>
      <trkpt lat="43.72296" lon="3.51394">
        <ele>480.8</ele>
        <time>2024-03-21T10:37:15Z</time>
      </trkpt>
      <trkpt lat="43.723" lon="3.51404">
        <ele>481.76</ele>
        <time>2024-03-21T10:37:22Z</time>
      </trkpt>
      <trkpt lat="43.723" lon="3.51408">
        <ele>482.72</ele>
        <time>2024-03-21T10:37:26Z</time>
      </trkpt>
      <trkpt lat="43.72301" lon="3.51408">
        <ele>482.72</ele>
        <time>2024-03-21T10:37:28Z</time>
      </trkpt>
      <trkpt lat="43.72303" lon="3.5141">
        <ele>483.2</ele>
        <time>2024-03-21T10:37:39Z</time>
      </trkpt>
      <trkpt lat="43.72303" lon="3.51415">
        <ele>483.2</ele>
        <time>2024-03-21T10:38:02Z</time>
      </trkpt>
      <trkpt lat="43.72307" lon="3.51429">
        <ele>484.16</ele>
        <time>2024-03-21T10:38:12Z</time>
      </trkpt>
      <trkpt lat="43.72307" lon="3.51432">
        <ele>484.16</ele>
        <time>2024-03-21T10:38:14Z</time>
      </trkpt>
      <trkpt lat="43.72307" lon="3.51447">
        <ele>484.64</ele>
        <time>2024-03-21T10:38:23Z</time>
      </trkpt>
      <trkpt lat="43.72306" lon="3.51453">
        <ele>485.12</ele>
        <time>2024-03-21T10:38:27Z</time>
      </trkpt>
      <trkpt lat="43.72305" lon="3.5146">
        <ele>485.6</ele>
        <time>2024-03-21T10:38:31Z</time>
      </trkpt>
      <trkpt lat="43.72303" lon="3.51465">
        <ele>486.08</ele>
        <time>2024-03-21T10:38:35Z</time>
      </trkpt>
      <trkpt lat="43.72302" lon="3.51471">
        <ele>487.05</ele>
        <time>2024-03-21T10:38:39Z</time>
      </trkpt>
      <trkpt lat="43.72297" lon="3.51485">
        <ele>488.01</ele>
        <time>2024-03-21T10:38:49Z</time>
      </trkpt>
      <trkpt lat="43.72297" lon="3.51486">
        <ele>488.01</ele>
        <time>2024-03-21T10:38:50Z</time>
      </trkpt>
      <trkpt lat="43.72295" lon="3.51496">
        <ele>488.49</ele>
        <time>2024-03-21T10:38:57Z</time>
      </trkpt>
      <trkpt lat="43.72294" lon="3.51502">
        <ele>488.97</ele>
        <time>2024-03-21T10:39:01Z</time>
      </trkpt>
      <trkpt lat="43.72293" lon="3.51517">
        <ele>489.93</ele>
        <time>2024-03-21T10:39:11Z</time>
      </trkpt>
      <trkpt lat="43.72292" lon="3.51518">
        <ele>490.41</ele>
        <time>2024-03-21T10:39:12Z</time>
      </trkpt>
      <trkpt lat="43.72292" lon="3.51522">
        <ele>490.41</ele>
        <time>2024-03-21T10:39:15Z</time>
      </trkpt>
      <trkpt lat="43.72292" lon="3.51527">
        <ele>490.89</ele>
        <time>2024-03-21T10:39:18Z</time>
      </trkpt>
      <trkpt lat="43.72294" lon="3.51539">
        <ele>492.33</ele>
        <time>2024-03-21T10:39:28Z</time>
      </trkpt>
      <trkpt lat="43.72295" lon="3.51543">
        <ele>492.33</ele>
        <time>2024-03-21T10:39:31Z</time>
      </trkpt>
      <trkpt lat="43.72298" lon="3.51547">
        <ele>492.81</ele>
        <time>2024-03-21T10:39:35Z</time>
      </trkpt>
      <trkpt lat="43.723" lon="3.5155">
        <ele>493.29</ele>
        <time>2024-03-21T10:39:38Z</time>
      </trkpt>
      <trkpt lat="43.72304" lon="3.51553">
        <ele>493.29</ele>
        <time>2024-03-21T10:39:42Z</time>
      </trkpt>
      <trkpt lat="43.72306" lon="3.51555">
        <ele>493.77</ele>
        <time>2024-03-21T10:39:45Z</time>
      </trkpt>
      <trkpt lat="43.72309" lon="3.51556">
        <ele>494.26</ele>
        <time>2024-03-21T10:39:48Z</time>
      </trkpt>
      <trkpt lat="43.72316" lon="3.51559">
        <ele>495.22</ele>
        <time>2024-03-21T10:39:55Z</time>
      </trkpt>
      <trkpt lat="43.72319" lon="3.51559">
        <ele>495.22</ele>
        <time>2024-03-21T10:39:58Z</time>
      </trkpt>
      <trkpt lat="43.72326" lon="3.51558">
        <ele>496.18</ele>
        <time>2024-03-21T10:40:05Z</time>
      </trkpt>
      <trkpt lat="43.72332" lon="3.51555">
        <ele>496.66</ele>
        <time>2024-03-21T10:40:12Z</time>
      </trkpt>
      <trkpt lat="43.72349" lon="3.51554">
        <ele>497.14</ele>
        <time>2024-03-21T10:40:28Z</time>
      </trkpt>
      <trkpt lat="43.72355" lon="3.51555">
        <ele>497.62</ele>
        <time>2024-03-21T10:40:34Z</time>
      </trkpt>
      <trkpt lat="43.72366" lon="3.5156">
        <ele>498.1</ele>
        <time>2024-03-21T10:40:44Z</time>
      </trkpt>
      <trkpt lat="43.72381" lon="3.51568">
        <ele>498.1</ele>
        <time>2024-03-21T10:40:58Z</time>
      </trkpt>
      <trkpt lat="43.72396" lon="3.51571">
        <ele>498.58</ele>
        <time>2024-03-21T10:41:12Z</time>
      </trkpt>
      <trkpt lat="43.7241" lon="3.51572">
        <ele>497.14</ele>
        <time>2024-03-21T10:41:24Z</time>
      </trkpt>
      <trkpt lat="43.72427" lon="3.5157">
        <ele>496.18</ele>
        <time>2024-03-21T10:41:39Z</time>
      </trkpt>
      <trkpt lat="43.72431" lon="3.51569">
        <ele>495.7</ele>
        <time>2024-03-21T10:41:43Z</time>
      </trkpt>
      <trkpt lat="43.72445" lon="3.51565">
        <ele>494.74</ele>
        <time>2024-03-21T10:41:57Z</time>
      </trkpt>
      <trkpt lat="43.72462" lon="3.51564">
        <ele>492.33</ele>
        <time>2024-03-21T10:42:12Z</time>
      </trkpt>
      <trkpt lat="43.72479" lon="3.51566">
        <ele>492.33</ele>
        <time>2024-03-21T10:42:26Z</time>
      </trkpt>
      <trkpt lat="43.72497" lon="3.51572">
        <ele>491.37</ele>
        <time>2024-03-21T10:42:41Z</time>
      </trkpt>
      <trkpt lat="43.72509" lon="3.51583">
        <ele>491.37</ele>
        <time>2024-03-21T10:42:54Z</time>
      </trkpt>
      <trkpt lat="43.72515" lon="3.51607">
        <ele>490.89</ele>
        <time>2024-03-21T10:43:09Z</time>
      </trkpt>
      <trkpt lat="43.72517" lon="3.51626">
        <ele>490.89</ele>
        <time>2024-03-21T10:43:22Z</time>
      </trkpt>
      <trkpt lat="43.72515" lon="3.51636">
        <ele>490.89</ele>
        <time>2024-03-21T10:43:28Z</time>
      </trkpt>
      <trkpt lat="43.72504" lon="3.51655">
        <ele>490.89</ele>
        <time>2024-03-21T10:43:43Z</time>
      </trkpt>
      <trkpt lat="43.72494" lon="3.51671">
        <ele>490.89</ele>
        <time>2024-03-21T10:43:55Z</time>
      </trkpt>
      <trkpt lat="43.72489" lon="3.51695">
        <ele>490.89</ele>
        <time>2024-03-21T10:44:10Z</time>
      </trkpt>
      <trkpt lat="43.72483" lon="3.51713">
        <ele>490.89</ele>
        <time>2024-03-21T10:44:23Z</time>
      </trkpt>
      <trkpt lat="43.72474" lon="3.51732">
        <ele>493.29</ele>
        <time>2024-03-21T10:44:37Z</time>
      </trkpt>
      <trkpt lat="43.72471" lon="3.51736">
        <ele>493.29</ele>
        <time>2024-03-21T10:44:41Z</time>
      </trkpt>
      <trkpt lat="43.72461" lon="3.51753">
        <ele>494.26</ele>
        <time>2024-03-21T10:44:56Z</time>
      </trkpt>
      <trkpt lat="43.72454" lon="3.51771">
        <ele>495.22</ele>
        <time>2024-03-21T10:45:09Z</time>
      </trkpt>
      <trkpt lat="43.72453" lon="3.51775">
        <ele>495.22</ele>
        <time>2024-03-21T10:45:13Z</time>
      </trkpt>
      <trkpt lat="43.72452" lon="3.51779">
        <ele>495.7</ele>
        <time>2024-03-21T10:45:16Z</time>
      </trkpt>
      <trkpt lat="43.7245" lon="3.51784">
        <ele>496.18</ele>
        <time>2024-03-21T10:45:20Z</time>
      </trkpt>
      <trkpt lat="43.72448" lon="3.51789">
        <ele>496.66</ele>
        <time>2024-03-21T10:45:24Z</time>
      </trkpt>
      <trkpt lat="43.72445" lon="3.51794">
        <ele>497.14</ele>
        <time>2024-03-21T10:45:28Z</time>
      </trkpt>
      <trkpt lat="43.72443" lon="3.51799">
        <ele>497.62</ele>
        <time>2024-03-21T10:45:32Z</time>
      </trkpt>
      <trkpt lat="43.72442" lon="3.51804">
        <ele>498.1</ele>
        <time>2024-03-21T10:45:36Z</time>
      </trkpt>
      <trkpt lat="43.72432" lon="3.51812">
        <ele>494.74</ele>
        <time>2024-03-21T10:45:50Z</time>
      </trkpt>
      <trkpt lat="43.72432" lon="3.51813">
        <ele>498.58</ele>
        <time>2024-03-21T10:45:53Z</time>
      </trkpt>
      <trkpt lat="43.72432" lon="3.51813">
        <ele>493.29</ele>
        <time>2024-03-21T10:45:55Z</time>
      </trkpt>
      <trkpt lat="43.72432" lon="3.51813">
        <ele>502.43</ele>
        <time>2024-03-21T10:45:56Z</time>
      </trkpt>
      <trkpt lat="43.72432" lon="3.51814">
        <ele>496.18</ele>
        <time>2024-03-21T10:45:57Z</time>
      </trkpt>
      <trkpt lat="43.72433" lon="3.51813">
        <ele>492.81</ele>
        <time>2024-03-21T10:46:02Z</time>
      </trkpt>
      <trkpt lat="43.72433" lon="3.51813">
        <ele>499.06</ele>
        <time>2024-03-21T10:46:03Z</time>
      </trkpt>
      <trkpt lat="43.72434" lon="3.51813">
        <ele>494.74</ele>
        <time>2024-03-21T10:46:04Z</time>
      </trkpt>
      <trkpt lat="43.72434" lon="3.51812">
        <ele>499.06</ele>
        <time>2024-03-21T10:46:05Z</time>
      </trkpt>
      <trkpt lat="43.72434" lon="3.51812">
        <ele>474.55</ele>
        <time>2024-03-21T10:46:06Z</time>
      </trkpt>
      <trkpt lat="43.72434" lon="3.51812">
        <ele>515.4</ele>
        <time>2024-03-21T10:46:07Z</time>
      </trkpt>
      <trkpt lat="43.72434" lon="3.51811">
        <ele>511.08</ele>
        <time>2024-03-21T10:46:08Z</time>
      </trkpt>
      <trkpt lat="43.72434" lon="3.5181">
        <ele>497.14</ele>
        <time>2024-03-21T10:46:09Z</time>
      </trkpt>
      <trkpt lat="43.72434" lon="3.5181">
        <ele>497.14</ele>
        <time>2024-03-21T10:46:10Z</time>
      </trkpt>
      <trkpt lat="43.72435" lon="3.51808">
        <ele>501.95</ele>
        <time>2024-03-21T10:46:14Z</time>
      </trkpt>
      <trkpt lat="43.72435" lon="3.51808">
        <ele>496.18</ele>
        <time>2024-03-21T10:46:15Z</time>
      </trkpt>
      <trkpt lat="43.72433" lon="3.51804">
        <ele>499.54</ele>
        <time>2024-03-21T10:46:19Z</time>
      </trkpt>
      <trkpt lat="43.72432" lon="3.51804">
        <ele>499.54</ele>
        <time>2024-03-21T10:46:20Z</time>
      </trkpt>
      <trkpt lat="43.72432" lon="3.51803">
        <ele>507.71</ele>
        <time>2024-03-21T10:46:21Z</time>
      </trkpt>
      <trkpt lat="43.72431" lon="3.51803">
        <ele>493.77</ele>
        <time>2024-03-21T10:46:22Z</time>
      </trkpt>
      <trkpt lat="43.7243" lon="3.51803">
        <ele>493.29</ele>
        <time>2024-03-21T10:46:23Z</time>
      </trkpt>
      <trkpt lat="43.7243" lon="3.51806">
        <ele>530.3</ele>
        <time>2024-03-21T10:46:24Z</time>
      </trkpt>
      <trkpt lat="43.7243" lon="3.51808">
        <ele>505.79</ele>
        <time>2024-03-21T10:46:25Z</time>
      </trkpt>
      <trkpt lat="43.72431" lon="3.51809">
        <ele>501.46</ele>
        <time>2024-03-21T10:46:26Z</time>
      </trkpt>
      <trkpt lat="43.72432" lon="3.5181">
        <ele>498.1</ele>
        <time>2024-03-21T10:46:28Z</time>
      </trkpt>
      <trkpt lat="43.72433" lon="3.51818">
        <ele>499.06</ele>
        <time>2024-03-21T10:46:47Z</time>
      </trkpt>
      <trkpt lat="43.72429" lon="3.51826">
        <ele>493.29</ele>
        <time>2024-03-21T10:46:56Z</time>
      </trkpt>
      <trkpt lat="43.72428" lon="3.51827">
        <ele>458.21</ele>
        <time>2024-03-21T10:46:57Z</time>
      </trkpt>
      <trkpt lat="43.72428" lon="3.51827">
        <ele>501.95</ele>
        <time>2024-03-21T10:46:58Z</time>
      </trkpt>
      <trkpt lat="43.72428" lon="3.51828">
        <ele>501.95</ele>
        <time>2024-03-21T10:46:59Z</time>
      </trkpt>
      <trkpt lat="43.72428" lon="3.51828">
        <ele>500.02</ele>
        <time>2024-03-21T10:47:01Z</time>
      </trkpt>
      <trkpt lat="43.72429" lon="3.51828">
        <ele>492.33</ele>
        <time>2024-03-21T10:47:04Z</time>
      </trkpt>
      <trkpt lat="43.72429" lon="3.51827">
        <ele>506.75</ele>
        <time>2024-03-21T10:47:05Z</time>
      </trkpt>
      <trkpt lat="43.72429" lon="3.51826">
        <ele>506.75</ele>
        <time>2024-03-21T10:47:06Z</time>
      </trkpt>
      <trkpt lat="43.7243" lon="3.51825">
        <ele>500.02</ele>
        <time>2024-03-21T10:47:08Z</time>
      </trkpt>
      <trkpt lat="43.7243" lon="3.51825">
        <ele>488.97</ele>
        <time>2024-03-21T10:47:10Z</time>
      </trkpt>
      <trkpt lat="43.7243" lon="3.51826">
        <ele>501.46</ele>
        <time>2024-03-21T10:47:11Z</time>
      </trkpt>
      <trkpt lat="43.7243" lon="3.51826">
        <ele>502.43</ele>
        <time>2024-03-21T10:47:13Z</time>
      </trkpt>
      <trkpt lat="43.7243" lon="3.51826">
        <ele>498.58</ele>
        <time>2024-03-21T10:47:28Z</time>
      </trkpt>
      <trkpt lat="43.7243" lon="3.51826">
        <ele>460.13</ele>
        <time>2024-03-21T10:47:29Z</time>
      </trkpt>
      <trkpt lat="43.7243" lon="3.51826">
        <ele>488.49</ele>
        <time>2024-03-21T10:47:30Z</time>
      </trkpt>
      <trkpt lat="43.7243" lon="3.51826">
        <ele>499.54</ele>
        <time>2024-03-21T10:47:32Z</time>
      </trkpt>
      <trkpt lat="43.72429" lon="3.51828">
        <ele>512.04</ele>
        <time>2024-03-21T10:47:41Z</time>
      </trkpt>
      <trkpt lat="43.72429" lon="3.51829">
        <ele>489.93</ele>
        <time>2024-03-21T10:47:42Z</time>
      </trkpt>
      <trkpt lat="43.72429" lon="3.51829">
        <ele>482.72</ele>
        <time>2024-03-21T10:47:43Z</time>
      </trkpt>
      <trkpt lat="43.72428" lon="3.5183">
        <ele>544.24</ele>
        <time>2024-03-21T10:47:44Z</time>
      </trkpt>
      <trkpt lat="43.72428" lon="3.5183">
        <ele>519.25</ele>
        <time>2024-03-21T10:47:45Z</time>
      </trkpt>
      <trkpt lat="43.72429" lon="3.5183">
        <ele>504.35</ele>
        <time>2024-03-21T10:47:46Z</time>
      </trkpt>
      <trkpt lat="43.7243" lon="3.51829">
        <ele>501.46</ele>
        <time>2024-03-21T10:47:48Z</time>
      </trkpt>
      <trkpt lat="43.7243" lon="3.51829">
        <ele>500.02</ele>
        <time>2024-03-21T10:48:08Z</time>
      </trkpt>
      <trkpt lat="43.7243" lon="3.51833">
        <ele>501.46</ele>
        <time>2024-03-21T10:48:12Z</time>
      </trkpt>
      <trkpt lat="43.7243" lon="3.51838">
        <ele>501.46</ele>
        <time>2024-03-21T10:48:16Z</time>
      </trkpt>
      <trkpt lat="43.7243" lon="3.51843">
        <ele>500.02</ele>
        <time>2024-03-21T10:48:19Z</time>
      </trkpt>
      <trkpt lat="43.72432" lon="3.51856">
        <ele>501.95</ele>
        <time>2024-03-21T10:48:28Z</time>
      </trkpt>
      <trkpt lat="43.72433" lon="3.51863">
        <ele>502.43</ele>
        <time>2024-03-21T10:48:33Z</time>
      </trkpt>
      <trkpt lat="43.72434" lon="3.51875">
        <ele>500.98</ele>
        <time>2024-03-21T10:48:40Z</time>
      </trkpt>
      <trkpt lat="43.72434" lon="3.51879">
        <ele>501.95</ele>
        <time>2024-03-21T10:48:43Z</time>
      </trkpt>
      <trkpt lat="43.72435" lon="3.51884">
        <ele>500.5</ele>
        <time>2024-03-21T10:48:46Z</time>
      </trkpt>
      <trkpt lat="43.72435" lon="3.51886">
        <ele>502.43</ele>
        <time>2024-03-21T10:48:48Z</time>
      </trkpt>
      <trkpt lat="43.72444" lon="3.51897">
        <ele>501.95</ele>
        <time>2024-03-21T10:49:00Z</time>
      </trkpt>
      <trkpt lat="43.72452" lon="3.51901">
        <ele>504.83</ele>
        <time>2024-03-21T10:49:08Z</time>
      </trkpt>
      <trkpt lat="43.72455" lon="3.51901">
        <ele>500.98</ele>
        <time>2024-03-21T10:49:10Z</time>
      </trkpt>
      <trkpt lat="43.72455" lon="3.51901">
        <ele>505.31</ele>
        <time>2024-03-21T10:49:11Z</time>
      </trkpt>
      <trkpt lat="43.7247" lon="3.51903">
        <ele>503.39</ele>
        <time>2024-03-21T10:49:25Z</time>
      </trkpt>
      <trkpt lat="43.72485" lon="3.51911">
        <ele>503.39</ele>
        <time>2024-03-21T10:49:38Z</time>
      </trkpt>
      <trkpt lat="43.7249" lon="3.51915">
        <ele>505.79</ele>
        <time>2024-03-21T10:49:43Z</time>
      </trkpt>
      <trkpt lat="43.72494" lon="3.51918">
        <ele>506.27</ele>
        <time>2024-03-21T10:49:47Z</time>
      </trkpt>
      <trkpt lat="43.72498" lon="3.51921">
        <ele>506.27</ele>
        <time>2024-03-21T10:49:51Z</time>
      </trkpt>
      <trkpt lat="43.725" lon="3.51923">
        <ele>504.83</ele>
        <time>2024-03-21T10:49:53Z</time>
      </trkpt>
      <trkpt lat="43.7251" lon="3.51933">
        <ele>507.71</ele>
        <time>2024-03-21T10:50:05Z</time>
      </trkpt>
      <trkpt lat="43.72515" lon="3.5194">
        <ele>505.79</ele>
        <time>2024-03-21T10:50:11Z</time>
      </trkpt>
      <trkpt lat="43.72523" lon="3.51948">
        <ele>509.16</ele>
        <time>2024-03-21T10:50:19Z</time>
      </trkpt>
      <trkpt lat="43.72524" lon="3.51949">
        <ele>506.75</ele>
        <time>2024-03-21T10:50:20Z</time>
      </trkpt>
      <trkpt lat="43.72532" lon="3.51958">
        <ele>509.64</ele>
        <time>2024-03-21T10:50:29Z</time>
      </trkpt>
      <trkpt lat="43.72537" lon="3.51965">
        <ele>509.64</ele>
        <time>2024-03-21T10:50:36Z</time>
      </trkpt>
      <trkpt lat="43.72547" lon="3.51976">
        <ele>507.71</ele>
        <time>2024-03-21T10:50:48Z</time>
      </trkpt>
      <trkpt lat="43.72552" lon="3.51979">
        <ele>511.08</ele>
        <time>2024-03-21T10:50:53Z</time>
      </trkpt>
      <trkpt lat="43.72553" lon="3.51981">
        <ele>507.71</ele>
        <time>2024-03-21T10:50:55Z</time>
      </trkpt>
      <trkpt lat="43.72555" lon="3.51983">
        <ele>510.12</ele>
        <time>2024-03-21T10:50:57Z</time>
      </trkpt>
      <trkpt lat="43.72562" lon="3.51987">
        <ele>511.08</ele>
        <time>2024-03-21T10:51:04Z</time>
      </trkpt>
      <trkpt lat="43.72568" lon="3.51991">
        <ele>510.12</ele>
        <time>2024-03-21T10:51:10Z</time>
      </trkpt>
      <trkpt lat="43.72575" lon="3.51993">
        <ele>512.04</ele>
        <time>2024-03-21T10:51:16Z</time>
      </trkpt>
      <trkpt lat="43.72577" lon="3.51994">
        <ele>510.6</ele>
        <time>2024-03-21T10:51:18Z</time>
      </trkpt>
      <trkpt lat="43.72579" lon="3.51994">
        <ele>512.04</ele>
        <time>2024-03-21T10:51:20Z</time>
      </trkpt>
      <trkpt lat="43.72594" lon="3.51994">
        <ele>510.6</ele>
        <time>2024-03-21T10:51:34Z</time>
      </trkpt>
      <trkpt lat="43.72596" lon="3.51994">
        <ele>513.96</ele>
        <time>2024-03-21T10:51:36Z</time>
      </trkpt>
      <trkpt lat="43.72598" lon="3.51994">
        <ele>512.52</ele>
        <time>2024-03-21T10:51:38Z</time>
      </trkpt>
      <trkpt lat="43.72611" lon="3.5199">
        <ele>513</ele>
        <time>2024-03-21T10:51:50Z</time>
      </trkpt>
      <trkpt lat="43.72615" lon="3.51988">
        <ele>514.92</ele>
        <time>2024-03-21T10:51:55Z</time>
      </trkpt>
      <trkpt lat="43.72618" lon="3.51988">
        <ele>513.96</ele>
        <time>2024-03-21T10:51:58Z</time>
      </trkpt>
      <trkpt lat="43.72622" lon="3.51986">
        <ele>515.88</ele>
        <time>2024-03-21T10:52:02Z</time>
      </trkpt>
      <trkpt lat="43.72626" lon="3.51984">
        <ele>517.33</ele>
        <time>2024-03-21T10:52:06Z</time>
      </trkpt>
      <trkpt lat="43.72629" lon="3.51982">
        <ele>514.44</ele>
        <time>2024-03-21T10:52:09Z</time>
      </trkpt>
      <trkpt lat="43.72635" lon="3.51975">
        <ele>517.81</ele>
        <time>2024-03-21T10:52:16Z</time>
      </trkpt>
      <trkpt lat="43.72636" lon="3.51973">
        <ele>513.96</ele>
        <time>2024-03-21T10:52:18Z</time>
      </trkpt>
      <trkpt lat="43.72638" lon="3.51971">
        <ele>516.85</ele>
        <time>2024-03-21T10:52:20Z</time>
      </trkpt>
      <trkpt lat="43.72639" lon="3.5197">
        <ele>514.92</ele>
        <time>2024-03-21T10:52:22Z</time>
      </trkpt>
      <trkpt lat="43.72647" lon="3.51961">
        <ele>518.77</ele>
        <time>2024-03-21T10:52:31Z</time>
      </trkpt>
      <trkpt lat="43.72649" lon="3.51959">
        <ele>517.33</ele>
        <time>2024-03-21T10:52:33Z</time>
      </trkpt>
      <trkpt lat="43.72651" lon="3.51957">
        <ele>518.77</ele>
        <time>2024-03-21T10:52:35Z</time>
      </trkpt>
      <trkpt lat="43.72653" lon="3.51956">
        <ele>516.85</ele>
        <time>2024-03-21T10:52:37Z</time>
      </trkpt>
      <trkpt lat="43.72655" lon="3.51954">
        <ele>518.29</ele>
        <time>2024-03-21T10:52:39Z</time>
      </trkpt>
      <trkpt lat="43.72663" lon="3.51944">
        <ele>517.81</ele>
        <time>2024-03-21T10:52:49Z</time>
      </trkpt>
      <trkpt lat="43.72666" lon="3.5194">
        <ele>517.33</ele>
        <time>2024-03-21T10:52:53Z</time>
      </trkpt>
      <trkpt lat="43.72668" lon="3.51938">
        <ele>518.29</ele>
        <time>2024-03-21T10:52:55Z</time>
      </trkpt>
      <trkpt lat="43.72669" lon="3.51936">
        <ele>522.13</ele>
        <time>2024-03-21T10:52:57Z</time>
      </trkpt>
      <trkpt lat="43.72671" lon="3.51934">
        <ele>517.33</ele>
        <time>2024-03-21T10:52:59Z</time>
      </trkpt>
      <trkpt lat="43.72671" lon="3.51933">
        <ele>522.61</ele>
        <time>2024-03-21T10:53:00Z</time>
      </trkpt>
      <trkpt lat="43.72675" lon="3.51929">
        <ele>518.29</ele>
        <time>2024-03-21T10:53:05Z</time>
      </trkpt>
      <trkpt lat="43.72676" lon="3.51928">
        <ele>523.58</ele>
        <time>2024-03-21T10:53:06Z</time>
      </trkpt>
      <trkpt lat="43.72677" lon="3.51927">
        <ele>521.65</ele>
        <time>2024-03-21T10:53:07Z</time>
      </trkpt>
      <trkpt lat="43.72679" lon="3.51925">
        <ele>520.21</ele>
        <time>2024-03-21T10:53:09Z</time>
      </trkpt>
      <trkpt lat="43.72683" lon="3.5192">
        <ele>522.61</ele>
        <time>2024-03-21T10:53:14Z</time>
      </trkpt>
      <trkpt lat="43.72694" lon="3.51907">
        <ele>524.06</ele>
        <time>2024-03-21T10:53:27Z</time>
      </trkpt>
      <trkpt lat="43.72702" lon="3.51897">
        <ele>523.09</ele>
        <time>2024-03-21T10:53:36Z</time>
      </trkpt>
      <trkpt lat="43.72714" lon="3.51884">
        <ele>524.54</ele>
        <time>2024-03-21T10:53:50Z</time>
      </trkpt>
      <trkpt lat="43.72716" lon="3.51883">
        <ele>525.5</ele>
        <time>2024-03-21T10:53:52Z</time>
      </trkpt>
      <trkpt lat="43.72723" lon="3.5188">
        <ele>525.5</ele>
        <time>2024-03-21T10:54:06Z</time>
      </trkpt>
      <trkpt lat="43.72723" lon="3.5188">
        <ele>525.5</ele>
        <time>2024-03-21T10:54:07Z</time>
      </trkpt>
      <trkpt lat="43.72723" lon="3.51882">
        <ele>526.94</ele>
        <time>2024-03-21T10:54:31Z</time>
      </trkpt>
      <trkpt lat="43.72724" lon="3.51882">
        <ele>525.98</ele>
        <time>2024-03-21T10:54:56Z</time>
      </trkpt>
      <trkpt lat="43.72725" lon="3.51881">
        <ele>525.98</ele>
        <time>2024-03-21T10:55:00Z</time>
      </trkpt>
      <trkpt lat="43.72728" lon="3.5188">
        <ele>525.02</ele>
        <time>2024-03-21T10:55:04Z</time>
      </trkpt>
      <trkpt lat="43.72731" lon="3.5188">
        <ele>526.46</ele>
        <time>2024-03-21T10:55:07Z</time>
      </trkpt>
      <trkpt lat="43.72738" lon="3.51884">
        <ele>526.94</ele>
        <time>2024-03-21T10:55:14Z</time>
      </trkpt>
      <trkpt lat="43.72742" lon="3.5189">
        <ele>527.42</ele>
        <time>2024-03-21T10:55:20Z</time>
      </trkpt>
      <trkpt lat="43.72747" lon="3.51908">
        <ele>529.34</ele>
        <time>2024-03-21T10:55:32Z</time>
      </trkpt>
      <trkpt lat="43.72749" lon="3.51924">
        <ele>529.82</ele>
        <time>2024-03-21T10:55:43Z</time>
      </trkpt>
      <trkpt lat="43.72751" lon="3.51941">
        <ele>530.3</ele>
        <time>2024-03-21T10:55:54Z</time>
      </trkpt>
      <trkpt lat="43.72751" lon="3.51944">
        <ele>530.3</ele>
        <time>2024-03-21T10:55:56Z</time>
      </trkpt>
      <trkpt lat="43.72752" lon="3.51965">
        <ele>531.75</ele>
        <time>2024-03-21T10:56:09Z</time>
      </trkpt>
      <trkpt lat="43.72754" lon="3.51983">
        <ele>532.71</ele>
        <time>2024-03-21T10:56:21Z</time>
      </trkpt>
      <trkpt lat="43.72756" lon="3.51988">
        <ele>533.19</ele>
        <time>2024-03-21T10:56:25Z</time>
      </trkpt>
      <trkpt lat="43.7276" lon="3.51991">
        <ele>533.19</ele>
        <time>2024-03-21T10:56:29Z</time>
      </trkpt>
      <trkpt lat="43.72762" lon="3.51992">
        <ele>533.19</ele>
        <time>2024-03-21T10:56:31Z</time>
      </trkpt>
      <trkpt lat="43.72766" lon="3.51992">
        <ele>533.19</ele>
        <time>2024-03-21T10:56:36Z</time>
      </trkpt>
      <trkpt lat="43.72777" lon="3.51992">
        <ele>533.19</ele>
        <time>2024-03-21T10:56:46Z</time>
      </trkpt>
      <trkpt lat="43.72796" lon="3.51997">
        <ele>533.19</ele>
        <time>2024-03-21T10:57:01Z</time>
      </trkpt>
      <trkpt lat="43.72807" lon="3.52">
        <ele>531.75</ele>
        <time>2024-03-21T10:57:10Z</time>
      </trkpt>
      <trkpt lat="43.72824" lon="3.52008">
        <ele>530.79</ele>
        <time>2024-03-21T10:57:25Z</time>
      </trkpt>
      <trkpt lat="43.7284" lon="3.52018">
        <ele>530.79</ele>
        <time>2024-03-21T10:57:41Z</time>
      </trkpt>
      <trkpt lat="43.72847" lon="3.52019">
        <ele>530.79</ele>
        <time>2024-03-21T10:57:47Z</time>
      </trkpt>
      <trkpt lat="43.7286" lon="3.52005">
        <ele>530.3</ele>
        <time>2024-03-21T10:58:02Z</time>
      </trkpt>
      <trkpt lat="43.72865" lon="3.51991">
        <ele>529.82</ele>
        <time>2024-03-21T10:58:12Z</time>
      </trkpt>
      <trkpt lat="43.72878" lon="3.51982">
        <ele>529.34</ele>
        <time>2024-03-21T10:58:24Z</time>
      </trkpt>
      <trkpt lat="43.72885" lon="3.51988">
        <ele>528.38</ele>
        <time>2024-03-21T10:58:30Z</time>
      </trkpt>
      <trkpt lat="43.72882" lon="3.52009">
        <ele>527.9</ele>
        <time>2024-03-21T10:58:42Z</time>
      </trkpt>
      <trkpt lat="43.72882" lon="3.5203">
        <ele>527.9</ele>
        <time>2024-03-21T10:58:55Z</time>
      </trkpt>
      <trkpt lat="43.72892" lon="3.52047">
        <ele>527.42</ele>
        <time>2024-03-21T10:59:08Z</time>
      </trkpt>
      <trkpt lat="43.72909" lon="3.52054">
        <ele>526.94</ele>
        <time>2024-03-21T10:59:23Z</time>
      </trkpt>
      <trkpt lat="43.72916" lon="3.52054">
        <ele>526.94</ele>
        <time>2024-03-21T10:59:28Z</time>
      </trkpt>
      <trkpt lat="43.7292" lon="3.52074">
        <ele>525.02</ele>
        <time>2024-03-21T10:59:43Z</time>
      </trkpt>
      <trkpt lat="43.72918" lon="3.52096">
        <ele>524.06</ele>
        <time>2024-03-21T10:59:57Z</time>
      </trkpt>
      <trkpt lat="43.72918" lon="3.52102">
        <ele>523.58</ele>
        <time>2024-03-21T11:00:02Z</time>
      </trkpt>
      <trkpt lat="43.72919" lon="3.52111">
        <ele>523.58</ele>
        <time>2024-03-21T11:00:19Z</time>
      </trkpt>
      <trkpt lat="43.7292" lon="3.52112">
        <ele>523.09</ele>
        <time>2024-03-21T11:00:45Z</time>
      </trkpt>
      <trkpt lat="43.72919" lon="3.52111">
        <ele>523.09</ele>
        <time>2024-03-21T11:01:08Z</time>
      </trkpt>
      <trkpt lat="43.7292" lon="3.52113">
        <ele>523.09</ele>
        <time>2024-03-21T11:01:22Z</time>
      </trkpt>
      <trkpt lat="43.7292" lon="3.52112">
        <ele>523.09</ele>
        <time>2024-03-21T11:01:58Z</time>
      </trkpt>
      <trkpt lat="43.72921" lon="3.52117">
        <ele>523.09</ele>
        <time>2024-03-21T11:02:17Z</time>
      </trkpt>
      <trkpt lat="43.72922" lon="3.52119">
        <ele>523.09</ele>
        <time>2024-03-21T11:02:19Z</time>
      </trkpt>
      <trkpt lat="43.72925" lon="3.52125">
        <ele>523.09</ele>
        <time>2024-03-21T11:02:24Z</time>
      </trkpt>
      <trkpt lat="43.72928" lon="3.52128">
        <ele>523.09</ele>
        <time>2024-03-21T11:02:28Z</time>
      </trkpt>
      <trkpt lat="43.72934" lon="3.52131">
        <ele>523.09</ele>
        <time>2024-03-21T11:02:34Z</time>
      </trkpt>
      <trkpt lat="43.72952" lon="3.52129">
        <ele>521.65</ele>
        <time>2024-03-21T11:02:50Z</time>
      </trkpt>
      <trkpt lat="43.7297" lon="3.52127">
        <ele>520.69</ele>
        <time>2024-03-21T11:03:05Z</time>
      </trkpt>
      <trkpt lat="43.72972" lon="3.52136">
        <ele>519.73</ele>
        <time>2024-03-21T11:03:17Z</time>
      </trkpt>
      <trkpt lat="43.72954" lon="3.52149">
        <ele>516.85</ele>
        <time>2024-03-21T11:03:36Z</time>
      </trkpt>
      <trkpt lat="43.72942" lon="3.52162">
        <ele>514.92</ele>
        <time>2024-03-21T11:03:50Z</time>
      </trkpt>
      <trkpt lat="43.72926" lon="3.52172">
        <ele>513.48</ele>
        <time>2024-03-21T11:04:05Z</time>
      </trkpt>
      <trkpt lat="43.7291" lon="3.52179">
        <ele>511.08</ele>
        <time>2024-03-21T11:04:20Z</time>
      </trkpt>
      <trkpt lat="43.72892" lon="3.52188">
        <ele>509.16</ele>
        <time>2024-03-21T11:04:36Z</time>
      </trkpt>
      <trkpt lat="43.72879" lon="3.52199">
        <ele>507.71</ele>
        <time>2024-03-21T11:04:51Z</time>
      </trkpt>
      <trkpt lat="43.72866" lon="3.52209">
        <ele>506.27</ele>
        <time>2024-03-21T11:05:06Z</time>
      </trkpt>
      <trkpt lat="43.72855" lon="3.52225">
        <ele>503.87</ele>
        <time>2024-03-21T11:05:21Z</time>
      </trkpt>
      <trkpt lat="43.72855" lon="3.52225">
        <ele>505.79</ele>
        <time>2024-03-21T11:05:28Z</time>
      </trkpt>
      <trkpt lat="43.72856" lon="3.52225">
        <ele>504.83</ele>
        <time>2024-03-21T11:05:30Z</time>
      </trkpt>
      <trkpt lat="43.72858" lon="3.52229">
        <ele>503.39</ele>
        <time>2024-03-21T11:05:42Z</time>
      </trkpt>
      <trkpt lat="43.72859" lon="3.5223">
        <ele>503.39</ele>
        <time>2024-03-21T11:05:43Z</time>
      </trkpt>
      <trkpt lat="43.72867" lon="3.5223">
        <ele>500.98</ele>
        <time>2024-03-21T11:05:56Z</time>
      </trkpt>
      <trkpt lat="43.72853" lon="3.52246">
        <ele>500.02</ele>
        <time>2024-03-21T11:06:13Z</time>
      </trkpt>
      <trkpt lat="43.72847" lon="3.52252">
        <ele>499.54</ele>
        <time>2024-03-21T11:06:22Z</time>
      </trkpt>
      <trkpt lat="43.7284" lon="3.52256">
        <ele>499.06</ele>
        <time>2024-03-21T11:06:28Z</time>
      </trkpt>
      <trkpt lat="43.72836" lon="3.52263">
        <ele>498.58</ele>
        <time>2024-03-21T11:06:34Z</time>
      </trkpt>
      <trkpt lat="43.72827" lon="3.52277">
        <ele>498.1</ele>
        <time>2024-03-21T11:06:47Z</time>
      </trkpt>
      <trkpt lat="43.72828" lon="3.52277">
        <ele>497.14</ele>
        <time>2024-03-21T11:06:59Z</time>
      </trkpt>
      <trkpt lat="43.72831" lon="3.52275">
        <ele>497.14</ele>
        <time>2024-03-21T11:07:19Z</time>
      </trkpt>
      <trkpt lat="43.72831" lon="3.52274">
        <ele>497.14</ele>
        <time>2024-03-21T11:07:27Z</time>
      </trkpt>
      <trkpt lat="43.72837" lon="3.52269">
        <ele>496.66</ele>
        <time>2024-03-21T11:07:33Z</time>
      </trkpt>
      <trkpt lat="43.7285" lon="3.52257">
        <ele>496.66</ele>
        <time>2024-03-21T11:07:47Z</time>
      </trkpt>
      <trkpt lat="43.7286" lon="3.52249">
        <ele>496.66</ele>
        <time>2024-03-21T11:07:59Z</time>
      </trkpt>
      <trkpt lat="43.72873" lon="3.52238">
        <ele>496.66</ele>
        <time>2024-03-21T11:08:12Z</time>
      </trkpt>
      <trkpt lat="43.72884" lon="3.52229">
        <ele>495.7</ele>
        <time>2024-03-21T11:08:24Z</time>
      </trkpt>
      <trkpt lat="43.72897" lon="3.52225">
        <ele>494.74</ele>
        <time>2024-03-21T11:08:36Z</time>
      </trkpt>
      <trkpt lat="43.72908" lon="3.52235">
        <ele>493.29</ele>
        <time>2024-03-21T11:08:48Z</time>
      </trkpt>
      <trkpt lat="43.72904" lon="3.52244">
        <ele>494.74</ele>
        <time>2024-03-21T11:09:00Z</time>
      </trkpt>
      <trkpt lat="43.72902" lon="3.5225">
        <ele>494.26</ele>
        <time>2024-03-21T11:09:05Z</time>
      </trkpt>
      <trkpt lat="43.72901" lon="3.52254">
        <ele>494.26</ele>
        <time>2024-03-21T11:09:08Z</time>
      </trkpt>
      <trkpt lat="43.72894" lon="3.52272">
        <ele>495.22</ele>
        <time>2024-03-21T11:09:19Z</time>
      </trkpt>
      <trkpt lat="43.72889" lon="3.52291">
        <ele>495.22</ele>
        <time>2024-03-21T11:09:29Z</time>
      </trkpt>
      <trkpt lat="43.72884" lon="3.52312">
        <ele>495.7</ele>
        <time>2024-03-21T11:09:42Z</time>
      </trkpt>
      <trkpt lat="43.7288" lon="3.52331">
        <ele>495.7</ele>
        <time>2024-03-21T11:09:54Z</time>
      </trkpt>
      <trkpt lat="43.7288" lon="3.52332">
        <ele>495.7</ele>
        <time>2024-03-21T11:09:55Z</time>
      </trkpt>
      <trkpt lat="43.72878" lon="3.52356">
        <ele>496.66</ele>
        <time>2024-03-21T11:10:09Z</time>
      </trkpt>
      <trkpt lat="43.72878" lon="3.52357">
        <ele>496.66</ele>
        <time>2024-03-21T11:10:10Z</time>
      </trkpt>
      <trkpt lat="43.72879" lon="3.52365">
        <ele>496.66</ele>
        <time>2024-03-21T11:10:15Z</time>
      </trkpt>
      <trkpt lat="43.72886" lon="3.52375">
        <ele>498.1</ele>
        <time>2024-03-21T11:10:26Z</time>
      </trkpt>
      <trkpt lat="43.72896" lon="3.52374">
        <ele>498.58</ele>
        <time>2024-03-21T11:10:37Z</time>
      </trkpt>
      <trkpt lat="43.72901" lon="3.52372">
        <ele>499.54</ele>
        <time>2024-03-21T11:10:42Z</time>
      </trkpt>
      <trkpt lat="43.72914" lon="3.52369">
        <ele>500.98</ele>
        <time>2024-03-21T11:10:54Z</time>
      </trkpt>
      <trkpt lat="43.72917" lon="3.52369">
        <ele>500.98</ele>
        <time>2024-03-21T11:10:57Z</time>
      </trkpt>
      <trkpt lat="43.7293" lon="3.52374">
        <ele>500.98</ele>
        <time>2024-03-21T11:11:09Z</time>
      </trkpt>
      <trkpt lat="43.72943" lon="3.52378">
        <ele>501.46</ele>
        <time>2024-03-21T11:11:21Z</time>
      </trkpt>
      <trkpt lat="43.72946" lon="3.52379">
        <ele>501.46</ele>
        <time>2024-03-21T11:11:25Z</time>
      </trkpt>
      <trkpt lat="43.7296" lon="3.52383">
        <ele>501.95</ele>
        <time>2024-03-21T11:11:38Z</time>
      </trkpt>
      <trkpt lat="43.72969" lon="3.52388">
        <ele>501.95</ele>
        <time>2024-03-21T11:11:47Z</time>
      </trkpt>
      <trkpt lat="43.72966" lon="3.52403">
        <ele>502.43</ele>
        <time>2024-03-21T11:11:58Z</time>
      </trkpt>
      <trkpt lat="43.7296" lon="3.52408">
        <ele>501.95</ele>
        <time>2024-03-21T11:12:04Z</time>
      </trkpt>
      <trkpt lat="43.72951" lon="3.52424">
        <ele>501.95</ele>
        <time>2024-03-21T11:12:16Z</time>
      </trkpt>
      <trkpt lat="43.72941" lon="3.52445">
        <ele>502.43</ele>
        <time>2024-03-21T11:12:27Z</time>
      </trkpt>
      <trkpt lat="43.72939" lon="3.52458">
        <ele>503.39</ele>
        <time>2024-03-21T11:12:38Z</time>
      </trkpt>
      <trkpt lat="43.72933" lon="3.52469">
        <ele>503.39</ele>
        <time>2024-03-21T11:12:48Z</time>
      </trkpt>
      <trkpt lat="43.72929" lon="3.52492">
        <ele>503.39</ele>
        <time>2024-03-21T11:13:04Z</time>
      </trkpt>
      <trkpt lat="43.72927" lon="3.52518">
        <ele>503.39</ele>
        <time>2024-03-21T11:13:19Z</time>
      </trkpt>
      <trkpt lat="43.72926" lon="3.5252">
        <ele>503.39</ele>
        <time>2024-03-21T11:13:21Z</time>
      </trkpt>
      <trkpt lat="43.72922" lon="3.52532">
        <ele>503.39</ele>
        <time>2024-03-21T11:13:28Z</time>
      </trkpt>
      <trkpt lat="43.72919" lon="3.52538">
        <ele>503.39</ele>
        <time>2024-03-21T11:13:32Z</time>
      </trkpt>
      <trkpt lat="43.72915" lon="3.52571">
        <ele>503.39</ele>
        <time>2024-03-21T11:13:52Z</time>
      </trkpt>
      <trkpt lat="43.72914" lon="3.52596">
        <ele>503.87</ele>
        <time>2024-03-21T11:14:08Z</time>
      </trkpt>
      <trkpt lat="43.7292" lon="3.52618">
        <ele>504.35</ele>
        <time>2024-03-21T11:14:25Z</time>
      </trkpt>
      <trkpt lat="43.72936" lon="3.52629">
        <ele>504.35</ele>
        <time>2024-03-21T11:14:43Z</time>
      </trkpt>
      <trkpt lat="43.72935" lon="3.52633">
        <ele>504.35</ele>
        <time>2024-03-21T11:15:06Z</time>
      </trkpt>
      <trkpt lat="43.7294" lon="3.52633">
        <ele>504.35</ele>
        <time>2024-03-21T11:15:17Z</time>
      </trkpt>
      <trkpt lat="43.72953" lon="3.5263">
        <ele>504.35</ele>
        <time>2024-03-21T11:15:31Z</time>
      </trkpt>
      <trkpt lat="43.72964" lon="3.52628">
        <ele>504.35</ele>
        <time>2024-03-21T11:15:42Z</time>
      </trkpt>
      <trkpt lat="43.72982" lon="3.52625">
        <ele>504.83</ele>
        <time>2024-03-21T11:15:56Z</time>
      </trkpt>
      <trkpt lat="43.72998" lon="3.52622">
        <ele>504.83</ele>
        <time>2024-03-21T11:16:10Z</time>
      </trkpt>
      <trkpt lat="43.73016" lon="3.52622">
        <ele>504.83</ele>
        <time>2024-03-21T11:16:23Z</time>
      </trkpt>
      <trkpt lat="43.7302" lon="3.52623">
        <ele>504.83</ele>
        <time>2024-03-21T11:16:27Z</time>
      </trkpt>
      <trkpt lat="43.73033" lon="3.52634">
        <ele>504.83</ele>
        <time>2024-03-21T11:16:40Z</time>
      </trkpt>
      <trkpt lat="43.73037" lon="3.52642">
        <ele>504.83</ele>
        <time>2024-03-21T11:16:45Z</time>
      </trkpt>
      <trkpt lat="43.73044" lon="3.5266">
        <ele>504.83</ele>
        <time>2024-03-21T11:16:57Z</time>
      </trkpt>
      <trkpt lat="43.7305" lon="3.52682">
        <ele>504.83</ele>
        <time>2024-03-21T11:17:10Z</time>
      </trkpt>
      <trkpt lat="43.73059" lon="3.527">
        <ele>504.83</ele>
        <time>2024-03-21T11:17:24Z</time>
      </trkpt>
      <trkpt lat="43.73062" lon="3.52705">
        <ele>504.83</ele>
        <time>2024-03-21T11:17:28Z</time>
      </trkpt>
      <trkpt lat="43.73067" lon="3.5272">
        <ele>504.83</ele>
        <time>2024-03-21T11:17:38Z</time>
      </trkpt>
      <trkpt lat="43.73075" lon="3.52732">
        <ele>504.83</ele>
        <time>2024-03-21T11:17:49Z</time>
      </trkpt>
      <trkpt lat="43.73089" lon="3.52741">
        <ele>504.83</ele>
        <time>2024-03-21T11:18:04Z</time>
      </trkpt>
      <trkpt lat="43.73098" lon="3.52753">
        <ele>504.83</ele>
        <time>2024-03-21T11:18:16Z</time>
      </trkpt>
      <trkpt lat="43.73098" lon="3.5276">
        <ele>505.31</ele>
        <time>2024-03-21T11:18:21Z</time>
      </trkpt>
      <trkpt lat="43.73096" lon="3.52766">
        <ele>503.87</ele>
        <time>2024-03-21T11:18:26Z</time>
      </trkpt>
      <trkpt lat="43.73096" lon="3.52768">
        <ele>505.31</ele>
        <time>2024-03-21T11:18:28Z</time>
      </trkpt>
      <trkpt lat="43.73092" lon="3.52775">
        <ele>503.87</ele>
        <time>2024-03-21T11:18:35Z</time>
      </trkpt>
      <trkpt lat="43.73091" lon="3.52776">
        <ele>503.87</ele>
        <time>2024-03-21T11:18:36Z</time>
      </trkpt>
      <trkpt lat="43.73086" lon="3.52783">
        <ele>503.87</ele>
        <time>2024-03-21T11:18:41Z</time>
      </trkpt>
      <trkpt lat="43.73076" lon="3.52797">
        <ele>503.87</ele>
        <time>2024-03-21T11:18:53Z</time>
      </trkpt>
      <trkpt lat="43.73067" lon="3.52807">
        <ele>503.87</ele>
        <time>2024-03-21T11:19:05Z</time>
      </trkpt>
      <trkpt lat="43.73065" lon="3.52811">
        <ele>503.87</ele>
        <time>2024-03-21T11:19:09Z</time>
      </trkpt>
      <trkpt lat="43.73056" lon="3.52828">
        <ele>503.87</ele>
        <time>2024-03-21T11:19:21Z</time>
      </trkpt>
      <trkpt lat="43.73054" lon="3.52833">
        <ele>503.87</ele>
        <time>2024-03-21T11:19:25Z</time>
      </trkpt>
      <trkpt lat="43.73047" lon="3.52851">
        <ele>503.87</ele>
        <time>2024-03-21T11:19:38Z</time>
      </trkpt>
      <trkpt lat="43.73044" lon="3.52861">
        <ele>503.87</ele>
        <time>2024-03-21T11:19:45Z</time>
      </trkpt>
      <trkpt lat="43.7304" lon="3.52882">
        <ele>503.87</ele>
        <time>2024-03-21T11:20:00Z</time>
      </trkpt>
      <trkpt lat="43.73038" lon="3.52899">
        <ele>503.87</ele>
        <time>2024-03-21T11:20:11Z</time>
      </trkpt>
      <trkpt lat="43.73037" lon="3.5292">
        <ele>503.87</ele>
        <time>2024-03-21T11:20:24Z</time>
      </trkpt>
      <trkpt lat="43.7304" lon="3.5294">
        <ele>503.39</ele>
        <time>2024-03-21T11:20:38Z</time>
      </trkpt>
      <trkpt lat="43.73043" lon="3.52947">
        <ele>503.39</ele>
        <time>2024-03-21T11:20:44Z</time>
      </trkpt>
      <trkpt lat="43.73052" lon="3.52959">
        <ele>502.91</ele>
        <time>2024-03-21T11:20:56Z</time>
      </trkpt>
      <trkpt lat="43.73062" lon="3.52967">
        <ele>502.91</ele>
        <time>2024-03-21T11:21:06Z</time>
      </trkpt>
      <trkpt lat="43.7307" lon="3.52972">
        <ele>502.91</ele>
        <time>2024-03-21T11:21:14Z</time>
      </trkpt>
      <trkpt lat="43.73087" lon="3.52983">
        <ele>502.43</ele>
        <time>2024-03-21T11:21:32Z</time>
      </trkpt>
      <trkpt lat="43.73097" lon="3.52987">
        <ele>501.95</ele>
        <time>2024-03-21T11:21:41Z</time>
      </trkpt>
      <trkpt lat="43.73112" lon="3.52991">
        <ele>501.46</ele>
        <time>2024-03-21T11:21:54Z</time>
      </trkpt>
      <trkpt lat="43.73127" lon="3.52994">
        <ele>501.46</ele>
        <time>2024-03-21T11:22:06Z</time>
      </trkpt>
      <trkpt lat="43.73143" lon="3.52994">
        <ele>500.98</ele>
        <time>2024-03-21T11:22:19Z</time>
      </trkpt>
      <trkpt lat="43.7316" lon="3.52995">
        <ele>500.02</ele>
        <time>2024-03-21T11:22:34Z</time>
      </trkpt>
      <trkpt lat="43.73177" lon="3.52997">
        <ele>499.54</ele>
        <time>2024-03-21T11:22:48Z</time>
      </trkpt>
      <trkpt lat="43.73195" lon="3.53001">
        <ele>498.58</ele>
        <time>2024-03-21T11:23:02Z</time>
      </trkpt>
      <trkpt lat="43.73215" lon="3.53008">
        <ele>498.1</ele>
        <time>2024-03-21T11:23:19Z</time>
      </trkpt>
      <trkpt lat="43.73231" lon="3.53014">
        <ele>497.62</ele>
        <time>2024-03-21T11:23:32Z</time>
      </trkpt>
      <trkpt lat="43.73249" lon="3.5302">
        <ele>497.14</ele>
        <time>2024-03-21T11:23:46Z</time>
      </trkpt>
      <trkpt lat="43.73264" lon="3.5302">
        <ele>496.66</ele>
        <time>2024-03-21T11:24:00Z</time>
      </trkpt>
      <trkpt lat="43.73271" lon="3.53018">
        <ele>496.18</ele>
        <time>2024-03-21T11:24:07Z</time>
      </trkpt>
      <trkpt lat="43.73282" lon="3.53011">
        <ele>496.18</ele>
        <time>2024-03-21T11:24:19Z</time>
      </trkpt>
      <trkpt lat="43.7329" lon="3.53">
        <ele>495.7</ele>
        <time>2024-03-21T11:24:33Z</time>
      </trkpt>
      <trkpt lat="43.73303" lon="3.52991">
        <ele>495.22</ele>
        <time>2024-03-21T11:24:45Z</time>
      </trkpt>
      <trkpt lat="43.73311" lon="3.52994">
        <ele>495.22</ele>
        <time>2024-03-21T11:24:50Z</time>
      </trkpt>
      <trkpt lat="43.73315" lon="3.53002">
        <ele>494.74</ele>
        <time>2024-03-21T11:25:03Z</time>
      </trkpt>
      <trkpt lat="43.73315" lon="3.53001">
        <ele>494.74</ele>
        <time>2024-03-21T11:25:29Z</time>
      </trkpt>
      <trkpt lat="43.73315" lon="3.52999">
        <ele>494.74</ele>
        <time>2024-03-21T11:25:53Z</time>
      </trkpt>
      <trkpt lat="43.73314" lon="3.52999">
        <ele>494.74</ele>
        <time>2024-03-21T11:26:21Z</time>
      </trkpt>
      <trkpt lat="43.73321" lon="3.53002">
        <ele>494.74</ele>
        <time>2024-03-21T11:26:29Z</time>
      </trkpt>
      <trkpt lat="43.73323" lon="3.53004">
        <ele>496.18</ele>
        <time>2024-03-21T11:26:31Z</time>
      </trkpt>
      <trkpt lat="43.73331" lon="3.53007">
        <ele>497.62</ele>
        <time>2024-03-21T11:26:39Z</time>
      </trkpt>
      <trkpt lat="43.73343" lon="3.53008">
        <ele>497.62</ele>
        <time>2024-03-21T11:26:52Z</time>
      </trkpt>
      <trkpt lat="43.73345" lon="3.5301">
        <ele>499.06</ele>
        <time>2024-03-21T11:26:54Z</time>
      </trkpt>
      <trkpt lat="43.73355" lon="3.53017">
        <ele>499.54</ele>
        <time>2024-03-21T11:27:06Z</time>
      </trkpt>
      <trkpt lat="43.7337" lon="3.53025">
        <ele>501.46</ele>
        <time>2024-03-21T11:27:21Z</time>
      </trkpt>
      <trkpt lat="43.73382" lon="3.53031">
        <ele>502.91</ele>
        <time>2024-03-21T11:27:34Z</time>
      </trkpt>
      <trkpt lat="43.73382" lon="3.53024">
        <ele>504.35</ele>
        <time>2024-03-21T11:27:45Z</time>
      </trkpt>
      <trkpt lat="43.73377" lon="3.53012">
        <ele>506.27</ele>
        <time>2024-03-21T11:27:55Z</time>
      </trkpt>
      <trkpt lat="43.73372" lon="3.52996">
        <ele>507.71</ele>
        <time>2024-03-21T11:28:08Z</time>
      </trkpt>
      <trkpt lat="43.73371" lon="3.52986">
        <ele>509.16</ele>
        <time>2024-03-21T11:28:16Z</time>
      </trkpt>
      <trkpt lat="43.73371" lon="3.5298">
        <ele>509.16</ele>
        <time>2024-03-21T11:28:20Z</time>
      </trkpt>
      <trkpt lat="43.7337" lon="3.52968">
        <ele>510.6</ele>
        <time>2024-03-21T11:28:29Z</time>
      </trkpt>
      <trkpt lat="43.73374" lon="3.52957">
        <ele>512.04</ele>
        <time>2024-03-21T11:28:39Z</time>
      </trkpt>
      <trkpt lat="43.73382" lon="3.52957">
        <ele>514.92</ele>
        <time>2024-03-21T11:28:49Z</time>
      </trkpt>
      <trkpt lat="43.73387" lon="3.52967">
        <ele>515.88</ele>
        <time>2024-03-21T11:29:01Z</time>
      </trkpt>
      <trkpt lat="43.73396" lon="3.52976">
        <ele>516.37</ele>
        <time>2024-03-21T11:29:10Z</time>
      </trkpt>
      <trkpt lat="43.73408" lon="3.52986">
        <ele>517.81</ele>
        <time>2024-03-21T11:29:23Z</time>
      </trkpt>
      <trkpt lat="43.73409" lon="3.52988">
        <ele>518.77</ele>
        <time>2024-03-21T11:29:25Z</time>
      </trkpt>
      <trkpt lat="43.73417" lon="3.53002">
        <ele>519.25</ele>
        <time>2024-03-21T11:29:38Z</time>
      </trkpt>
      <trkpt lat="43.73423" lon="3.53015">
        <ele>519.73</ele>
        <time>2024-03-21T11:29:50Z</time>
      </trkpt>
      <trkpt lat="43.73428" lon="3.53023">
        <ele>521.65</ele>
        <time>2024-03-21T11:30:02Z</time>
      </trkpt>
      <trkpt lat="43.73437" lon="3.53024">
        <ele>522.61</ele>
        <time>2024-03-21T11:30:14Z</time>
      </trkpt>
      <trkpt lat="43.73437" lon="3.53028">
        <ele>523.58</ele>
        <time>2024-03-21T11:30:29Z</time>
      </trkpt>
      <trkpt lat="43.73436" lon="3.53028">
        <ele>522.61</ele>
        <time>2024-03-21T11:30:54Z</time>
      </trkpt>
      <trkpt lat="43.7344" lon="3.53021">
        <ele>522.61</ele>
        <time>2024-03-21T11:31:06Z</time>
      </trkpt>
      <trkpt lat="43.73436" lon="3.53026">
        <ele>522.61</ele>
        <time>2024-03-21T11:31:27Z</time>
      </trkpt>
      <trkpt lat="43.73437" lon="3.53025">
        <ele>523.09</ele>
        <time>2024-03-21T11:31:39Z</time>
      </trkpt>
      <trkpt lat="43.73435" lon="3.53026">
        <ele>523.58</ele>
        <time>2024-03-21T11:32:06Z</time>
      </trkpt>
      <trkpt lat="43.73435" lon="3.53026">
        <ele>522.13</ele>
        <time>2024-03-21T11:32:12Z</time>
      </trkpt>
      <trkpt lat="43.73434" lon="3.53027">
        <ele>522.13</ele>
        <time>2024-03-21T11:32:30Z</time>
      </trkpt>
      <trkpt lat="43.73433" lon="3.53024">
        <ele>522.13</ele>
        <time>2024-03-21T11:32:41Z</time>
      </trkpt>
      <trkpt lat="43.73436" lon="3.5302">
        <ele>522.61</ele>
        <time>2024-03-21T11:33:02Z</time>
      </trkpt>
      <trkpt lat="43.7343" lon="3.53014">
        <ele>522.61</ele>
        <time>2024-03-21T11:33:14Z</time>
      </trkpt>
      <trkpt lat="43.73428" lon="3.53009">
        <ele>522.61</ele>
        <time>2024-03-21T11:33:25Z</time>
      </trkpt>
      <trkpt lat="43.73426" lon="3.53006">
        <ele>521.17</ele>
        <time>2024-03-21T11:33:28Z</time>
      </trkpt>
      <trkpt lat="43.73424" lon="3.52996">
        <ele>520.69</ele>
        <time>2024-03-21T11:33:40Z</time>
      </trkpt>
      <trkpt lat="43.73425" lon="3.52991">
        <ele>522.13</ele>
        <time>2024-03-21T11:33:44Z</time>
      </trkpt>
      <trkpt lat="43.73426" lon="3.52978">
        <ele>523.09</ele>
        <time>2024-03-21T11:33:54Z</time>
      </trkpt>
      <trkpt lat="43.73426" lon="3.52964">
        <ele>525.02</ele>
        <time>2024-03-21T11:34:06Z</time>
      </trkpt>
      <trkpt lat="43.73429" lon="3.52954">
        <ele>526.94</ele>
        <time>2024-03-21T11:34:16Z</time>
      </trkpt>
      <trkpt lat="43.73436" lon="3.52946">
        <ele>528.38</ele>
        <time>2024-03-21T11:34:27Z</time>
      </trkpt>
      <trkpt lat="43.73439" lon="3.52943">
        <ele>530.3</ele>
        <time>2024-03-21T11:34:32Z</time>
      </trkpt>
      <trkpt lat="43.73442" lon="3.5294">
        <ele>529.34</ele>
        <time>2024-03-21T11:34:36Z</time>
      </trkpt>
      <trkpt lat="43.73449" lon="3.52943">
        <ele>529.34</ele>
        <time>2024-03-21T11:34:50Z</time>
      </trkpt>
      <trkpt lat="43.73449" lon="3.52944">
        <ele>529.34</ele>
        <time>2024-03-21T11:35:14Z</time>
      </trkpt>
      <trkpt lat="43.73448" lon="3.52942">
        <ele>528.86</ele>
        <time>2024-03-21T11:35:31Z</time>
      </trkpt>
      <trkpt lat="43.73449" lon="3.52938">
        <ele>530.79</ele>
        <time>2024-03-21T11:35:50Z</time>
      </trkpt>
      <trkpt lat="43.73451" lon="3.52936">
        <ele>529.34</ele>
        <time>2024-03-21T11:35:54Z</time>
      </trkpt>
      <trkpt lat="43.73454" lon="3.52931">
        <ele>529.34</ele>
        <time>2024-03-21T11:35:59Z</time>
      </trkpt>
      <trkpt lat="43.73456" lon="3.52928">
        <ele>530.79</ele>
        <time>2024-03-21T11:36:01Z</time>
      </trkpt>
      <trkpt lat="43.73461" lon="3.52915">
        <ele>532.23</ele>
        <time>2024-03-21T11:36:14Z</time>
      </trkpt>
      <trkpt lat="43.73468" lon="3.52904">
        <ele>534.63</ele>
        <time>2024-03-21T11:36:25Z</time>
      </trkpt>
      <trkpt lat="43.73473" lon="3.52897">
        <ele>535.11</ele>
        <time>2024-03-21T11:36:32Z</time>
      </trkpt>
      <trkpt lat="43.73477" lon="3.52893">
        <ele>535.59</ele>
        <time>2024-03-21T11:36:37Z</time>
      </trkpt>
      <trkpt lat="43.73487" lon="3.52889">
        <ele>537.03</ele>
        <time>2024-03-21T11:36:49Z</time>
      </trkpt>
      <trkpt lat="43.73498" lon="3.52883">
        <ele>537.03</ele>
        <time>2024-03-21T11:37:01Z</time>
      </trkpt>
      <trkpt lat="43.73502" lon="3.52884">
        <ele>537.51</ele>
        <time>2024-03-21T11:37:05Z</time>
      </trkpt>
      <trkpt lat="43.73515" lon="3.52885">
        <ele>537.99</ele>
        <time>2024-03-21T11:37:19Z</time>
      </trkpt>
      <trkpt lat="43.73516" lon="3.52889">
        <ele>537.99</ele>
        <time>2024-03-21T11:37:41Z</time>
      </trkpt>
      <trkpt lat="43.73518" lon="3.5289">
        <ele>538.48</ele>
        <time>2024-03-21T11:38:09Z</time>
      </trkpt>
      <trkpt lat="43.73517" lon="3.5289">
        <ele>538.96</ele>
        <time>2024-03-21T11:38:32Z</time>
      </trkpt>
      <trkpt lat="43.73517" lon="3.52892">
        <ele>538.96</ele>
        <time>2024-03-21T11:38:57Z</time>
      </trkpt>
      <trkpt lat="43.73514" lon="3.52883">
        <ele>539.44</ele>
        <time>2024-03-21T11:39:13Z</time>
      </trkpt>
      <trkpt lat="43.73513" lon="3.52869">
        <ele>541.84</ele>
        <time>2024-03-21T11:39:25Z</time>
      </trkpt>
      <trkpt lat="43.73513" lon="3.52856">
        <ele>542.8</ele>
        <time>2024-03-21T11:39:37Z</time>
      </trkpt>
      <trkpt lat="43.73513" lon="3.52853">
        <ele>544.72</ele>
        <time>2024-03-21T11:39:42Z</time>
      </trkpt>
      <trkpt lat="43.73513" lon="3.52846">
        <ele>545.69</ele>
        <time>2024-03-21T11:39:49Z</time>
      </trkpt>
      <trkpt lat="43.73511" lon="3.52835">
        <ele>546.65</ele>
        <time>2024-03-21T11:39:58Z</time>
      </trkpt>
      <trkpt lat="43.7351" lon="3.52823">
        <ele>547.61</ele>
        <time>2024-03-21T11:40:08Z</time>
      </trkpt>
      <trkpt lat="43.73511" lon="3.52818">
        <ele>548.57</ele>
        <time>2024-03-21T11:40:21Z</time>
      </trkpt>
      <trkpt lat="43.73511" lon="3.52818">
        <ele>548.57</ele>
        <time>2024-03-21T11:40:44Z</time>
      </trkpt>
      <trkpt lat="43.73509" lon="3.52816">
        <ele>548.57</ele>
        <time>2024-03-21T11:40:55Z</time>
      </trkpt>
      <trkpt lat="43.73499" lon="3.52808">
        <ele>549.05</ele>
        <time>2024-03-21T11:41:06Z</time>
      </trkpt>
      <trkpt lat="43.73485" lon="3.52802">
        <ele>549.05</ele>
        <time>2024-03-21T11:41:18Z</time>
      </trkpt>
      <trkpt lat="43.73476" lon="3.52798">
        <ele>549.53</ele>
        <time>2024-03-21T11:41:28Z</time>
      </trkpt>
      <trkpt lat="43.73465" lon="3.52792">
        <ele>549.53</ele>
        <time>2024-03-21T11:41:39Z</time>
      </trkpt>
      <trkpt lat="43.73457" lon="3.52789">
        <ele>549.53</ele>
        <time>2024-03-21T11:41:51Z</time>
      </trkpt>
      <trkpt lat="43.73448" lon="3.52787">
        <ele>548.57</ele>
        <time>2024-03-21T11:42:00Z</time>
      </trkpt>
      <trkpt lat="43.73437" lon="3.52782">
        <ele>547.61</ele>
        <time>2024-03-21T11:42:12Z</time>
      </trkpt>
      <trkpt lat="43.73428" lon="3.52778">
        <ele>547.61</ele>
        <time>2024-03-21T11:42:21Z</time>
      </trkpt>
      <trkpt lat="43.73415" lon="3.52772">
        <ele>546.65</ele>
        <time>2024-03-21T11:42:34Z</time>
      </trkpt>
      <trkpt lat="43.73403" lon="3.52769">
        <ele>545.69</ele>
        <time>2024-03-21T11:42:46Z</time>
      </trkpt>
      <trkpt lat="43.73392" lon="3.52766">
        <ele>545.2</ele>
        <time>2024-03-21T11:42:59Z</time>
      </trkpt>
      <trkpt lat="43.73383" lon="3.52763">
        <ele>545.69</ele>
        <time>2024-03-21T11:43:11Z</time>
      </trkpt>
      <trkpt lat="43.7337" lon="3.52757">
        <ele>544.72</ele>
        <time>2024-03-21T11:43:24Z</time>
      </trkpt>
      <trkpt lat="43.73359" lon="3.52752">
        <ele>544.24</ele>
        <time>2024-03-21T11:43:36Z</time>
      </trkpt>
      <trkpt lat="43.73346" lon="3.52749">
        <ele>543.76</ele>
        <time>2024-03-21T11:43:47Z</time>
      </trkpt>
      <trkpt lat="43.73343" lon="3.52747">
        <ele>543.76</ele>
        <time>2024-03-21T11:43:50Z</time>
      </trkpt>
      <trkpt lat="43.73328" lon="3.52739">
        <ele>543.76</ele>
        <time>2024-03-21T11:44:03Z</time>
      </trkpt>
      <trkpt lat="43.73319" lon="3.52736">
        <ele>545.2</ele>
        <time>2024-03-21T11:44:12Z</time>
      </trkpt>
      <trkpt lat="43.7331" lon="3.52733">
        <ele>545.69</ele>
        <time>2024-03-21T11:44:22Z</time>
      </trkpt>
      <trkpt lat="43.73304" lon="3.52731">
        <ele>546.65</ele>
        <time>2024-03-21T11:44:28Z</time>
      </trkpt>
      <trkpt lat="43.73296" lon="3.52727">
        <ele>547.61</ele>
        <time>2024-03-21T11:44:40Z</time>
      </trkpt>
      <trkpt lat="43.73285" lon="3.52726">
        <ele>549.05</ele>
        <time>2024-03-21T11:44:51Z</time>
      </trkpt>
      <trkpt lat="43.73283" lon="3.52726">
        <ele>549.05</ele>
        <time>2024-03-21T11:44:53Z</time>
      </trkpt>
      <trkpt lat="43.7327" lon="3.52727">
        <ele>549.53</ele>
        <time>2024-03-21T11:45:05Z</time>
      </trkpt>
      <trkpt lat="43.7326" lon="3.52725">
        <ele>550.01</ele>
        <time>2024-03-21T11:45:15Z</time>
      </trkpt>
      <trkpt lat="43.73254" lon="3.52724">
        <ele>550.01</ele>
        <time>2024-03-21T11:45:28Z</time>
      </trkpt>
      <trkpt lat="43.73253" lon="3.52724">
        <ele>550.01</ele>
        <time>2024-03-21T11:45:41Z</time>
      </trkpt>
      <trkpt lat="43.73249" lon="3.52724">
        <ele>550.01</ele>
        <time>2024-03-21T11:45:56Z</time>
      </trkpt>
      <trkpt lat="43.73247" lon="3.52723">
        <ele>550.01</ele>
        <time>2024-03-21T11:45:59Z</time>
      </trkpt>
      <trkpt lat="43.73244" lon="3.52721">
        <ele>550.01</ele>
        <time>2024-03-21T11:46:02Z</time>
      </trkpt>
      <trkpt lat="43.73242" lon="3.52716">
        <ele>550.01</ele>
        <time>2024-03-21T11:46:16Z</time>
      </trkpt>
      <trkpt lat="43.73243" lon="3.52716">
        <ele>550.01</ele>
        <time>2024-03-21T11:46:34Z</time>
      </trkpt>
      <trkpt lat="43.73244" lon="3.52715">
        <ele>548.57</ele>
        <time>2024-03-21T11:46:52Z</time>
      </trkpt>
      <trkpt lat="43.73244" lon="3.52714">
        <ele>548.57</ele>
        <time>2024-03-21T11:47:15Z</time>
      </trkpt>
      <trkpt lat="43.73245" lon="3.52713">
        <ele>548.57</ele>
        <time>2024-03-21T11:47:34Z</time>
      </trkpt>
      <trkpt lat="43.73245" lon="3.52713">
        <ele>550.01</ele>
        <time>2024-03-21T11:47:46Z</time>
      </trkpt>
      <trkpt lat="43.73245" lon="3.52713">
        <ele>548.57</ele>
        <time>2024-03-21T11:47:50Z</time>
      </trkpt>
      <trkpt lat="43.73244" lon="3.52713">
        <ele>548.57</ele>
        <time>2024-03-21T11:48:05Z</time>
      </trkpt>
      <trkpt lat="43.73244" lon="3.52714">
        <ele>534.63</ele>
        <time>2024-03-21T11:48:09Z</time>
      </trkpt>
      <trkpt lat="43.73244" lon="3.52714">
        <ele>549.53</ele>
        <time>2024-03-21T11:48:10Z</time>
      </trkpt>
      <trkpt lat="43.73244" lon="3.52715">
        <ele>547.13</ele>
        <time>2024-03-21T11:48:19Z</time>
      </trkpt>
      <trkpt lat="43.73245" lon="3.5271">
        <ele>548.57</ele>
        <time>2024-03-21T11:48:33Z</time>
      </trkpt>
      <trkpt lat="43.73247" lon="3.52714">
        <ele>549.53</ele>
        <time>2024-03-21T11:48:41Z</time>
      </trkpt>
      <trkpt lat="43.73247" lon="3.52714">
        <ele>545.2</ele>
        <time>2024-03-21T11:48:42Z</time>
      </trkpt>
      <trkpt lat="43.73246" lon="3.52714">
        <ele>549.53</ele>
        <time>2024-03-21T11:48:43Z</time>
      </trkpt>
      <trkpt lat="43.73246" lon="3.52714">
        <ele>550.49</ele>
        <time>2024-03-21T11:48:45Z</time>
      </trkpt>
      <trkpt lat="43.73246" lon="3.52714">
        <ele>548.09</ele>
        <time>2024-03-21T11:48:47Z</time>
      </trkpt>
      <trkpt lat="43.73244" lon="3.52715">
        <ele>550.01</ele>
        <time>2024-03-21T11:48:57Z</time>
      </trkpt>
      <trkpt lat="43.73241" lon="3.52714">
        <ele>548.57</ele>
        <time>2024-03-21T11:49:03Z</time>
      </trkpt>
      <trkpt lat="43.73232" lon="3.52716">
        <ele>548.09</ele>
        <time>2024-03-21T11:49:25Z</time>
      </trkpt>
      <trkpt lat="43.73236" lon="3.52712">
        <ele>549.05</ele>
        <time>2024-03-21T11:49:54Z</time>
      </trkpt>
      <trkpt lat="43.73236" lon="3.52712">
        <ele>540.4</ele>
        <time>2024-03-21T11:50:02Z</time>
      </trkpt>
      <trkpt lat="43.73238" lon="3.52712">
        <ele>542.8</ele>
        <time>2024-03-21T11:50:03Z</time>
      </trkpt>
      <trkpt lat="43.73239" lon="3.52712">
        <ele>568.28</ele>
        <time>2024-03-21T11:50:04Z</time>
      </trkpt>
      <trkpt lat="43.73239" lon="3.52712">
        <ele>554.34</ele>
        <time>2024-03-21T11:50:05Z</time>
      </trkpt>
      <trkpt lat="43.7324" lon="3.52711">
        <ele>550.97</ele>
        <time>2024-03-21T11:50:06Z</time>
      </trkpt>
      <trkpt lat="43.73242" lon="3.52712">
        <ele>549.05</ele>
        <time>2024-03-21T11:50:09Z</time>
      </trkpt>
      <trkpt lat="43.73242" lon="3.52713">
        <ele>549.05</ele>
        <time>2024-03-21T11:50:26Z</time>
      </trkpt>
      <trkpt lat="43.73242" lon="3.52711">
        <ele>548.57</ele>
        <time>2024-03-21T11:50:58Z</time>
      </trkpt>
      <trkpt lat="43.73242" lon="3.52712">
        <ele>548.57</ele>
        <time>2024-03-21T11:51:32Z</time>
      </trkpt>
      <trkpt lat="43.73242" lon="3.52711">
        <ele>548.57</ele>
        <time>2024-03-21T11:52:07Z</time>
      </trkpt>
      <trkpt lat="43.73243" lon="3.52712">
        <ele>548.57</ele>
        <time>2024-03-21T11:52:38Z</time>
      </trkpt>
      <trkpt lat="43.73243" lon="3.52712">
        <ele>549.05</ele>
        <time>2024-03-21T11:53:10Z</time>
      </trkpt>
      <trkpt lat="43.73243" lon="3.52711">
        <ele>549.05</ele>
        <time>2024-03-21T11:53:33Z</time>
      </trkpt>
      <trkpt lat="43.73242" lon="3.5271">
        <ele>549.05</ele>
        <time>2024-03-21T11:54:14Z</time>
      </trkpt>
      <trkpt lat="43.73243" lon="3.52711">
        <ele>549.05</ele>
        <time>2024-03-21T11:54:39Z</time>
      </trkpt>
      <trkpt lat="43.73243" lon="3.5271">
        <ele>549.05</ele>
        <time>2024-03-21T11:55:16Z</time>
      </trkpt>
      <trkpt lat="43.73244" lon="3.5271">
        <ele>549.05</ele>
        <time>2024-03-21T11:55:48Z</time>
      </trkpt>
      <trkpt lat="43.73244" lon="3.5271">
        <ele>549.53</ele>
        <time>2024-03-21T11:56:21Z</time>
      </trkpt>
      <trkpt lat="43.73243" lon="3.5271">
        <ele>549.53</ele>
        <time>2024-03-21T11:56:54Z</time>
      </trkpt>
      <trkpt lat="43.73242" lon="3.5271">
        <ele>549.53</ele>
        <time>2024-03-21T11:57:22Z</time>
      </trkpt>
      <trkpt lat="43.73244" lon="3.5271">
        <ele>549.53</ele>
        <time>2024-03-21T11:58:02Z</time>
      </trkpt>
      <trkpt lat="43.73243" lon="3.52712">
        <ele>549.53</ele>
        <time>2024-03-21T11:58:37Z</time>
      </trkpt>
      <trkpt lat="43.73242" lon="3.52711">
        <ele>550.97</ele>
        <time>2024-03-21T11:59:08Z</time>
      </trkpt>
      <trkpt lat="43.73243" lon="3.52714">
        <ele>550.97</ele>
        <time>2024-03-21T11:59:36Z</time>
      </trkpt>
      <trkpt lat="43.73243" lon="3.52713">
        <ele>550.97</ele>
        <time>2024-03-21T12:00:01Z</time>
      </trkpt>
      <trkpt lat="43.73242" lon="3.52711">
        <ele>550.97</ele>
        <time>2024-03-21T12:00:38Z</time>
      </trkpt>
      <trkpt lat="43.73244" lon="3.52712">
        <ele>550.97</ele>
        <time>2024-03-21T12:01:19Z</time>
      </trkpt>
      <trkpt lat="43.73243" lon="3.52713">
        <ele>550.97</ele>
        <time>2024-03-21T12:01:50Z</time>
      </trkpt>
      <trkpt lat="43.73242" lon="3.52714">
        <ele>550.97</ele>
        <time>2024-03-21T12:02:23Z</time>
      </trkpt>
      <trkpt lat="43.73242" lon="3.52712">
        <ele>550.97</ele>
        <time>2024-03-21T12:02:56Z</time>
      </trkpt>
      <trkpt lat="43.73243" lon="3.52713">
        <ele>550.97</ele>
        <time>2024-03-21T12:03:24Z</time>
      </trkpt>
      <trkpt lat="43.73244" lon="3.52713">
        <ele>551.45</ele>
        <time>2024-03-21T12:04:00Z</time>
      </trkpt>
      <trkpt lat="43.73242" lon="3.52711">
        <ele>551.45</ele>
        <time>2024-03-21T12:04:30Z</time>
      </trkpt>
      <trkpt lat="43.73242" lon="3.52711">
        <ele>551.93</ele>
        <time>2024-03-21T12:05:05Z</time>
      </trkpt>
      <trkpt lat="43.73243" lon="3.52713">
        <ele>551.93</ele>
        <time>2024-03-21T12:05:39Z</time>
      </trkpt>
      <trkpt lat="43.73243" lon="3.52713">
        <ele>552.41</ele>
        <time>2024-03-21T12:06:10Z</time>
      </trkpt>
      <trkpt lat="43.73243" lon="3.52712">
        <ele>552.41</ele>
        <time>2024-03-21T12:06:41Z</time>
      </trkpt>
      <trkpt lat="43.73243" lon="3.52714">
        <ele>552.41</ele>
        <time>2024-03-21T12:07:16Z</time>
      </trkpt>
      <trkpt lat="43.73243" lon="3.52713">
        <ele>552.9</ele>
        <time>2024-03-21T12:07:45Z</time>
      </trkpt>
      <trkpt lat="43.73243" lon="3.52714">
        <ele>552.9</ele>
        <time>2024-03-21T12:08:15Z</time>
      </trkpt>
      <trkpt lat="43.73243" lon="3.52713">
        <ele>552.9</ele>
        <time>2024-03-21T12:08:45Z</time>
      </trkpt>
      <trkpt lat="43.73242" lon="3.52714">
        <ele>552.41</ele>
        <time>2024-03-21T12:09:13Z</time>
      </trkpt>
      <trkpt lat="43.73242" lon="3.52714">
        <ele>552.41</ele>
        <time>2024-03-21T12:09:50Z</time>
      </trkpt>
      <trkpt lat="43.73243" lon="3.52713">
        <ele>552.41</ele>
        <time>2024-03-21T12:10:16Z</time>
      </trkpt>
      <trkpt lat="43.73242" lon="3.52713">
        <ele>552.41</ele>
        <time>2024-03-21T12:10:52Z</time>
      </trkpt>
      <trkpt lat="43.73243" lon="3.52714">
        <ele>552.41</ele>
        <time>2024-03-21T12:11:25Z</time>
      </trkpt>
      <trkpt lat="43.73243" lon="3.52713">
        <ele>552.41</ele>
        <time>2024-03-21T12:11:58Z</time>
      </trkpt>
      <trkpt lat="43.73243" lon="3.52714">
        <ele>552.41</ele>
        <time>2024-03-21T12:12:28Z</time>
      </trkpt>
      <trkpt lat="43.73243" lon="3.52716">
        <ele>552.41</ele>
        <time>2024-03-21T12:13:01Z</time>
      </trkpt>
      <trkpt lat="43.73242" lon="3.52713">
        <ele>552.41</ele>
        <time>2024-03-21T12:13:34Z</time>
      </trkpt>
      <trkpt lat="43.73242" lon="3.52711">
        <ele>552.41</ele>
        <time>2024-03-21T12:14:07Z</time>
      </trkpt>
      <trkpt lat="43.73243" lon="3.52713">
        <ele>552.41</ele>
        <time>2024-03-21T12:14:44Z</time>
      </trkpt>
      <trkpt lat="43.73243" lon="3.52713">
        <ele>552.41</ele>
        <time>2024-03-21T12:15:26Z</time>
      </trkpt>
      <trkpt lat="43.73242" lon="3.52713">
        <ele>552.41</ele>
        <time>2024-03-21T12:16:00Z</time>
      </trkpt>
      <trkpt lat="43.73242" lon="3.52711">
        <ele>552.41</ele>
        <time>2024-03-21T12:16:38Z</time>
      </trkpt>
      <trkpt lat="43.73242" lon="3.52712">
        <ele>552.41</ele>
        <time>2024-03-21T12:17:11Z</time>
      </trkpt>
      <trkpt lat="43.73241" lon="3.52714">
        <ele>551.93</ele>
        <time>2024-03-21T12:17:51Z</time>
      </trkpt>
      <trkpt lat="43.73242" lon="3.52713">
        <ele>551.93</ele>
        <time>2024-03-21T12:18:31Z</time>
      </trkpt>
      <trkpt lat="43.73242" lon="3.52714">
        <ele>551.93</ele>
        <time>2024-03-21T12:19:13Z</time>
      </trkpt>
      <trkpt lat="43.73241" lon="3.52715">
        <ele>551.93</ele>
        <time>2024-03-21T12:19:53Z</time>
      </trkpt>
      <trkpt lat="43.7324" lon="3.52714">
        <ele>551.45</ele>
        <time>2024-03-21T12:20:32Z</time>
      </trkpt>
      <trkpt lat="43.73241" lon="3.52715">
        <ele>551.45</ele>
        <time>2024-03-21T12:21:06Z</time>
      </trkpt>
      <trkpt lat="43.73241" lon="3.52713">
        <ele>551.45</ele>
        <time>2024-03-21T12:21:50Z</time>
      </trkpt>
      <trkpt lat="43.73241" lon="3.52712">
        <ele>551.45</ele>
        <time>2024-03-21T12:22:30Z</time>
      </trkpt>
      <trkpt lat="43.73241" lon="3.52713">
        <ele>550.49</ele>
        <time>2024-03-21T12:23:00Z</time>
      </trkpt>
      <trkpt lat="43.73242" lon="3.52714">
        <ele>550.49</ele>
        <time>2024-03-21T12:23:51Z</time>
      </trkpt>
      <trkpt lat="43.73241" lon="3.52713">
        <ele>550.01</ele>
        <time>2024-03-21T12:24:38Z</time>
      </trkpt>
      <trkpt lat="43.73242" lon="3.52714">
        <ele>550.01</ele>
        <time>2024-03-21T12:25:22Z</time>
      </trkpt>
      <trkpt lat="43.73241" lon="3.52715">
        <ele>550.01</ele>
        <time>2024-03-21T12:25:57Z</time>
      </trkpt>
      <trkpt lat="43.73241" lon="3.52714">
        <ele>551.93</ele>
        <time>2024-03-21T12:26:18Z</time>
      </trkpt>
      <trkpt lat="43.73242" lon="3.52711">
        <ele>550.97</ele>
        <time>2024-03-21T12:26:44Z</time>
      </trkpt>
      <trkpt lat="43.73243" lon="3.52713">
        <ele>550.97</ele>
        <time>2024-03-21T12:27:05Z</time>
      </trkpt>
      <trkpt lat="43.73243" lon="3.52713">
        <ele>550.97</ele>
        <time>2024-03-21T12:27:32Z</time>
      </trkpt>
      <trkpt lat="43.73243" lon="3.52712">
        <ele>546.65</ele>
        <time>2024-03-21T12:27:46Z</time>
      </trkpt>
      <trkpt lat="43.73243" lon="3.52712">
        <ele>553.38</ele>
        <time>2024-03-21T12:27:47Z</time>
      </trkpt>
      <trkpt lat="43.73243" lon="3.52712">
        <ele>552.41</ele>
        <time>2024-03-21T12:27:48Z</time>
      </trkpt>
      <trkpt lat="43.73243" lon="3.52712">
        <ele>551.45</ele>
        <time>2024-03-21T12:27:50Z</time>
      </trkpt>
      <trkpt lat="43.73243" lon="3.52713">
        <ele>551.45</ele>
        <time>2024-03-21T12:28:25Z</time>
      </trkpt>
      <trkpt lat="43.73245" lon="3.52714">
        <ele>551.45</ele>
        <time>2024-03-21T12:28:53Z</time>
      </trkpt>
      <trkpt lat="43.73245" lon="3.52714">
        <ele>551.45</ele>
        <time>2024-03-21T12:29:11Z</time>
      </trkpt>
      <trkpt lat="43.73246" lon="3.52714">
        <ele>551.45</ele>
        <time>2024-03-21T12:29:40Z</time>
      </trkpt>
      <trkpt lat="43.73245" lon="3.52716">
        <ele>551.45</ele>
        <time>2024-03-21T12:29:57Z</time>
      </trkpt>
      <trkpt lat="43.73245" lon="3.52715">
        <ele>551.45</ele>
        <time>2024-03-21T12:30:31Z</time>
      </trkpt>
      <trkpt lat="43.73248" lon="3.52715">
        <ele>551.45</ele>
        <time>2024-03-21T12:30:45Z</time>
      </trkpt>
      <trkpt lat="43.73253" lon="3.52714">
        <ele>551.45</ele>
        <time>2024-03-21T12:30:59Z</time>
      </trkpt>
      <trkpt lat="43.7326" lon="3.52706">
        <ele>552.41</ele>
        <time>2024-03-21T12:31:12Z</time>
      </trkpt>
      <trkpt lat="43.73263" lon="3.52692">
        <ele>553.38</ele>
        <time>2024-03-21T12:31:27Z</time>
      </trkpt>
      <trkpt lat="43.73267" lon="3.5268">
        <ele>554.34</ele>
        <time>2024-03-21T12:31:40Z</time>
      </trkpt>
      <trkpt lat="43.73269" lon="3.52673">
        <ele>554.34</ele>
        <time>2024-03-21T12:31:51Z</time>
      </trkpt>
      <trkpt lat="43.73272" lon="3.52662">
        <ele>555.78</ele>
        <time>2024-03-21T12:32:02Z</time>
      </trkpt>
      <trkpt lat="43.73272" lon="3.5266">
        <ele>555.3</ele>
        <time>2024-03-21T12:32:05Z</time>
      </trkpt>
      <trkpt lat="43.73276" lon="3.52647">
        <ele>556.26</ele>
        <time>2024-03-21T12:32:17Z</time>
      </trkpt>
      <trkpt lat="43.73278" lon="3.52643">
        <ele>556.74</ele>
        <time>2024-03-21T12:32:21Z</time>
      </trkpt>
      <trkpt lat="43.73282" lon="3.52627">
        <ele>557.22</ele>
        <time>2024-03-21T12:32:34Z</time>
      </trkpt>
      <trkpt lat="43.73286" lon="3.52613">
        <ele>557.7</ele>
        <time>2024-03-21T12:32:46Z</time>
      </trkpt>
      <trkpt lat="43.73291" lon="3.52597">
        <ele>558.18</ele>
        <time>2024-03-21T12:32:59Z</time>
      </trkpt>
      <trkpt lat="43.73295" lon="3.52582">
        <ele>559.14</ele>
        <time>2024-03-21T12:33:11Z</time>
      </trkpt>
      <trkpt lat="43.73299" lon="3.52568">
        <ele>559.14</ele>
        <time>2024-03-21T12:33:22Z</time>
      </trkpt>
      <trkpt lat="43.73303" lon="3.52556">
        <ele>559.62</ele>
        <time>2024-03-21T12:33:33Z</time>
      </trkpt>
      <trkpt lat="43.73306" lon="3.52544">
        <ele>560.59</ele>
        <time>2024-03-21T12:33:43Z</time>
      </trkpt>
      <trkpt lat="43.73311" lon="3.52532">
        <ele>561.55</ele>
        <time>2024-03-21T12:33:54Z</time>
      </trkpt>
      <trkpt lat="43.73317" lon="3.52521">
        <ele>562.03</ele>
        <time>2024-03-21T12:34:05Z</time>
      </trkpt>
      <trkpt lat="43.73325" lon="3.5251">
        <ele>562.51</ele>
        <time>2024-03-21T12:34:17Z</time>
      </trkpt>
      <trkpt lat="43.73333" lon="3.52497">
        <ele>563.47</ele>
        <time>2024-03-21T12:34:29Z</time>
      </trkpt>
      <trkpt lat="43.73341" lon="3.52484">
        <ele>563.95</ele>
        <time>2024-03-21T12:34:41Z</time>
      </trkpt>
      <trkpt lat="43.73348" lon="3.52475">
        <ele>563.95</ele>
        <time>2024-03-21T12:34:50Z</time>
      </trkpt>
      <trkpt lat="43.7335" lon="3.52473">
        <ele>564.43</ele>
        <time>2024-03-21T12:34:52Z</time>
      </trkpt>
      <trkpt lat="43.73359" lon="3.52462">
        <ele>564.43</ele>
        <time>2024-03-21T12:35:04Z</time>
      </trkpt>
      <trkpt lat="43.73367" lon="3.52447">
        <ele>565.39</ele>
        <time>2024-03-21T12:35:16Z</time>
      </trkpt>
      <trkpt lat="43.73375" lon="3.52435">
        <ele>565.87</ele>
        <time>2024-03-21T12:35:28Z</time>
      </trkpt>
      <trkpt lat="43.73385" lon="3.52424">
        <ele>566.35</ele>
        <time>2024-03-21T12:35:40Z</time>
      </trkpt>
      <trkpt lat="43.73393" lon="3.52413">
        <ele>567.32</ele>
        <time>2024-03-21T12:35:51Z</time>
      </trkpt>
      <trkpt lat="43.734" lon="3.52404">
        <ele>567.32</ele>
        <time>2024-03-21T12:36:02Z</time>
      </trkpt>
      <trkpt lat="43.73404" lon="3.52399">
        <ele>567.8</ele>
        <time>2024-03-21T12:36:14Z</time>
      </trkpt>
      <trkpt lat="43.73405" lon="3.52399">
        <ele>567.8</ele>
        <time>2024-03-21T12:36:37Z</time>
      </trkpt>
      <trkpt lat="43.7341" lon="3.52395">
        <ele>567.8</ele>
        <time>2024-03-21T12:36:59Z</time>
      </trkpt>
      <trkpt lat="43.73417" lon="3.52385">
        <ele>566.35</ele>
        <time>2024-03-21T12:37:13Z</time>
      </trkpt>
      <trkpt lat="43.73425" lon="3.52375">
        <ele>565.87</ele>
        <time>2024-03-21T12:37:25Z</time>
      </trkpt>
      <trkpt lat="43.73433" lon="3.52361">
        <ele>564.43</ele>
        <time>2024-03-21T12:37:38Z</time>
      </trkpt>
      <trkpt lat="43.73441" lon="3.52348">
        <ele>563.95</ele>
        <time>2024-03-21T12:37:51Z</time>
      </trkpt>
      <trkpt lat="43.73449" lon="3.52335">
        <ele>562.51</ele>
        <time>2024-03-21T12:38:05Z</time>
      </trkpt>
      <trkpt lat="43.73457" lon="3.52322">
        <ele>561.55</ele>
        <time>2024-03-21T12:38:18Z</time>
      </trkpt>
      <trkpt lat="43.73467" lon="3.52305">
        <ele>560.11</ele>
        <time>2024-03-21T12:38:34Z</time>
      </trkpt>
      <trkpt lat="43.73475" lon="3.52291">
        <ele>558.66</ele>
        <time>2024-03-21T12:38:47Z</time>
      </trkpt>
      <trkpt lat="43.73482" lon="3.52277">
        <ele>557.22</ele>
        <time>2024-03-21T12:39:01Z</time>
      </trkpt>
      <trkpt lat="43.73487" lon="3.52264">
        <ele>556.26</ele>
        <time>2024-03-21T12:39:13Z</time>
      </trkpt>
      <trkpt lat="43.73491" lon="3.52251">
        <ele>555.3</ele>
        <time>2024-03-21T12:39:25Z</time>
      </trkpt>
      <trkpt lat="43.73493" lon="3.52249">
        <ele>554.82</ele>
        <time>2024-03-21T12:39:43Z</time>
      </trkpt>
      <trkpt lat="43.73498" lon="3.52251">
        <ele>554.34</ele>
        <time>2024-03-21T12:40:13Z</time>
      </trkpt>
      <trkpt lat="43.73493" lon="3.52248">
        <ele>546.65</ele>
        <time>2024-03-21T12:40:27Z</time>
      </trkpt>
      <trkpt lat="43.73493" lon="3.52248">
        <ele>549.53</ele>
        <time>2024-03-21T12:40:28Z</time>
      </trkpt>
      <trkpt lat="43.73493" lon="3.52248">
        <ele>554.82</ele>
        <time>2024-03-21T12:40:29Z</time>
      </trkpt>
      <trkpt lat="43.73496" lon="3.52246">
        <ele>555.3</ele>
        <time>2024-03-21T12:40:37Z</time>
      </trkpt>
      <trkpt lat="43.73492" lon="3.52247">
        <ele>554.82</ele>
        <time>2024-03-21T12:41:15Z</time>
      </trkpt>
      <trkpt lat="43.73497" lon="3.52248">
        <ele>554.34</ele>
        <time>2024-03-21T12:41:35Z</time>
      </trkpt>
      <trkpt lat="43.73496" lon="3.52236">
        <ele>553.38</ele>
        <time>2024-03-21T12:41:52Z</time>
      </trkpt>
      <trkpt lat="43.73498" lon="3.52226">
        <ele>552.9</ele>
        <time>2024-03-21T12:42:05Z</time>
      </trkpt>
      <trkpt lat="43.73499" lon="3.52223">
        <ele>552.41</ele>
        <time>2024-03-21T12:42:08Z</time>
      </trkpt>
      <trkpt lat="43.73508" lon="3.52208">
        <ele>551.45</ele>
        <time>2024-03-21T12:42:22Z</time>
      </trkpt>
      <trkpt lat="43.73517" lon="3.52198">
        <ele>550.49</ele>
        <time>2024-03-21T12:42:33Z</time>
      </trkpt>
      <trkpt lat="43.7352" lon="3.52195">
        <ele>550.01</ele>
        <time>2024-03-21T12:42:37Z</time>
      </trkpt>
      <trkpt lat="43.73534" lon="3.52187">
        <ele>549.05</ele>
        <time>2024-03-21T12:42:52Z</time>
      </trkpt>
      <trkpt lat="43.73544" lon="3.52185">
        <ele>548.09</ele>
        <time>2024-03-21T12:43:06Z</time>
      </trkpt>
      <trkpt lat="43.73544" lon="3.52184">
        <ele>548.09</ele>
        <time>2024-03-21T12:43:24Z</time>
      </trkpt>
      <trkpt lat="43.73545" lon="3.52174">
        <ele>547.13</ele>
        <time>2024-03-21T12:43:37Z</time>
      </trkpt>
      <trkpt lat="43.73545" lon="3.52172">
        <ele>547.13</ele>
        <time>2024-03-21T12:43:38Z</time>
      </trkpt>
      <trkpt lat="43.73546" lon="3.52169">
        <ele>546.17</ele>
        <time>2024-03-21T12:43:52Z</time>
      </trkpt>
      <trkpt lat="43.73542" lon="3.5216">
        <ele>545.69</ele>
        <time>2024-03-21T12:44:04Z</time>
      </trkpt>
      <trkpt lat="43.73538" lon="3.52155">
        <ele>545.69</ele>
        <time>2024-03-21T12:44:17Z</time>
      </trkpt>
      <trkpt lat="43.73537" lon="3.52155">
        <ele>545.69</ele>
        <time>2024-03-21T12:44:20Z</time>
      </trkpt>
      <trkpt lat="43.73526" lon="3.52142">
        <ele>544.72</ele>
        <time>2024-03-21T12:44:35Z</time>
      </trkpt>
      <trkpt lat="43.73519" lon="3.52127">
        <ele>543.76</ele>
        <time>2024-03-21T12:44:49Z</time>
      </trkpt>
      <trkpt lat="43.73515" lon="3.5211">
        <ele>542.8</ele>
        <time>2024-03-21T12:45:03Z</time>
      </trkpt>
      <trkpt lat="43.73512" lon="3.52095">
        <ele>541.36</ele>
        <time>2024-03-21T12:45:16Z</time>
      </trkpt>
      <trkpt lat="43.7351" lon="3.52076">
        <ele>539.92</ele>
        <time>2024-03-21T12:45:31Z</time>
      </trkpt>
      <trkpt lat="43.73509" lon="3.52059">
        <ele>538.48</ele>
        <time>2024-03-21T12:45:44Z</time>
      </trkpt>
      <trkpt lat="43.73518" lon="3.52043">
        <ele>537.03</ele>
        <time>2024-03-21T12:45:58Z</time>
      </trkpt>
      <trkpt lat="43.73524" lon="3.52038">
        <ele>536.55</ele>
        <time>2024-03-21T12:46:10Z</time>
      </trkpt>
      <trkpt lat="43.73526" lon="3.52038">
        <ele>536.55</ele>
        <time>2024-03-21T12:46:25Z</time>
      </trkpt>
      <trkpt lat="43.73527" lon="3.52037">
        <ele>536.55</ele>
        <time>2024-03-21T12:46:33Z</time>
      </trkpt>
      <trkpt lat="43.73528" lon="3.5203">
        <ele>536.07</ele>
        <time>2024-03-21T12:46:40Z</time>
      </trkpt>
      <trkpt lat="43.73528" lon="3.52013">
        <ele>534.63</ele>
        <time>2024-03-21T12:46:54Z</time>
      </trkpt>
      <trkpt lat="43.73528" lon="3.52006">
        <ele>534.15</ele>
        <time>2024-03-21T12:46:59Z</time>
      </trkpt>
      <trkpt lat="43.73531" lon="3.51997">
        <ele>533.19</ele>
        <time>2024-03-21T12:47:13Z</time>
      </trkpt>
      <trkpt lat="43.73531" lon="3.51995">
        <ele>533.19</ele>
        <time>2024-03-21T12:47:22Z</time>
      </trkpt>
      <trkpt lat="43.73534" lon="3.51977">
        <ele>532.23</ele>
        <time>2024-03-21T12:47:36Z</time>
      </trkpt>
      <trkpt lat="43.73536" lon="3.51962">
        <ele>530.79</ele>
        <time>2024-03-21T12:47:48Z</time>
      </trkpt>
      <trkpt lat="43.73538" lon="3.51943">
        <ele>529.82</ele>
        <time>2024-03-21T12:48:02Z</time>
      </trkpt>
      <trkpt lat="43.73542" lon="3.51924">
        <ele>528.38</ele>
        <time>2024-03-21T12:48:16Z</time>
      </trkpt>
      <trkpt lat="43.73544" lon="3.51909">
        <ele>527.42</ele>
        <time>2024-03-21T12:48:28Z</time>
      </trkpt>
      <trkpt lat="43.73549" lon="3.51892">
        <ele>526.94</ele>
        <time>2024-03-21T12:48:41Z</time>
      </trkpt>
      <trkpt lat="43.73555" lon="3.51875">
        <ele>526.94</ele>
        <time>2024-03-21T12:48:55Z</time>
      </trkpt>
      <trkpt lat="43.73556" lon="3.51872">
        <ele>526.94</ele>
        <time>2024-03-21T12:49:00Z</time>
      </trkpt>
      <trkpt lat="43.73557" lon="3.5185">
        <ele>526.46</ele>
        <time>2024-03-21T12:49:14Z</time>
      </trkpt>
      <trkpt lat="43.7356" lon="3.51831">
        <ele>524.54</ele>
        <time>2024-03-21T12:49:29Z</time>
      </trkpt>
      <trkpt lat="43.73561" lon="3.51815">
        <ele>524.06</ele>
        <time>2024-03-21T12:49:41Z</time>
      </trkpt>
      <trkpt lat="43.73564" lon="3.51796">
        <ele>524.06</ele>
        <time>2024-03-21T12:49:53Z</time>
      </trkpt>
      <trkpt lat="43.73567" lon="3.5178">
        <ele>525.5</ele>
        <time>2024-03-21T12:50:03Z</time>
      </trkpt>
      <trkpt lat="43.73574" lon="3.51761">
        <ele>525.98</ele>
        <time>2024-03-21T12:50:16Z</time>
      </trkpt>
      <trkpt lat="43.73575" lon="3.51757">
        <ele>526.46</ele>
        <time>2024-03-21T12:50:19Z</time>
      </trkpt>
      <trkpt lat="43.73573" lon="3.51749">
        <ele>526.46</ele>
        <time>2024-03-21T12:50:33Z</time>
      </trkpt>
      <trkpt lat="43.73572" lon="3.51749">
        <ele>526.46</ele>
        <time>2024-03-21T12:50:37Z</time>
      </trkpt>
      <trkpt lat="43.73565" lon="3.51754">
        <ele>525.98</ele>
        <time>2024-03-21T12:50:47Z</time>
      </trkpt>
      <trkpt lat="43.7356" lon="3.51766">
        <ele>524.54</ele>
        <time>2024-03-21T12:50:58Z</time>
      </trkpt>
      <trkpt lat="43.73548" lon="3.5178">
        <ele>523.58</ele>
        <time>2024-03-21T12:51:12Z</time>
      </trkpt>
      <trkpt lat="43.73538" lon="3.51783">
        <ele>523.09</ele>
        <time>2024-03-21T12:51:22Z</time>
      </trkpt>
      <trkpt lat="43.73534" lon="3.51779">
        <ele>522.61</ele>
        <time>2024-03-21T12:51:27Z</time>
      </trkpt>
      <trkpt lat="43.73534" lon="3.51759">
        <ele>521.17</ele>
        <time>2024-03-21T12:51:42Z</time>
      </trkpt>
      <trkpt lat="43.73534" lon="3.5174">
        <ele>520.21</ele>
        <time>2024-03-21T12:51:55Z</time>
      </trkpt>
      <trkpt lat="43.73533" lon="3.51733">
        <ele>518.29</ele>
        <time>2024-03-21T12:52:08Z</time>
      </trkpt>
      <trkpt lat="43.73531" lon="3.51728">
        <ele>518.29</ele>
        <time>2024-03-21T12:52:23Z</time>
      </trkpt>
      <trkpt lat="43.73531" lon="3.51723">
        <ele>518.29</ele>
        <time>2024-03-21T12:52:27Z</time>
      </trkpt>
      <trkpt lat="43.73526" lon="3.51701">
        <ele>517.33</ele>
        <time>2024-03-21T12:52:41Z</time>
      </trkpt>
      <trkpt lat="43.73523" lon="3.51683">
        <ele>515.88</ele>
        <time>2024-03-21T12:52:54Z</time>
      </trkpt>
      <trkpt lat="43.7352" lon="3.51666">
        <ele>513.96</ele>
        <time>2024-03-21T12:53:08Z</time>
      </trkpt>
      <trkpt lat="43.73519" lon="3.5166">
        <ele>513.48</ele>
        <time>2024-03-21T12:53:22Z</time>
      </trkpt>
      <trkpt lat="43.73516" lon="3.51654">
        <ele>513</ele>
        <time>2024-03-21T12:53:28Z</time>
      </trkpt>
      <trkpt lat="43.73505" lon="3.51646">
        <ele>510.6</ele>
        <time>2024-03-21T12:53:42Z</time>
      </trkpt>
      <trkpt lat="43.73501" lon="3.51642">
        <ele>510.6</ele>
        <time>2024-03-21T12:53:47Z</time>
      </trkpt>
      <trkpt lat="43.73496" lon="3.51632">
        <ele>509.16</ele>
        <time>2024-03-21T12:53:58Z</time>
      </trkpt>
      <trkpt lat="43.73495" lon="3.51623">
        <ele>508.19</ele>
        <time>2024-03-21T12:54:05Z</time>
      </trkpt>
      <trkpt lat="43.73498" lon="3.5161">
        <ele>507.71</ele>
        <time>2024-03-21T12:54:15Z</time>
      </trkpt>
      <trkpt lat="43.73508" lon="3.51595">
        <ele>506.75</ele>
        <time>2024-03-21T12:54:29Z</time>
      </trkpt>
      <trkpt lat="43.73516" lon="3.51583">
        <ele>504.83</ele>
        <time>2024-03-21T12:54:42Z</time>
      </trkpt>
      <trkpt lat="43.73523" lon="3.51568">
        <ele>502.91</ele>
        <time>2024-03-21T12:54:56Z</time>
      </trkpt>
      <trkpt lat="43.73528" lon="3.51551">
        <ele>500.5</ele>
        <time>2024-03-21T12:55:10Z</time>
      </trkpt>
      <trkpt lat="43.73533" lon="3.51533">
        <ele>498.58</ele>
        <time>2024-03-21T12:55:25Z</time>
      </trkpt>
      <trkpt lat="43.73537" lon="3.51522">
        <ele>497.62</ele>
        <time>2024-03-21T12:55:40Z</time>
      </trkpt>
      <trkpt lat="43.73543" lon="3.51508">
        <ele>496.18</ele>
        <time>2024-03-21T12:55:53Z</time>
      </trkpt>
      <trkpt lat="43.73554" lon="3.51492">
        <ele>494.26</ele>
        <time>2024-03-21T12:56:09Z</time>
      </trkpt>
      <trkpt lat="43.73558" lon="3.51476">
        <ele>492.33</ele>
        <time>2024-03-21T12:56:24Z</time>
      </trkpt>
      <trkpt lat="43.73561" lon="3.51456">
        <ele>490.41</ele>
        <time>2024-03-21T12:56:37Z</time>
      </trkpt>
      <trkpt lat="43.73574" lon="3.51446">
        <ele>488.01</ele>
        <time>2024-03-21T12:56:52Z</time>
      </trkpt>
      <trkpt lat="43.73583" lon="3.51428">
        <ele>485.6</ele>
        <time>2024-03-21T12:57:10Z</time>
      </trkpt>
      <trkpt lat="43.73593" lon="3.51414">
        <ele>483.2</ele>
        <time>2024-03-21T12:57:24Z</time>
      </trkpt>
      <trkpt lat="43.73602" lon="3.51399">
        <ele>481.28</ele>
        <time>2024-03-21T12:57:39Z</time>
      </trkpt>
      <trkpt lat="43.73603" lon="3.51398">
        <ele>480.32</ele>
        <time>2024-03-21T12:57:58Z</time>
      </trkpt>
      <trkpt lat="43.73603" lon="3.51395">
        <ele>480.32</ele>
        <time>2024-03-21T12:58:11Z</time>
      </trkpt>
      <trkpt lat="43.73603" lon="3.51377">
        <ele>478.39</ele>
        <time>2024-03-21T12:58:27Z</time>
      </trkpt>
      <trkpt lat="43.736" lon="3.51359">
        <ele>475.99</ele>
        <time>2024-03-21T12:58:42Z</time>
      </trkpt>
      <trkpt lat="43.73598" lon="3.51342">
        <ele>474.55</ele>
        <time>2024-03-21T12:58:55Z</time>
      </trkpt>
      <trkpt lat="43.736" lon="3.51325">
        <ele>473.11</ele>
        <time>2024-03-21T12:59:08Z</time>
      </trkpt>
      <trkpt lat="43.73602" lon="3.51306">
        <ele>471.66</ele>
        <time>2024-03-21T12:59:21Z</time>
      </trkpt>
      <trkpt lat="43.73607" lon="3.51294">
        <ele>470.7</ele>
        <time>2024-03-21T12:59:32Z</time>
      </trkpt>
      <trkpt lat="43.73618" lon="3.51281">
        <ele>468.78</ele>
        <time>2024-03-21T12:59:46Z</time>
      </trkpt>
      <trkpt lat="43.73628" lon="3.51271">
        <ele>467.34</ele>
        <time>2024-03-21T12:59:58Z</time>
      </trkpt>
      <trkpt lat="43.73639" lon="3.5126">
        <ele>466.86</ele>
        <time>2024-03-21T13:00:11Z</time>
      </trkpt>
      <trkpt lat="43.73647" lon="3.51247">
        <ele>466.86</ele>
        <time>2024-03-21T13:00:21Z</time>
      </trkpt>
      <trkpt lat="43.73653" lon="3.51225">
        <ele>465.9</ele>
        <time>2024-03-21T13:00:35Z</time>
      </trkpt>
      <trkpt lat="43.73658" lon="3.51205">
        <ele>465.42</ele>
        <time>2024-03-21T13:00:48Z</time>
      </trkpt>
      <trkpt lat="43.73662" lon="3.51194">
        <ele>465.42</ele>
        <time>2024-03-21T13:00:57Z</time>
      </trkpt>
      <trkpt lat="43.73671" lon="3.51177">
        <ele>466.86</ele>
        <time>2024-03-21T13:01:10Z</time>
      </trkpt>
      <trkpt lat="43.7368" lon="3.51162">
        <ele>466.86</ele>
        <time>2024-03-21T13:01:23Z</time>
      </trkpt>
      <trkpt lat="43.73692" lon="3.51152">
        <ele>466.86</ele>
        <time>2024-03-21T13:01:36Z</time>
      </trkpt>
      <trkpt lat="43.73693" lon="3.51152">
        <ele>466.38</ele>
        <time>2024-03-21T13:01:37Z</time>
      </trkpt>
      <trkpt lat="43.73702" lon="3.51145">
        <ele>465.42</ele>
        <time>2024-03-21T13:01:47Z</time>
      </trkpt>
      <trkpt lat="43.73701" lon="3.51132">
        <ele>463.97</ele>
        <time>2024-03-21T13:01:58Z</time>
      </trkpt>
      <trkpt lat="43.73696" lon="3.51119">
        <ele>463.01</ele>
        <time>2024-03-21T13:02:09Z</time>
      </trkpt>
      <trkpt lat="43.73696" lon="3.51113">
        <ele>462.05</ele>
        <time>2024-03-21T13:02:17Z</time>
      </trkpt>
      <trkpt lat="43.737" lon="3.51099">
        <ele>461.57</ele>
        <time>2024-03-21T13:02:32Z</time>
      </trkpt>
      <trkpt lat="43.73707" lon="3.51082">
        <ele>460.61</ele>
        <time>2024-03-21T13:02:45Z</time>
      </trkpt>
      <trkpt lat="43.73713" lon="3.51066">
        <ele>459.65</ele>
        <time>2024-03-21T13:02:58Z</time>
      </trkpt>
      <trkpt lat="43.73718" lon="3.5105">
        <ele>458.21</ele>
        <time>2024-03-21T13:03:10Z</time>
      </trkpt>
      <trkpt lat="43.73726" lon="3.51033">
        <ele>456.76</ele>
        <time>2024-03-21T13:03:23Z</time>
      </trkpt>
      <trkpt lat="43.73733" lon="3.51016">
        <ele>455.32</ele>
        <time>2024-03-21T13:03:36Z</time>
      </trkpt>
      <trkpt lat="43.73739" lon="3.51002">
        <ele>453.88</ele>
        <time>2024-03-21T13:03:47Z</time>
      </trkpt>
      <trkpt lat="43.73748" lon="3.50988">
        <ele>451.96</ele>
        <time>2024-03-21T13:04:01Z</time>
      </trkpt>
      <trkpt lat="43.73754" lon="3.50972">
        <ele>450.03</ele>
        <time>2024-03-21T13:04:13Z</time>
      </trkpt>
      <trkpt lat="43.73758" lon="3.50962">
        <ele>449.07</ele>
        <time>2024-03-21T13:04:21Z</time>
      </trkpt>
      <trkpt lat="43.73773" lon="3.50959">
        <ele>447.63</ele>
        <time>2024-03-21T13:04:35Z</time>
      </trkpt>
      <trkpt lat="43.73786" lon="3.50955">
        <ele>445.71</ele>
        <time>2024-03-21T13:04:48Z</time>
      </trkpt>
      <trkpt lat="43.73796" lon="3.5094">
        <ele>443.79</ele>
        <time>2024-03-21T13:05:02Z</time>
      </trkpt>
      <trkpt lat="43.73797" lon="3.50937">
        <ele>443.31</ele>
        <time>2024-03-21T13:05:05Z</time>
      </trkpt>
      <trkpt lat="43.7381" lon="3.50923">
        <ele>440.9</ele>
        <time>2024-03-21T13:05:21Z</time>
      </trkpt>
      <trkpt lat="43.73821" lon="3.50912">
        <ele>440.42</ele>
        <time>2024-03-21T13:05:33Z</time>
      </trkpt>
      <trkpt lat="43.73832" lon="3.50904">
        <ele>439.46</ele>
        <time>2024-03-21T13:05:46Z</time>
      </trkpt>
      <trkpt lat="43.73838" lon="3.50896">
        <ele>438.98</ele>
        <time>2024-03-21T13:05:54Z</time>
      </trkpt>
      <trkpt lat="43.73842" lon="3.50879">
        <ele>438.02</ele>
        <time>2024-03-21T13:06:07Z</time>
      </trkpt>
      <trkpt lat="43.73853" lon="3.50864">
        <ele>437.54</ele>
        <time>2024-03-21T13:06:20Z</time>
      </trkpt>
      <trkpt lat="43.73868" lon="3.50863">
        <ele>436.58</ele>
        <time>2024-03-21T13:06:33Z</time>
      </trkpt>
      <trkpt lat="43.73884" lon="3.5087">
        <ele>436.1</ele>
        <time>2024-03-21T13:06:47Z</time>
      </trkpt>
      <trkpt lat="43.7389" lon="3.50871">
        <ele>436.1</ele>
        <time>2024-03-21T13:06:53Z</time>
      </trkpt>
      <trkpt lat="43.73907" lon="3.50862">
        <ele>436.1</ele>
        <time>2024-03-21T13:07:07Z</time>
      </trkpt>
      <trkpt lat="43.73909" lon="3.50861">
        <ele>437.06</ele>
        <time>2024-03-21T13:07:09Z</time>
      </trkpt>
      <trkpt lat="43.73923" lon="3.50851">
        <ele>438.5</ele>
        <time>2024-03-21T13:07:23Z</time>
      </trkpt>
      <trkpt lat="43.73929" lon="3.50849">
        <ele>438.5</ele>
        <time>2024-03-21T13:07:28Z</time>
      </trkpt>
      <trkpt lat="43.73944" lon="3.50845">
        <ele>438.02</ele>
        <time>2024-03-21T13:07:42Z</time>
      </trkpt>
      <trkpt lat="43.73957" lon="3.50843">
        <ele>438.02</ele>
        <time>2024-03-21T13:07:55Z</time>
      </trkpt>
      <trkpt lat="43.73962" lon="3.50842">
        <ele>438.02</ele>
        <time>2024-03-21T13:08:00Z</time>
      </trkpt>
      <trkpt lat="43.73976" lon="3.50834">
        <ele>437.06</ele>
        <time>2024-03-21T13:08:14Z</time>
      </trkpt>
      <trkpt lat="43.73983" lon="3.50828">
        <ele>437.06</ele>
        <time>2024-03-21T13:08:26Z</time>
      </trkpt>
      <trkpt lat="43.73996" lon="3.50815">
        <ele>436.58</ele>
        <time>2024-03-21T13:08:39Z</time>
      </trkpt>
      <trkpt lat="43.73997" lon="3.50814">
        <ele>436.58</ele>
        <time>2024-03-21T13:08:40Z</time>
      </trkpt>
      <trkpt lat="43.73999" lon="3.50812">
        <ele>436.58</ele>
        <time>2024-03-21T13:08:42Z</time>
      </trkpt>
      <trkpt lat="43.74001" lon="3.50811">
        <ele>436.58</ele>
        <time>2024-03-21T13:08:43Z</time>
      </trkpt>
      <trkpt lat="43.74002" lon="3.50809">
        <ele>436.58</ele>
        <time>2024-03-21T13:08:44Z</time>
      </trkpt>
      <trkpt lat="43.74003" lon="3.50806">
        <ele>436.58</ele>
        <time>2024-03-21T13:08:48Z</time>
      </trkpt>
      <trkpt lat="43.74005" lon="3.50805">
        <ele>436.58</ele>
        <time>2024-03-21T13:08:49Z</time>
      </trkpt>
      <trkpt lat="43.74005" lon="3.50804">
        <ele>436.58</ele>
        <time>2024-03-21T13:08:50Z</time>
      </trkpt>
      <trkpt lat="43.74007" lon="3.50803">
        <ele>437.54</ele>
        <time>2024-03-21T13:08:53Z</time>
      </trkpt>
      <trkpt lat="43.74008" lon="3.50801">
        <ele>437.54</ele>
        <time>2024-03-21T13:08:54Z</time>
      </trkpt>
      <trkpt lat="43.7401" lon="3.50799">
        <ele>437.54</ele>
        <time>2024-03-21T13:08:55Z</time>
      </trkpt>
      <trkpt lat="43.74014" lon="3.50788">
        <ele>438.02</ele>
        <time>2024-03-21T13:09:04Z</time>
      </trkpt>
      <trkpt lat="43.74018" lon="3.50777">
        <ele>438.5</ele>
        <time>2024-03-21T13:09:14Z</time>
      </trkpt>
      <trkpt lat="43.74019" lon="3.50775">
        <ele>438.5</ele>
        <time>2024-03-21T13:09:15Z</time>
      </trkpt>
      <trkpt lat="43.74018" lon="3.50774">
        <ele>438.5</ele>
        <time>2024-03-21T13:09:16Z</time>
      </trkpt>
      <trkpt lat="43.74015" lon="3.50769">
        <ele>438.5</ele>
        <time>2024-03-21T13:09:25Z</time>
      </trkpt>
      <trkpt lat="43.74012" lon="3.50768">
        <ele>437.06</ele>
        <time>2024-03-21T13:09:28Z</time>
      </trkpt>
      <trkpt lat="43.74003" lon="3.50766">
        <ele>434.17</ele>
        <time>2024-03-21T13:09:42Z</time>
      </trkpt>
      <trkpt lat="43.73999" lon="3.50765">
        <ele>432.73</ele>
        <time>2024-03-21T13:09:48Z</time>
      </trkpt>
      <trkpt lat="43.73991" lon="3.5076">
        <ele>429.85</ele>
        <time>2024-03-21T13:10:00Z</time>
      </trkpt>
      <trkpt lat="43.7399" lon="3.50758">
        <ele>429.37</ele>
        <time>2024-03-21T13:10:02Z</time>
      </trkpt>
      <trkpt lat="43.73983" lon="3.50752">
        <ele>426</ele>
        <time>2024-03-21T13:10:14Z</time>
      </trkpt>
      <trkpt lat="43.73979" lon="3.5075">
        <ele>425.04</ele>
        <time>2024-03-21T13:10:21Z</time>
      </trkpt>
      <trkpt lat="43.73974" lon="3.50741">
        <ele>422.16</ele>
        <time>2024-03-21T13:10:34Z</time>
      </trkpt>
      <trkpt lat="43.73974" lon="3.5074">
        <ele>421.68</ele>
        <time>2024-03-21T13:10:35Z</time>
      </trkpt>
      <trkpt lat="43.73973" lon="3.50738">
        <ele>421.68</ele>
        <time>2024-03-21T13:10:36Z</time>
      </trkpt>
      <trkpt lat="43.73968" lon="3.50726">
        <ele>419.27</ele>
        <time>2024-03-21T13:10:48Z</time>
      </trkpt>
      <trkpt lat="43.73966" lon="3.50722">
        <ele>418.79</ele>
        <time>2024-03-21T13:10:53Z</time>
      </trkpt>
      <trkpt lat="43.73966" lon="3.50721">
        <ele>418.79</ele>
        <time>2024-03-21T13:10:54Z</time>
      </trkpt>
      <trkpt lat="43.7396" lon="3.50704">
        <ele>418.79</ele>
        <time>2024-03-21T13:11:07Z</time>
      </trkpt>
      <trkpt lat="43.7396" lon="3.50697">
        <ele>418.79</ele>
        <time>2024-03-21T13:11:19Z</time>
      </trkpt>
      <trkpt lat="43.73961" lon="3.50697">
        <ele>418.79</ele>
        <time>2024-03-21T13:11:49Z</time>
      </trkpt>
      <trkpt lat="43.7396" lon="3.50696">
        <ele>418.79</ele>
        <time>2024-03-21T13:12:17Z</time>
      </trkpt>
      <trkpt lat="43.73962" lon="3.50697">
        <ele>418.79</ele>
        <time>2024-03-21T13:12:49Z</time>
      </trkpt>
      <trkpt lat="43.73962" lon="3.50692">
        <ele>418.79</ele>
        <time>2024-03-21T13:12:55Z</time>
      </trkpt>
      <trkpt lat="43.73962" lon="3.50689">
        <ele>418.79</ele>
        <time>2024-03-21T13:12:58Z</time>
      </trkpt>
      <trkpt lat="43.7396" lon="3.50674">
        <ele>418.31</ele>
        <time>2024-03-21T13:13:09Z</time>
      </trkpt>
      <trkpt lat="43.73952" lon="3.50677">
        <ele>415.91</ele>
        <time>2024-03-21T13:13:22Z</time>
      </trkpt>
      <trkpt lat="43.73943" lon="3.50679">
        <ele>412.54</ele>
        <time>2024-03-21T13:13:35Z</time>
      </trkpt>
      <trkpt lat="43.73935" lon="3.50682">
        <ele>411.58</ele>
        <time>2024-03-21T13:13:45Z</time>
      </trkpt>
      <trkpt lat="43.73926" lon="3.50687">
        <ele>408.7</ele>
        <time>2024-03-21T13:13:57Z</time>
      </trkpt>
      <trkpt lat="43.73916" lon="3.50689">
        <ele>406.77</ele>
        <time>2024-03-21T13:14:11Z</time>
      </trkpt>
      <trkpt lat="43.73907" lon="3.50685">
        <ele>404.37</ele>
        <time>2024-03-21T13:14:25Z</time>
      </trkpt>
      <trkpt lat="43.73901" lon="3.5068">
        <ele>403.41</ele>
        <time>2024-03-21T13:14:36Z</time>
      </trkpt>
      <trkpt lat="43.73891" lon="3.50676">
        <ele>401.01</ele>
        <time>2024-03-21T13:14:49Z</time>
      </trkpt>
      <trkpt lat="43.7389" lon="3.50675">
        <ele>401.01</ele>
        <time>2024-03-21T13:14:50Z</time>
      </trkpt>
      <trkpt lat="43.73886" lon="3.50668">
        <ele>400.05</ele>
        <time>2024-03-21T13:14:56Z</time>
      </trkpt>
      <trkpt lat="43.73881" lon="3.50657">
        <ele>398.6</ele>
        <time>2024-03-21T13:15:10Z</time>
      </trkpt>
      <trkpt lat="43.73878" lon="3.50654">
        <ele>398.6</ele>
        <time>2024-03-21T13:15:15Z</time>
      </trkpt>
      <trkpt lat="43.73876" lon="3.5065">
        <ele>397.64</ele>
        <time>2024-03-21T13:15:19Z</time>
      </trkpt>
      <trkpt lat="43.73875" lon="3.50639">
        <ele>396.2</ele>
        <time>2024-03-21T13:15:29Z</time>
      </trkpt>
      <trkpt lat="43.73872" lon="3.50635">
        <ele>395.72</ele>
        <time>2024-03-21T13:15:33Z</time>
      </trkpt>
      <trkpt lat="43.73863" lon="3.50629">
        <ele>395.24</ele>
        <time>2024-03-21T13:15:46Z</time>
      </trkpt>
      <trkpt lat="43.73855" lon="3.50623">
        <ele>394.28</ele>
        <time>2024-03-21T13:15:59Z</time>
      </trkpt>
      <trkpt lat="43.73853" lon="3.50622">
        <ele>393.8</ele>
        <time>2024-03-21T13:16:13Z</time>
      </trkpt>
      <trkpt lat="43.73855" lon="3.50623">
        <ele>393.8</ele>
        <time>2024-03-21T13:16:16Z</time>
      </trkpt>
      <trkpt lat="43.73854" lon="3.50626">
        <ele>393.8</ele>
        <time>2024-03-21T13:16:29Z</time>
      </trkpt>
      <trkpt lat="43.73853" lon="3.50627">
        <ele>393.8</ele>
        <time>2024-03-21T13:16:51Z</time>
      </trkpt>
      <trkpt lat="43.73839" lon="3.50637">
        <ele>393.8</ele>
        <time>2024-03-21T13:17:06Z</time>
      </trkpt>
      <trkpt lat="43.73831" lon="3.50644">
        <ele>393.32</ele>
        <time>2024-03-21T13:17:15Z</time>
      </trkpt>
      <trkpt lat="43.73827" lon="3.50648">
        <ele>393.32</ele>
        <time>2024-03-21T13:17:24Z</time>
      </trkpt>
      <trkpt lat="43.7382" lon="3.50657">
        <ele>391.87</ele>
        <time>2024-03-21T13:17:37Z</time>
      </trkpt>
      <trkpt lat="43.73814" lon="3.50663">
        <ele>391.87</ele>
        <time>2024-03-21T13:17:45Z</time>
      </trkpt>
      <trkpt lat="43.73812" lon="3.50665">
        <ele>391.39</ele>
        <time>2024-03-21T13:17:48Z</time>
      </trkpt>
      <trkpt lat="43.73805" lon="3.50674">
        <ele>390.91</ele>
        <time>2024-03-21T13:18:00Z</time>
      </trkpt>
      <trkpt lat="43.738" lon="3.50681">
        <ele>391.39</ele>
        <time>2024-03-21T13:18:10Z</time>
      </trkpt>
      <trkpt lat="43.73793" lon="3.50685">
        <ele>390.43</ele>
        <time>2024-03-21T13:18:23Z</time>
      </trkpt>
      <trkpt lat="43.73786" lon="3.50684">
        <ele>389.47</ele>
        <time>2024-03-21T13:18:35Z</time>
      </trkpt>
      <trkpt lat="43.73786" lon="3.50687">
        <ele>389.47</ele>
        <time>2024-03-21T13:18:39Z</time>
      </trkpt>
      <trkpt lat="43.73777" lon="3.50694">
        <ele>388.99</ele>
        <time>2024-03-21T13:18:53Z</time>
      </trkpt>
      <trkpt lat="43.73772" lon="3.50698">
        <ele>388.51</ele>
        <time>2024-03-21T13:19:08Z</time>
      </trkpt>
      <trkpt lat="43.73769" lon="3.50695">
        <ele>388.03</ele>
        <time>2024-03-21T13:19:19Z</time>
      </trkpt>
      <trkpt lat="43.73763" lon="3.50695">
        <ele>386.59</ele>
        <time>2024-03-21T13:19:35Z</time>
      </trkpt>
      <trkpt lat="43.73757" lon="3.50693">
        <ele>386.11</ele>
        <time>2024-03-21T13:19:44Z</time>
      </trkpt>
      <trkpt lat="43.73752" lon="3.50691">
        <ele>387.07</ele>
        <time>2024-03-21T13:19:53Z</time>
      </trkpt>
      <trkpt lat="43.7375" lon="3.50687">
        <ele>385.63</ele>
        <time>2024-03-21T13:19:58Z</time>
      </trkpt>
      <trkpt lat="43.73751" lon="3.50684">
        <ele>385.63</ele>
        <time>2024-03-21T13:20:11Z</time>
      </trkpt>
      <trkpt lat="43.73751" lon="3.50682">
        <ele>385.63</ele>
        <time>2024-03-21T13:20:29Z</time>
      </trkpt>
      <trkpt lat="43.73752" lon="3.50685">
        <ele>385.63</ele>
        <time>2024-03-21T13:20:50Z</time>
      </trkpt>
      <trkpt lat="43.73749" lon="3.50683">
        <ele>385.63</ele>
        <time>2024-03-21T13:21:18Z</time>
      </trkpt>
      <trkpt lat="43.73742" lon="3.50676">
        <ele>385.63</ele>
        <time>2024-03-21T13:21:30Z</time>
      </trkpt>
      <trkpt lat="43.73734" lon="3.50678">
        <ele>383.7</ele>
        <time>2024-03-21T13:21:44Z</time>
      </trkpt>
      <trkpt lat="43.7373" lon="3.50681">
        <ele>383.7</ele>
        <time>2024-03-21T13:21:51Z</time>
      </trkpt>
      <trkpt lat="43.73723" lon="3.50684">
        <ele>383.7</ele>
        <time>2024-03-21T13:22:02Z</time>
      </trkpt>
      <trkpt lat="43.73719" lon="3.50687">
        <ele>383.22</ele>
        <time>2024-03-21T13:22:07Z</time>
      </trkpt>
      <trkpt lat="43.73711" lon="3.50693">
        <ele>382.26</ele>
        <time>2024-03-21T13:22:22Z</time>
      </trkpt>
      <trkpt lat="43.73705" lon="3.50694">
        <ele>381.78</ele>
        <time>2024-03-21T13:22:35Z</time>
      </trkpt>
      <trkpt lat="43.73705" lon="3.50697">
        <ele>382.26</ele>
        <time>2024-03-21T13:22:44Z</time>
      </trkpt>
      <trkpt lat="43.73703" lon="3.50698">
        <ele>380.82</ele>
        <time>2024-03-21T13:22:51Z</time>
      </trkpt>
      <trkpt lat="43.73695" lon="3.50701">
        <ele>380.34</ele>
        <time>2024-03-21T13:23:05Z</time>
      </trkpt>
      <trkpt lat="43.73689" lon="3.50702">
        <ele>380.34</ele>
        <time>2024-03-21T13:23:20Z</time>
      </trkpt>
      <trkpt lat="43.73684" lon="3.50705">
        <ele>380.34</ele>
        <time>2024-03-21T13:23:34Z</time>
      </trkpt>
      <trkpt lat="43.73682" lon="3.50709">
        <ele>378.9</ele>
        <time>2024-03-21T13:23:42Z</time>
      </trkpt>
      <trkpt lat="43.73678" lon="3.50714">
        <ele>379.86</ele>
        <time>2024-03-21T13:23:55Z</time>
      </trkpt>
      <trkpt lat="43.73678" lon="3.50714">
        <ele>376.49</ele>
        <time>2024-03-21T13:23:59Z</time>
      </trkpt>
      <trkpt lat="43.73678" lon="3.50713">
        <ele>379.38</ele>
        <time>2024-03-21T13:24:02Z</time>
      </trkpt>
      <trkpt lat="43.73678" lon="3.50712">
        <ele>378.9</ele>
        <time>2024-03-21T13:24:33Z</time>
      </trkpt>
      <trkpt lat="43.73678" lon="3.50712">
        <ele>378.42</ele>
        <time>2024-03-21T13:25:04Z</time>
      </trkpt>
      <trkpt lat="43.73676" lon="3.50716">
        <ele>378.42</ele>
        <time>2024-03-21T13:25:21Z</time>
      </trkpt>
      <trkpt lat="43.73671" lon="3.50721">
        <ele>378.42</ele>
        <time>2024-03-21T13:25:36Z</time>
      </trkpt>
      <trkpt lat="43.73665" lon="3.50726">
        <ele>376.49</ele>
        <time>2024-03-21T13:25:50Z</time>
      </trkpt>
      <trkpt lat="43.73663" lon="3.50727">
        <ele>377.45</ele>
        <time>2024-03-21T13:25:58Z</time>
      </trkpt>
      <trkpt lat="43.73662" lon="3.50729">
        <ele>374.09</ele>
        <time>2024-03-21T13:26:06Z</time>
      </trkpt>
      <trkpt lat="43.73662" lon="3.5073">
        <ele>377.45</ele>
        <time>2024-03-21T13:26:08Z</time>
      </trkpt>
      <trkpt lat="43.73661" lon="3.50729">
        <ele>377.45</ele>
        <time>2024-03-21T13:26:09Z</time>
      </trkpt>
      <trkpt lat="43.73661" lon="3.5073">
        <ele>376.01</ele>
        <time>2024-03-21T13:26:12Z</time>
      </trkpt>
      <trkpt lat="43.73659" lon="3.50733">
        <ele>375.05</ele>
        <time>2024-03-21T13:26:26Z</time>
      </trkpt>
      <trkpt lat="43.73655" lon="3.50735">
        <ele>375.05</ele>
        <time>2024-03-21T13:26:46Z</time>
      </trkpt>
      <trkpt lat="43.73651" lon="3.50736">
        <ele>375.05</ele>
        <time>2024-03-21T13:27:00Z</time>
      </trkpt>
      <trkpt lat="43.73649" lon="3.50737">
        <ele>373.61</ele>
        <time>2024-03-21T13:27:09Z</time>
      </trkpt>
      <trkpt lat="43.7365" lon="3.50738">
        <ele>374.09</ele>
        <time>2024-03-21T13:27:28Z</time>
      </trkpt>
      <trkpt lat="43.73658" lon="3.50743">
        <ele>374.09</ele>
        <time>2024-03-21T13:27:53Z</time>
      </trkpt>
      <trkpt lat="43.7365" lon="3.50742">
        <ele>374.09</ele>
        <time>2024-03-21T13:28:14Z</time>
      </trkpt>
      <trkpt lat="43.73645" lon="3.50742">
        <ele>372.65</ele>
        <time>2024-03-21T13:28:28Z</time>
      </trkpt>
      <trkpt lat="43.73641" lon="3.50746">
        <ele>372.65</ele>
        <time>2024-03-21T13:28:43Z</time>
      </trkpt>
      <trkpt lat="43.73639" lon="3.50751">
        <ele>371.69</ele>
        <time>2024-03-21T13:28:57Z</time>
      </trkpt>
      <trkpt lat="43.73633" lon="3.50756">
        <ele>371.21</ele>
        <time>2024-03-21T13:29:11Z</time>
      </trkpt>
      <trkpt lat="43.73633" lon="3.50757">
        <ele>372.65</ele>
        <time>2024-03-21T13:29:19Z</time>
      </trkpt>
      <trkpt lat="43.73631" lon="3.50757">
        <ele>371.21</ele>
        <time>2024-03-21T13:29:23Z</time>
      </trkpt>
      <trkpt lat="43.73624" lon="3.50759">
        <ele>370.73</ele>
        <time>2024-03-21T13:29:35Z</time>
      </trkpt>
      <trkpt lat="43.73623" lon="3.50763">
        <ele>369.76</ele>
        <time>2024-03-21T13:29:43Z</time>
      </trkpt>
      <trkpt lat="43.73618" lon="3.5077">
        <ele>370.73</ele>
        <time>2024-03-21T13:29:55Z</time>
      </trkpt>
      <trkpt lat="43.73616" lon="3.50771">
        <ele>368.8</ele>
        <time>2024-03-21T13:29:58Z</time>
      </trkpt>
      <trkpt lat="43.73614" lon="3.50772">
        <ele>370.24</ele>
        <time>2024-03-21T13:30:09Z</time>
      </trkpt>
      <trkpt lat="43.73613" lon="3.50774">
        <ele>370.24</ele>
        <time>2024-03-21T13:30:21Z</time>
      </trkpt>
      <trkpt lat="43.73614" lon="3.50775">
        <ele>369.76</ele>
        <time>2024-03-21T13:30:53Z</time>
      </trkpt>
      <trkpt lat="43.73616" lon="3.50773">
        <ele>368.8</ele>
        <time>2024-03-21T13:31:11Z</time>
      </trkpt>
      <trkpt lat="43.73615" lon="3.50771">
        <ele>368.8</ele>
        <time>2024-03-21T13:31:37Z</time>
      </trkpt>
      <trkpt lat="43.73614" lon="3.50772">
        <ele>368.32</ele>
        <time>2024-03-21T13:32:06Z</time>
      </trkpt>
      <trkpt lat="43.73614" lon="3.50772">
        <ele>368.32</ele>
        <time>2024-03-21T13:32:33Z</time>
      </trkpt>
      <trkpt lat="43.73614" lon="3.50772">
        <ele>368.32</ele>
        <time>2024-03-21T13:32:59Z</time>
      </trkpt>
      <trkpt lat="43.73613" lon="3.50776">
        <ele>369.76</ele>
        <time>2024-03-21T13:33:12Z</time>
      </trkpt>
      <trkpt lat="43.73608" lon="3.50784">
        <ele>367.84</ele>
        <time>2024-03-21T13:33:26Z</time>
      </trkpt>
      <trkpt lat="43.73602" lon="3.50791">
        <ele>366.88</ele>
        <time>2024-03-21T13:33:39Z</time>
      </trkpt>
      <trkpt lat="43.73595" lon="3.50794">
        <ele>366.4</ele>
        <time>2024-03-21T13:33:51Z</time>
      </trkpt>
      <trkpt lat="43.73592" lon="3.50797">
        <ele>364.48</ele>
        <time>2024-03-21T13:34:03Z</time>
      </trkpt>
      <trkpt lat="43.73589" lon="3.50802">
        <ele>364</ele>
        <time>2024-03-21T13:34:15Z</time>
      </trkpt>
      <trkpt lat="43.73586" lon="3.50802">
        <ele>364.96</ele>
        <time>2024-03-21T13:34:28Z</time>
      </trkpt>
      <trkpt lat="43.73584" lon="3.50802">
        <ele>363.52</ele>
        <time>2024-03-21T13:34:34Z</time>
      </trkpt>
      <trkpt lat="43.73583" lon="3.50798">
        <ele>364.96</ele>
        <time>2024-03-21T13:34:42Z</time>
      </trkpt>
      <trkpt lat="43.73579" lon="3.50799">
        <ele>364.96</ele>
        <time>2024-03-21T13:35:00Z</time>
      </trkpt>
      <trkpt lat="43.73576" lon="3.50802">
        <ele>363.52</ele>
        <time>2024-03-21T13:35:15Z</time>
      </trkpt>
      <trkpt lat="43.73574" lon="3.50805">
        <ele>363.52</ele>
        <time>2024-03-21T13:35:31Z</time>
      </trkpt>
      <trkpt lat="43.73568" lon="3.50807">
        <ele>363.52</ele>
        <time>2024-03-21T13:35:42Z</time>
      </trkpt>
      <trkpt lat="43.73565" lon="3.50806">
        <ele>359.67</ele>
        <time>2024-03-21T13:35:52Z</time>
      </trkpt>
      <trkpt lat="43.73565" lon="3.50806">
        <ele>364</ele>
        <time>2024-03-21T13:35:53Z</time>
      </trkpt>
      <trkpt lat="43.73566" lon="3.50806">
        <ele>363.04</ele>
        <time>2024-03-21T13:36:02Z</time>
      </trkpt>
      <trkpt lat="43.73567" lon="3.50806">
        <ele>364.96</ele>
        <time>2024-03-21T13:36:07Z</time>
      </trkpt>
      <trkpt lat="43.73565" lon="3.50802">
        <ele>365.92</ele>
        <time>2024-03-21T13:36:35Z</time>
      </trkpt>
      <trkpt lat="43.73565" lon="3.50802">
        <ele>366.4</ele>
        <time>2024-03-21T13:36:49Z</time>
      </trkpt>
      <trkpt lat="43.73564" lon="3.50802">
        <ele>364.96</ele>
        <time>2024-03-21T13:36:54Z</time>
      </trkpt>
      <trkpt lat="43.73564" lon="3.50802">
        <ele>366.4</ele>
        <time>2024-03-21T13:36:58Z</time>
      </trkpt>
      <trkpt lat="43.73563" lon="3.50795">
        <ele>367.84</ele>
        <time>2024-03-21T13:37:08Z</time>
      </trkpt>
      <trkpt lat="43.73563" lon="3.50795">
        <ele>369.28</ele>
        <time>2024-03-21T13:37:26Z</time>
      </trkpt>
      <trkpt lat="43.73564" lon="3.50794">
        <ele>367.36</ele>
        <time>2024-03-21T13:37:33Z</time>
      </trkpt>
      <trkpt lat="43.73567" lon="3.50789">
        <ele>369.28</ele>
        <time>2024-03-21T13:37:43Z</time>
      </trkpt>
      <trkpt lat="43.73569" lon="3.50787">
        <ele>372.17</ele>
        <time>2024-03-21T13:37:55Z</time>
      </trkpt>
      <trkpt lat="43.73569" lon="3.50787">
        <ele>370.73</ele>
        <time>2024-03-21T13:37:56Z</time>
      </trkpt>
      <trkpt lat="43.73569" lon="3.50785">
        <ele>369.28</ele>
        <time>2024-03-21T13:37:58Z</time>
      </trkpt>
      <trkpt lat="43.73569" lon="3.50779">
        <ele>372.17</ele>
        <time>2024-03-21T13:38:08Z</time>
      </trkpt>
      <trkpt lat="43.73571" lon="3.50776">
        <ele>373.13</ele>
        <time>2024-03-21T13:38:18Z</time>
      </trkpt>
      <trkpt lat="43.73571" lon="3.50773">
        <ele>375.05</ele>
        <time>2024-03-21T13:38:24Z</time>
      </trkpt>
      <trkpt lat="43.73571" lon="3.50773">
        <ele>373.61</ele>
        <time>2024-03-21T13:38:26Z</time>
      </trkpt>
      <trkpt lat="43.73571" lon="3.50774">
        <ele>375.05</ele>
        <time>2024-03-21T13:38:37Z</time>
      </trkpt>
      <trkpt lat="43.73573" lon="3.5077">
        <ele>378.9</ele>
        <time>2024-03-21T13:38:47Z</time>
      </trkpt>
      <trkpt lat="43.73573" lon="3.5077">
        <ele>376.01</ele>
        <time>2024-03-21T13:38:48Z</time>
      </trkpt>
      <trkpt lat="43.73569" lon="3.50768">
        <ele>375.53</ele>
        <time>2024-03-21T13:39:05Z</time>
      </trkpt>
      <trkpt lat="43.73568" lon="3.50765">
        <ele>378.9</ele>
        <time>2024-03-21T13:39:12Z</time>
      </trkpt>
      <trkpt lat="43.73566" lon="3.50762">
        <ele>380.34</ele>
        <time>2024-03-21T13:39:24Z</time>
      </trkpt>
      <trkpt lat="43.73566" lon="3.50762">
        <ele>380.34</ele>
        <time>2024-03-21T13:39:25Z</time>
      </trkpt>
      <trkpt lat="43.73568" lon="3.50761">
        <ele>381.3</ele>
        <time>2024-03-21T13:39:40Z</time>
      </trkpt>
      <trkpt lat="43.73565" lon="3.50757">
        <ele>383.22</ele>
        <time>2024-03-21T13:39:53Z</time>
      </trkpt>
      <trkpt lat="43.73564" lon="3.50752">
        <ele>383.22</ele>
        <time>2024-03-21T13:40:05Z</time>
      </trkpt>
      <trkpt lat="43.73564" lon="3.50752">
        <ele>384.66</ele>
        <time>2024-03-21T13:40:07Z</time>
      </trkpt>
      <trkpt lat="43.73564" lon="3.50747">
        <ele>384.66</ele>
        <time>2024-03-21T13:40:18Z</time>
      </trkpt>
      <trkpt lat="43.73564" lon="3.50747">
        <ele>386.11</ele>
        <time>2024-03-21T13:40:22Z</time>
      </trkpt>
      <trkpt lat="43.73565" lon="3.50747">
        <ele>387.07</ele>
        <time>2024-03-21T13:40:37Z</time>
      </trkpt>
      <trkpt lat="43.73567" lon="3.50749">
        <ele>385.63</ele>
        <time>2024-03-21T13:40:49Z</time>
      </trkpt>
      <trkpt lat="43.7357" lon="3.50749">
        <ele>387.07</ele>
        <time>2024-03-21T13:41:23Z</time>
      </trkpt>
      <trkpt lat="43.73571" lon="3.5075">
        <ele>387.07</ele>
        <time>2024-03-21T13:41:49Z</time>
      </trkpt>
      <trkpt lat="43.73573" lon="3.50747">
        <ele>388.99</ele>
        <time>2024-03-21T13:42:04Z</time>
      </trkpt>
      <trkpt lat="43.73573" lon="3.50745">
        <ele>387.07</ele>
        <time>2024-03-21T13:42:07Z</time>
      </trkpt>
      <trkpt lat="43.73572" lon="3.50741">
        <ele>389.95</ele>
        <time>2024-03-21T13:42:25Z</time>
      </trkpt>
      <trkpt lat="43.73572" lon="3.50741">
        <ele>386.11</ele>
        <time>2024-03-21T13:42:26Z</time>
      </trkpt>
      <trkpt lat="43.73571" lon="3.5074">
        <ele>391.39</ele>
        <time>2024-03-21T13:42:28Z</time>
      </trkpt>
      <trkpt lat="43.73571" lon="3.50739">
        <ele>388.99</ele>
        <time>2024-03-21T13:42:29Z</time>
      </trkpt>
      <trkpt lat="43.73569" lon="3.50736">
        <ele>388.99</ele>
        <time>2024-03-21T13:42:42Z</time>
      </trkpt>
      <trkpt lat="43.7357" lon="3.50736">
        <ele>388.51</ele>
        <time>2024-03-21T13:43:05Z</time>
      </trkpt>
      <trkpt lat="43.73569" lon="3.50737">
        <ele>389.47</ele>
        <time>2024-03-21T13:43:34Z</time>
      </trkpt>
      <trkpt lat="43.73569" lon="3.50738">
        <ele>389.47</ele>
        <time>2024-03-21T13:43:53Z</time>
      </trkpt>
      <trkpt lat="43.73568" lon="3.50737">
        <ele>388.51</ele>
        <time>2024-03-21T13:44:07Z</time>
      </trkpt>
      <trkpt lat="43.73568" lon="3.50737">
        <ele>391.39</ele>
        <time>2024-03-21T13:44:08Z</time>
      </trkpt>
      <trkpt lat="43.73568" lon="3.50737">
        <ele>389.95</ele>
        <time>2024-03-21T13:44:09Z</time>
      </trkpt>
      <trkpt lat="43.73564" lon="3.5074">
        <ele>388.99</ele>
        <time>2024-03-21T13:44:27Z</time>
      </trkpt>
      <trkpt lat="43.73556" lon="3.50743">
        <ele>388.99</ele>
        <time>2024-03-21T13:44:36Z</time>
      </trkpt>
      <trkpt lat="43.73544" lon="3.50743">
        <ele>388.03</ele>
        <time>2024-03-21T13:44:49Z</time>
      </trkpt>
      <trkpt lat="43.73535" lon="3.5074">
        <ele>387.07</ele>
        <time>2024-03-21T13:44:58Z</time>
      </trkpt>
      <trkpt lat="43.73523" lon="3.50736">
        <ele>386.11</ele>
        <time>2024-03-21T13:45:11Z</time>
      </trkpt>
      <trkpt lat="43.73513" lon="3.50731">
        <ele>385.63</ele>
        <time>2024-03-21T13:45:20Z</time>
      </trkpt>
      <trkpt lat="43.735" lon="3.50727">
        <ele>384.66</ele>
        <time>2024-03-21T13:45:33Z</time>
      </trkpt>
      <trkpt lat="43.73488" lon="3.50721">
        <ele>383.7</ele>
        <time>2024-03-21T13:45:46Z</time>
      </trkpt>
      <trkpt lat="43.73483" lon="3.50719">
        <ele>383.7</ele>
        <time>2024-03-21T13:45:51Z</time>
      </trkpt>
      <trkpt lat="43.73479" lon="3.50719">
        <ele>383.7</ele>
        <time>2024-03-21T13:45:55Z</time>
      </trkpt>
      <trkpt lat="43.73466" lon="3.50719">
        <ele>382.74</ele>
        <time>2024-03-21T13:46:08Z</time>
      </trkpt>
      <trkpt lat="43.73461" lon="3.50721">
        <ele>382.26</ele>
        <time>2024-03-21T13:46:20Z</time>
      </trkpt>
      <trkpt lat="43.73454" lon="3.50719">
        <ele>382.26</ele>
        <time>2024-03-21T13:46:36Z</time>
      </trkpt>
      <trkpt lat="43.73447" lon="3.50719">
        <ele>381.78</ele>
        <time>2024-03-21T13:46:49Z</time>
      </trkpt>
      <trkpt lat="43.73448" lon="3.50721">
        <ele>381.78</ele>
        <time>2024-03-21T13:47:04Z</time>
      </trkpt>
      <trkpt lat="43.73449" lon="3.50722">
        <ele>381.78</ele>
        <time>2024-03-21T13:47:22Z</time>
      </trkpt>
      <trkpt lat="43.73448" lon="3.50718">
        <ele>381.78</ele>
        <time>2024-03-21T13:47:48Z</time>
      </trkpt>
      <trkpt lat="43.73447" lon="3.50713">
        <ele>381.78</ele>
        <time>2024-03-21T13:48:00Z</time>
      </trkpt>
      <trkpt lat="43.73445" lon="3.50711">
        <ele>381.78</ele>
        <time>2024-03-21T13:48:02Z</time>
      </trkpt>
      <trkpt lat="43.73433" lon="3.50703">
        <ele>381.78</ele>
        <time>2024-03-21T13:48:17Z</time>
      </trkpt>
      <trkpt lat="43.73422" lon="3.50701">
        <ele>381.78</ele>
        <time>2024-03-21T13:48:29Z</time>
      </trkpt>
      <trkpt lat="43.73411" lon="3.50701">
        <ele>381.78</ele>
        <time>2024-03-21T13:48:40Z</time>
      </trkpt>
      <trkpt lat="43.73403" lon="3.50703">
        <ele>379.86</ele>
        <time>2024-03-21T13:48:50Z</time>
      </trkpt>
      <trkpt lat="43.73399" lon="3.50703">
        <ele>379.86</ele>
        <time>2024-03-21T13:48:55Z</time>
      </trkpt>
      <trkpt lat="43.73387" lon="3.50702">
        <ele>378.42</ele>
        <time>2024-03-21T13:49:09Z</time>
      </trkpt>
      <trkpt lat="43.73379" lon="3.507">
        <ele>377.94</ele>
        <time>2024-03-21T13:49:20Z</time>
      </trkpt>
      <trkpt lat="43.73368" lon="3.50699">
        <ele>376.49</ele>
        <time>2024-03-21T13:49:32Z</time>
      </trkpt>
      <trkpt lat="43.73362" lon="3.50698">
        <ele>375.53</ele>
        <time>2024-03-21T13:49:39Z</time>
      </trkpt>
      <trkpt lat="43.7335" lon="3.50692">
        <ele>374.09</ele>
        <time>2024-03-21T13:49:53Z</time>
      </trkpt>
      <trkpt lat="43.7334" lon="3.50687">
        <ele>373.61</ele>
        <time>2024-03-21T13:50:06Z</time>
      </trkpt>
      <trkpt lat="43.7333" lon="3.50684">
        <ele>372.65</ele>
        <time>2024-03-21T13:50:18Z</time>
      </trkpt>
      <trkpt lat="43.73326" lon="3.50682">
        <ele>372.17</ele>
        <time>2024-03-21T13:50:29Z</time>
      </trkpt>
      <trkpt lat="43.73314" lon="3.50676">
        <ele>370.73</ele>
        <time>2024-03-21T13:50:42Z</time>
      </trkpt>
      <trkpt lat="43.73311" lon="3.50676">
        <ele>370.73</ele>
        <time>2024-03-21T13:50:45Z</time>
      </trkpt>
      <trkpt lat="43.73297" lon="3.50668">
        <ele>369.28</ele>
        <time>2024-03-21T13:51:00Z</time>
      </trkpt>
      <trkpt lat="43.73286" lon="3.50659">
        <ele>367.84</ele>
        <time>2024-03-21T13:51:13Z</time>
      </trkpt>
      <trkpt lat="43.73285" lon="3.50658">
        <ele>367.84</ele>
        <time>2024-03-21T13:51:15Z</time>
      </trkpt>
      <trkpt lat="43.73275" lon="3.50651">
        <ele>366.4</ele>
        <time>2024-03-21T13:51:26Z</time>
      </trkpt>
      <trkpt lat="43.7326" lon="3.50647">
        <ele>364.96</ele>
        <time>2024-03-21T13:51:41Z</time>
      </trkpt>
      <trkpt lat="43.73246" lon="3.50654">
        <ele>363.04</ele>
        <time>2024-03-21T13:51:55Z</time>
      </trkpt>
      <trkpt lat="43.73234" lon="3.50657">
        <ele>362.07</ele>
        <time>2024-03-21T13:52:08Z</time>
      </trkpt>
      <trkpt lat="43.73222" lon="3.50658">
        <ele>360.15</ele>
        <time>2024-03-21T13:52:20Z</time>
      </trkpt>
      <trkpt lat="43.73209" lon="3.50656">
        <ele>359.67</ele>
        <time>2024-03-21T13:52:32Z</time>
      </trkpt>
      <trkpt lat="43.73196" lon="3.50652">
        <ele>358.23</ele>
        <time>2024-03-21T13:52:46Z</time>
      </trkpt>
      <trkpt lat="43.73194" lon="3.50652">
        <ele>358.23</ele>
        <time>2024-03-21T13:52:49Z</time>
      </trkpt>
      <trkpt lat="43.73183" lon="3.50649">
        <ele>356.79</ele>
        <time>2024-03-21T13:53:01Z</time>
      </trkpt>
      <trkpt lat="43.7317" lon="3.50645">
        <ele>355.83</ele>
        <time>2024-03-21T13:53:14Z</time>
      </trkpt>
      <trkpt lat="43.7316" lon="3.50643">
        <ele>354.86</ele>
        <time>2024-03-21T13:53:25Z</time>
      </trkpt>
      <trkpt lat="43.73147" lon="3.50636">
        <ele>353.9</ele>
        <time>2024-03-21T13:53:38Z</time>
      </trkpt>
      <trkpt lat="43.73133" lon="3.50628">
        <ele>351.98</ele>
        <time>2024-03-21T13:53:53Z</time>
      </trkpt>
      <trkpt lat="43.73123" lon="3.50623">
        <ele>351.02</ele>
        <time>2024-03-21T13:54:04Z</time>
      </trkpt>
      <trkpt lat="43.73122" lon="3.50622">
        <ele>351.02</ele>
        <time>2024-03-21T13:54:05Z</time>
      </trkpt>
      <trkpt lat="43.7311" lon="3.50618">
        <ele>349.58</ele>
        <time>2024-03-21T13:54:18Z</time>
      </trkpt>
      <trkpt lat="43.73098" lon="3.50616">
        <ele>348.13</ele>
        <time>2024-03-21T13:54:31Z</time>
      </trkpt>
      <trkpt lat="43.73087" lon="3.50611">
        <ele>346.69</ele>
        <time>2024-03-21T13:54:43Z</time>
      </trkpt>
      <trkpt lat="43.7308" lon="3.50609">
        <ele>345.73</ele>
        <time>2024-03-21T13:54:51Z</time>
      </trkpt>
      <trkpt lat="43.73075" lon="3.50606">
        <ele>345.25</ele>
        <time>2024-03-21T13:54:57Z</time>
      </trkpt>
      <trkpt lat="43.73062" lon="3.50598">
        <ele>343.33</ele>
        <time>2024-03-21T13:55:11Z</time>
      </trkpt>
      <trkpt lat="43.73054" lon="3.50586">
        <ele>342.37</ele>
        <time>2024-03-21T13:55:24Z</time>
      </trkpt>
      <trkpt lat="43.73048" lon="3.50568">
        <ele>340.92</ele>
        <time>2024-03-21T13:55:39Z</time>
      </trkpt>
      <trkpt lat="43.73045" lon="3.50545">
        <ele>339</ele>
        <time>2024-03-21T13:55:54Z</time>
      </trkpt>
      <trkpt lat="43.73043" lon="3.50533">
        <ele>338.52</ele>
        <time>2024-03-21T13:56:03Z</time>
      </trkpt>
      <trkpt lat="43.73041" lon="3.50525">
        <ele>338.04</ele>
        <time>2024-03-21T13:56:09Z</time>
      </trkpt>
      <trkpt lat="43.73036" lon="3.50515">
        <ele>336.6</ele>
        <time>2024-03-21T13:56:18Z</time>
      </trkpt>
      <trkpt lat="43.73034" lon="3.50514">
        <ele>336.12</ele>
        <time>2024-03-21T13:56:21Z</time>
      </trkpt>
      <trkpt lat="43.73029" lon="3.50515">
        <ele>335.64</ele>
        <time>2024-03-21T13:56:27Z</time>
      </trkpt>
      <trkpt lat="43.73025" lon="3.5052">
        <ele>335.16</ele>
        <time>2024-03-21T13:56:33Z</time>
      </trkpt>
      <trkpt lat="43.73021" lon="3.50528">
        <ele>334.68</ele>
        <time>2024-03-21T13:56:39Z</time>
      </trkpt>
      <trkpt lat="43.73008" lon="3.50538">
        <ele>332.75</ele>
        <time>2024-03-21T13:56:54Z</time>
      </trkpt>
      <trkpt lat="43.73003" lon="3.50539">
        <ele>332.27</ele>
        <time>2024-03-21T13:56:59Z</time>
      </trkpt>
      <trkpt lat="43.72998" lon="3.5054">
        <ele>331.31</ele>
        <time>2024-03-21T13:57:06Z</time>
      </trkpt>
      <trkpt lat="43.72996" lon="3.50541">
        <ele>330.83</ele>
        <time>2024-03-21T13:57:08Z</time>
      </trkpt>
      <trkpt lat="43.72986" lon="3.50551">
        <ele>329.87</ele>
        <time>2024-03-21T13:57:20Z</time>
      </trkpt>
      <trkpt lat="43.72974" lon="3.50556">
        <ele>326.99</ele>
        <time>2024-03-21T13:57:35Z</time>
      </trkpt>
      <trkpt lat="43.72969" lon="3.50557">
        <ele>328.43</ele>
        <time>2024-03-21T13:57:53Z</time>
      </trkpt>
      <trkpt lat="43.72964" lon="3.50558">
        <ele>326.99</ele>
        <time>2024-03-21T13:57:58Z</time>
      </trkpt>
      <trkpt lat="43.72953" lon="3.5056">
        <ele>325.54</ele>
        <time>2024-03-21T13:58:10Z</time>
      </trkpt>
      <trkpt lat="43.72942" lon="3.50564">
        <ele>324.1</ele>
        <time>2024-03-21T13:58:22Z</time>
      </trkpt>
      <trkpt lat="43.72935" lon="3.50565">
        <ele>323.14</ele>
        <time>2024-03-21T13:58:29Z</time>
      </trkpt>
      <trkpt lat="43.72926" lon="3.50564">
        <ele>321.7</ele>
        <time>2024-03-21T13:58:38Z</time>
      </trkpt>
      <trkpt lat="43.7292" lon="3.50566">
        <ele>321.22</ele>
        <time>2024-03-21T13:58:53Z</time>
      </trkpt>
      <trkpt lat="43.7292" lon="3.50565">
        <ele>321.22</ele>
        <time>2024-03-21T13:59:08Z</time>
      </trkpt>
      <trkpt lat="43.72922" lon="3.50574">
        <ele>320.74</ele>
        <time>2024-03-21T13:59:22Z</time>
      </trkpt>
      <trkpt lat="43.72925" lon="3.50582">
        <ele>320.26</ele>
        <time>2024-03-21T13:59:30Z</time>
      </trkpt>
      <trkpt lat="43.72927" lon="3.50584">
        <ele>320.26</ele>
        <time>2024-03-21T13:59:32Z</time>
      </trkpt>
      <trkpt lat="43.7293" lon="3.50586">
        <ele>320.26</ele>
        <time>2024-03-21T13:59:35Z</time>
      </trkpt>
      <trkpt lat="43.7294" lon="3.50597">
        <ele>318.81</ele>
        <time>2024-03-21T13:59:49Z</time>
      </trkpt>
      <trkpt lat="43.72949" lon="3.50607">
        <ele>317.85</ele>
        <time>2024-03-21T14:00:02Z</time>
      </trkpt>
      <trkpt lat="43.72956" lon="3.50617">
        <ele>317.37</ele>
        <time>2024-03-21T14:00:14Z</time>
      </trkpt>
      <trkpt lat="43.72963" lon="3.50627">
        <ele>316.41</ele>
        <time>2024-03-21T14:00:29Z</time>
      </trkpt>
      <trkpt lat="43.72971" lon="3.50641">
        <ele>314.97</ele>
        <time>2024-03-21T14:00:43Z</time>
      </trkpt>
      <trkpt lat="43.72977" lon="3.50655">
        <ele>313.53</ele>
        <time>2024-03-21T14:00:55Z</time>
      </trkpt>
      <trkpt lat="43.72977" lon="3.5066">
        <ele>313.53</ele>
        <time>2024-03-21T14:00:58Z</time>
      </trkpt>
      <trkpt lat="43.72976" lon="3.50665">
        <ele>313.05</ele>
        <time>2024-03-21T14:01:02Z</time>
      </trkpt>
      <trkpt lat="43.72968" lon="3.50668">
        <ele>312.09</ele>
        <time>2024-03-21T14:01:15Z</time>
      </trkpt>
      <trkpt lat="43.72956" lon="3.50667">
        <ele>311.6</ele>
        <time>2024-03-21T14:01:30Z</time>
      </trkpt>
      <trkpt lat="43.72942" lon="3.50668">
        <ele>310.16</ele>
        <time>2024-03-21T14:01:42Z</time>
      </trkpt>
      <trkpt lat="43.72929" lon="3.50668">
        <ele>308.72</ele>
        <time>2024-03-21T14:01:56Z</time>
      </trkpt>
      <trkpt lat="43.72916" lon="3.50667">
        <ele>307.28</ele>
        <time>2024-03-21T14:02:09Z</time>
      </trkpt>
      <trkpt lat="43.729" lon="3.5065">
        <ele>306.32</ele>
        <time>2024-03-21T14:02:25Z</time>
      </trkpt>
      <trkpt lat="43.72898" lon="3.50646">
        <ele>306.32</ele>
        <time>2024-03-21T14:02:29Z</time>
      </trkpt>
      <trkpt lat="43.72884" lon="3.50633">
        <ele>305.36</ele>
        <time>2024-03-21T14:02:44Z</time>
      </trkpt>
      <trkpt lat="43.7287" lon="3.50617">
        <ele>304.88</ele>
        <time>2024-03-21T14:03:00Z</time>
      </trkpt>
      <trkpt lat="43.72864" lon="3.50615">
        <ele>303.91</ele>
        <time>2024-03-21T14:03:07Z</time>
      </trkpt>
      <trkpt lat="43.72849" lon="3.50624">
        <ele>304.39</ele>
        <time>2024-03-21T14:03:22Z</time>
      </trkpt>
      <trkpt lat="43.7284" lon="3.50627">
        <ele>304.88</ele>
        <time>2024-03-21T14:03:31Z</time>
      </trkpt>
      <trkpt lat="43.72827" lon="3.50616">
        <ele>304.88</ele>
        <time>2024-03-21T14:03:45Z</time>
      </trkpt>
      <trkpt lat="43.72815" lon="3.50601">
        <ele>302.47</ele>
        <time>2024-03-21T14:04:01Z</time>
      </trkpt>
      <trkpt lat="43.72804" lon="3.50587">
        <ele>301.51</ele>
        <time>2024-03-21T14:04:14Z</time>
      </trkpt>
      <trkpt lat="43.7279" lon="3.50577">
        <ele>301.51</ele>
        <time>2024-03-21T14:04:28Z</time>
      </trkpt>
      <trkpt lat="43.72785" lon="3.50572">
        <ele>301.51</ele>
        <time>2024-03-21T14:04:35Z</time>
      </trkpt>
      <trkpt lat="43.72773" lon="3.50564">
        <ele>301.03</ele>
        <time>2024-03-21T14:04:48Z</time>
      </trkpt>
      <trkpt lat="43.72769" lon="3.50561">
        <ele>301.03</ele>
        <time>2024-03-21T14:04:52Z</time>
      </trkpt>
      <trkpt lat="43.72768" lon="3.50558">
        <ele>301.03</ele>
        <time>2024-03-21T14:04:55Z</time>
      </trkpt>
      <trkpt lat="43.72766" lon="3.50546">
        <ele>301.03</ele>
        <time>2024-03-21T14:05:04Z</time>
      </trkpt>
      <trkpt lat="43.72764" lon="3.50543">
        <ele>301.03</ele>
        <time>2024-03-21T14:05:07Z</time>
      </trkpt>
      <trkpt lat="43.7276" lon="3.5054">
        <ele>301.03</ele>
        <time>2024-03-21T14:05:12Z</time>
      </trkpt>
      <trkpt lat="43.7275" lon="3.50528">
        <ele>300.55</ele>
        <time>2024-03-21T14:05:24Z</time>
      </trkpt>
      <trkpt lat="43.72749" lon="3.50524">
        <ele>300.55</ele>
        <time>2024-03-21T14:05:27Z</time>
      </trkpt>
      <trkpt lat="43.72739" lon="3.50505">
        <ele>299.59</ele>
        <time>2024-03-21T14:05:42Z</time>
      </trkpt>
      <trkpt lat="43.72733" lon="3.50492">
        <ele>299.11</ele>
        <time>2024-03-21T14:05:56Z</time>
      </trkpt>
      <trkpt lat="43.72727" lon="3.50484">
        <ele>299.11</ele>
        <time>2024-03-21T14:06:09Z</time>
      </trkpt>
      <trkpt lat="43.72716" lon="3.50469">
        <ele>299.11</ele>
        <time>2024-03-21T14:06:23Z</time>
      </trkpt>
      <trkpt lat="43.72714" lon="3.50466">
        <ele>299.11</ele>
        <time>2024-03-21T14:06:27Z</time>
      </trkpt>
      <trkpt lat="43.72709" lon="3.50463">
        <ele>298.63</ele>
        <time>2024-03-21T14:06:32Z</time>
      </trkpt>
      <trkpt lat="43.72703" lon="3.50457">
        <ele>298.63</ele>
        <time>2024-03-21T14:06:37Z</time>
      </trkpt>
      <trkpt lat="43.72698" lon="3.50453">
        <ele>298.15</ele>
        <time>2024-03-21T14:06:41Z</time>
      </trkpt>
      <trkpt lat="43.72694" lon="3.50452">
        <ele>298.15</ele>
        <time>2024-03-21T14:06:45Z</time>
      </trkpt>
      <trkpt lat="43.72687" lon="3.50446">
        <ele>298.15</ele>
        <time>2024-03-21T14:06:52Z</time>
      </trkpt>
      <trkpt lat="43.72684" lon="3.5044">
        <ele>298.15</ele>
        <time>2024-03-21T14:06:58Z</time>
      </trkpt>
      <trkpt lat="43.72677" lon="3.50432">
        <ele>297.67</ele>
        <time>2024-03-21T14:07:07Z</time>
      </trkpt>
      <trkpt lat="43.72673" lon="3.50431">
        <ele>297.18</ele>
        <time>2024-03-21T14:07:11Z</time>
      </trkpt>
      <trkpt lat="43.72667" lon="3.50427">
        <ele>296.7</ele>
        <time>2024-03-21T14:07:20Z</time>
      </trkpt>
      <trkpt lat="43.72665" lon="3.50418">
        <ele>295.74</ele>
        <time>2024-03-21T14:07:30Z</time>
      </trkpt>
      <trkpt lat="43.72664" lon="3.50418">
        <ele>295.74</ele>
        <time>2024-03-21T14:07:31Z</time>
      </trkpt>
      <trkpt lat="43.7266" lon="3.50414">
        <ele>295.74</ele>
        <time>2024-03-21T14:07:38Z</time>
      </trkpt>
      <trkpt lat="43.72656" lon="3.50415">
        <ele>295.74</ele>
        <time>2024-03-21T14:07:42Z</time>
      </trkpt>
      <trkpt lat="43.72647" lon="3.50408">
        <ele>294.78</ele>
        <time>2024-03-21T14:07:53Z</time>
      </trkpt>
      <trkpt lat="43.72645" lon="3.50405">
        <ele>294.78</ele>
        <time>2024-03-21T14:07:57Z</time>
      </trkpt>
      <trkpt lat="43.7264" lon="3.50399">
        <ele>294.3</ele>
        <time>2024-03-21T14:08:11Z</time>
      </trkpt>
      <trkpt lat="43.7264" lon="3.50397">
        <ele>294.3</ele>
        <time>2024-03-21T14:08:13Z</time>
      </trkpt>
      <trkpt lat="43.72636" lon="3.50386">
        <ele>293.82</ele>
        <time>2024-03-21T14:08:25Z</time>
      </trkpt>
      <trkpt lat="43.72635" lon="3.50376">
        <ele>292.38</ele>
        <time>2024-03-21T14:08:38Z</time>
      </trkpt>
      <trkpt lat="43.72634" lon="3.50367">
        <ele>292.38</ele>
        <time>2024-03-21T14:08:55Z</time>
      </trkpt>
      <trkpt lat="43.72634" lon="3.50366">
        <ele>291.42</ele>
        <time>2024-03-21T14:09:03Z</time>
      </trkpt>
      <trkpt lat="43.72634" lon="3.50364">
        <ele>291.42</ele>
        <time>2024-03-21T14:09:21Z</time>
      </trkpt>
      <trkpt lat="43.72634" lon="3.50364">
        <ele>291.42</ele>
        <time>2024-03-21T14:09:45Z</time>
      </trkpt>
      <trkpt lat="43.72638" lon="3.50372">
        <ele>293.34</ele>
        <time>2024-03-21T14:09:55Z</time>
      </trkpt>
      <trkpt lat="43.72635" lon="3.5037">
        <ele>293.82</ele>
        <time>2024-03-21T14:10:09Z</time>
      </trkpt>
      <trkpt lat="43.72633" lon="3.50369">
        <ele>291.9</ele>
        <time>2024-03-21T14:10:13Z</time>
      </trkpt>
      <trkpt lat="43.72628" lon="3.50367">
        <ele>290.94</ele>
        <time>2024-03-21T14:10:29Z</time>
      </trkpt>
      <trkpt lat="43.72622" lon="3.50362">
        <ele>290.94</ele>
        <time>2024-03-21T14:10:41Z</time>
      </trkpt>
      <trkpt lat="43.72621" lon="3.50359">
        <ele>291.42</ele>
        <time>2024-03-21T14:10:44Z</time>
      </trkpt>
      <trkpt lat="43.72612" lon="3.50354">
        <ele>291.42</ele>
        <time>2024-03-21T14:10:58Z</time>
      </trkpt>
      <trkpt lat="43.72615" lon="3.50344">
        <ele>292.38</ele>
        <time>2024-03-21T14:11:09Z</time>
      </trkpt>
      <trkpt lat="43.72615" lon="3.50336">
        <ele>293.34</ele>
        <time>2024-03-21T14:11:21Z</time>
      </trkpt>
      <trkpt lat="43.72618" lon="3.50332">
        <ele>295.26</ele>
        <time>2024-03-21T14:11:33Z</time>
      </trkpt>
      <trkpt lat="43.72619" lon="3.50329">
        <ele>297.18</ele>
        <time>2024-03-21T14:11:37Z</time>
      </trkpt>
      <trkpt lat="43.72623" lon="3.50324">
        <ele>299.11</ele>
        <time>2024-03-21T14:11:51Z</time>
      </trkpt>
      <trkpt lat="43.72624" lon="3.50322">
        <ele>300.55</ele>
        <time>2024-03-21T14:11:55Z</time>
      </trkpt>
      <trkpt lat="43.72625" lon="3.50319">
        <ele>301.51</ele>
        <time>2024-03-21T14:12:08Z</time>
      </trkpt>
      <trkpt lat="43.72627" lon="3.50319">
        <ele>298.15</ele>
        <time>2024-03-21T14:12:14Z</time>
      </trkpt>
      <trkpt lat="43.72628" lon="3.50319">
        <ele>302.47</ele>
        <time>2024-03-21T14:12:15Z</time>
      </trkpt>
      <trkpt lat="43.72628" lon="3.50318">
        <ele>303.91</ele>
        <time>2024-03-21T14:12:17Z</time>
      </trkpt>
      <trkpt lat="43.72629" lon="3.50312">
        <ele>303.43</ele>
        <time>2024-03-21T14:12:30Z</time>
      </trkpt>
      <trkpt lat="43.7263" lon="3.50308">
        <ele>301.99</ele>
        <time>2024-03-21T14:12:41Z</time>
      </trkpt>
      <trkpt lat="43.72631" lon="3.50306">
        <ele>300.55</ele>
        <time>2024-03-21T14:12:45Z</time>
      </trkpt>
      <trkpt lat="43.72631" lon="3.50306">
        <ele>302.95</ele>
        <time>2024-03-21T14:12:47Z</time>
      </trkpt>
      <trkpt lat="43.72631" lon="3.50307">
        <ele>302.95</ele>
        <time>2024-03-21T14:12:56Z</time>
      </trkpt>
      <trkpt lat="43.72627" lon="3.50309">
        <ele>301.51</ele>
        <time>2024-03-21T14:13:12Z</time>
      </trkpt>
      <trkpt lat="43.72628" lon="3.50314">
        <ele>301.51</ele>
        <time>2024-03-21T14:13:35Z</time>
      </trkpt>
      <trkpt lat="43.72628" lon="3.50332">
        <ele>301.51</ele>
        <time>2024-03-21T14:13:57Z</time>
      </trkpt>
      <trkpt lat="43.72637" lon="3.50334">
        <ele>299.59</ele>
        <time>2024-03-21T14:14:07Z</time>
      </trkpt>
      <trkpt lat="43.72623" lon="3.50306">
        <ele>302.95</ele>
        <time>2024-03-21T14:23:12Z</time>
      </trkpt>
      <trkpt lat="43.72617" lon="3.50317">
        <ele>303.43</ele>
        <time>2024-03-21T14:23:23Z</time>
      </trkpt>
      <trkpt lat="43.72628" lon="3.50321">
        <ele>303.43</ele>
        <time>2024-03-21T14:23:44Z</time>
      </trkpt>
      <trkpt lat="43.72634" lon="3.50333">
        <ele>303.43</ele>
        <time>2024-03-21T14:24:07Z</time>
      </trkpt>
      <trkpt lat="43.72631" lon="3.50314">
        <ele>299.11</ele>
        <time>2024-03-21T14:24:29Z</time>
      </trkpt>
      <trkpt lat="43.72631" lon="3.50314">
        <ele>302.47</ele>
        <time>2024-03-21T14:24:30Z</time>
      </trkpt>
      <trkpt lat="43.72631" lon="3.50313">
        <ele>305.84</ele>
        <time>2024-03-21T14:24:31Z</time>
      </trkpt>
      <trkpt lat="43.72631" lon="3.50312">
        <ele>303.91</ele>
        <time>2024-03-21T14:24:32Z</time>
      </trkpt>
      <trkpt lat="43.7263" lon="3.5031">
        <ele>302.95</ele>
        <time>2024-03-21T14:24:34Z</time>
      </trkpt>
      <trkpt lat="43.72627" lon="3.50314">
        <ele>303.91</ele>
        <time>2024-03-21T14:24:46Z</time>
      </trkpt>
      <trkpt lat="43.72626" lon="3.50314">
        <ele>302.47</ele>
        <time>2024-03-21T14:24:59Z</time>
      </trkpt>
      <trkpt lat="43.72625" lon="3.50317">
        <ele>306.32</ele>
        <time>2024-03-21T14:25:12Z</time>
      </trkpt>
      <trkpt lat="43.72624" lon="3.50316">
        <ele>303.43</ele>
        <time>2024-03-21T14:25:26Z</time>
      </trkpt>
      <trkpt lat="43.72622" lon="3.50314">
        <ele>304.88</ele>
        <time>2024-03-21T14:25:32Z</time>
      </trkpt>
      <trkpt lat="43.72622" lon="3.50314">
        <ele>304.39</ele>
        <time>2024-03-21T14:25:33Z</time>
      </trkpt>
      <trkpt lat="43.72616" lon="3.50311">
        <ele>304.88</ele>
        <time>2024-03-21T14:25:45Z</time>
      </trkpt>
      <trkpt lat="43.72614" lon="3.50306">
        <ele>305.36</ele>
        <time>2024-03-21T14:25:57Z</time>
      </trkpt>
      <trkpt lat="43.72614" lon="3.50306">
        <ele>305.36</ele>
        <time>2024-03-21T14:26:22Z</time>
      </trkpt>
      <trkpt lat="43.72615" lon="3.50306">
        <ele>304.39</ele>
        <time>2024-03-21T14:26:29Z</time>
      </trkpt>
      <trkpt lat="43.72614" lon="3.50308">
        <ele>305.84</ele>
        <time>2024-03-21T14:26:43Z</time>
      </trkpt>
      <trkpt lat="43.72612" lon="3.5031">
        <ele>303.91</ele>
        <time>2024-03-21T14:27:00Z</time>
      </trkpt>
      <trkpt lat="43.7261" lon="3.50316">
        <ele>302.47</ele>
        <time>2024-03-21T14:27:14Z</time>
      </trkpt>
      <trkpt lat="43.72606" lon="3.50317">
        <ele>300.55</ele>
        <time>2024-03-21T14:27:28Z</time>
      </trkpt>
      <trkpt lat="43.72606" lon="3.50317">
        <ele>301.51</ele>
        <time>2024-03-21T14:27:31Z</time>
      </trkpt>
      <trkpt lat="43.72608" lon="3.50315">
        <ele>300.55</ele>
        <time>2024-03-21T14:27:36Z</time>
      </trkpt>
      <trkpt lat="43.72607" lon="3.5032">
        <ele>299.59</ele>
        <time>2024-03-21T14:27:50Z</time>
      </trkpt>
      <trkpt lat="43.72607" lon="3.50325">
        <ele>298.15</ele>
        <time>2024-03-21T14:28:06Z</time>
      </trkpt>
      <trkpt lat="43.72605" lon="3.50323">
        <ele>297.18</ele>
        <time>2024-03-21T14:28:28Z</time>
      </trkpt>
      <trkpt lat="43.72603" lon="3.50324">
        <ele>296.7</ele>
        <time>2024-03-21T14:28:49Z</time>
      </trkpt>
      <trkpt lat="43.72603" lon="3.50328">
        <ele>294.78</ele>
        <time>2024-03-21T14:29:06Z</time>
      </trkpt>
      <trkpt lat="43.72598" lon="3.50333">
        <ele>293.82</ele>
        <time>2024-03-21T14:29:19Z</time>
      </trkpt>
      <trkpt lat="43.72596" lon="3.50334">
        <ele>292.38</ele>
        <time>2024-03-21T14:29:32Z</time>
      </trkpt>
      <trkpt lat="43.72591" lon="3.50337">
        <ele>290.94</ele>
        <time>2024-03-21T14:29:46Z</time>
      </trkpt>
      <trkpt lat="43.72586" lon="3.50337">
        <ele>289.49</ele>
        <time>2024-03-21T14:29:58Z</time>
      </trkpt>
      <trkpt lat="43.72587" lon="3.50336">
        <ele>289.49</ele>
        <time>2024-03-21T14:30:21Z</time>
      </trkpt>
      <trkpt lat="43.72587" lon="3.50337">
        <ele>289.49</ele>
        <time>2024-03-21T14:30:44Z</time>
      </trkpt>
      <trkpt lat="43.72588" lon="3.50337">
        <ele>289.49</ele>
        <time>2024-03-21T14:31:07Z</time>
      </trkpt>
      <trkpt lat="43.72589" lon="3.5034">
        <ele>289.49</ele>
        <time>2024-03-21T14:31:28Z</time>
      </trkpt>
      <trkpt lat="43.72588" lon="3.50339">
        <ele>289.49</ele>
        <time>2024-03-21T14:31:57Z</time>
      </trkpt>
      <trkpt lat="43.72589" lon="3.50338">
        <ele>288.53</ele>
        <time>2024-03-21T14:31:59Z</time>
      </trkpt>
      <trkpt lat="43.72589" lon="3.50337">
        <ele>289.97</ele>
        <time>2024-03-21T14:32:01Z</time>
      </trkpt>
      <trkpt lat="43.72591" lon="3.50335">
        <ele>291.9</ele>
        <time>2024-03-21T14:32:21Z</time>
      </trkpt>
      <trkpt lat="43.72589" lon="3.50337">
        <ele>289.97</ele>
        <time>2024-03-21T14:32:36Z</time>
      </trkpt>
      <trkpt lat="43.72589" lon="3.50336">
        <ele>289.97</ele>
        <time>2024-03-21T14:33:08Z</time>
      </trkpt>
      <trkpt lat="43.72584" lon="3.50335">
        <ele>289.97</ele>
        <time>2024-03-21T14:33:28Z</time>
      </trkpt>
      <trkpt lat="43.72576" lon="3.50335">
        <ele>289.97</ele>
        <time>2024-03-21T14:33:37Z</time>
      </trkpt>
      <trkpt lat="43.72573" lon="3.50332">
        <ele>289.97</ele>
        <time>2024-03-21T14:33:41Z</time>
      </trkpt>
      <trkpt lat="43.72564" lon="3.50318">
        <ele>289.97</ele>
        <time>2024-03-21T14:33:53Z</time>
      </trkpt>
      <trkpt lat="43.72557" lon="3.50307">
        <ele>289.01</ele>
        <time>2024-03-21T14:34:04Z</time>
      </trkpt>
      <trkpt lat="43.72546" lon="3.50296">
        <ele>288.05</ele>
        <time>2024-03-21T14:34:18Z</time>
      </trkpt>
      <trkpt lat="43.72543" lon="3.50294">
        <ele>288.05</ele>
        <time>2024-03-21T14:34:20Z</time>
      </trkpt>
      <trkpt lat="43.72537" lon="3.50276">
        <ele>288.05</ele>
        <time>2024-03-21T14:34:37Z</time>
      </trkpt>
      <trkpt lat="43.72535" lon="3.50272">
        <ele>286.61</ele>
        <time>2024-03-21T14:34:43Z</time>
      </trkpt>
      <trkpt lat="43.72528" lon="3.50258">
        <ele>287.57</ele>
        <time>2024-03-21T14:34:58Z</time>
      </trkpt>
      <trkpt lat="43.72527" lon="3.50245">
        <ele>286.13</ele>
        <time>2024-03-21T14:35:08Z</time>
      </trkpt>
      <trkpt lat="43.72522" lon="3.50239">
        <ele>285.65</ele>
        <time>2024-03-21T14:35:24Z</time>
      </trkpt>
      <trkpt lat="43.72519" lon="3.50237">
        <ele>285.65</ele>
        <time>2024-03-21T14:35:37Z</time>
      </trkpt>
      <trkpt lat="43.72514" lon="3.50234">
        <ele>285.17</ele>
        <time>2024-03-21T14:35:49Z</time>
      </trkpt>
      <trkpt lat="43.72506" lon="3.50237">
        <ele>286.61</ele>
        <time>2024-03-21T14:36:00Z</time>
      </trkpt>
      <trkpt lat="43.72503" lon="3.50238">
        <ele>286.61</ele>
        <time>2024-03-21T14:36:03Z</time>
      </trkpt>
      <trkpt lat="43.72501" lon="3.50238">
        <ele>285.17</ele>
        <time>2024-03-21T14:36:06Z</time>
      </trkpt>
      <trkpt lat="43.725" lon="3.50236">
        <ele>285.17</ele>
        <time>2024-03-21T14:36:21Z</time>
      </trkpt>
      <trkpt lat="43.72495" lon="3.50239">
        <ele>284.69</ele>
        <time>2024-03-21T14:36:35Z</time>
      </trkpt>
      <trkpt lat="43.72486" lon="3.50242">
        <ele>284.21</ele>
        <time>2024-03-21T14:36:47Z</time>
      </trkpt>
      <trkpt lat="43.72479" lon="3.50239">
        <ele>284.21</ele>
        <time>2024-03-21T14:36:58Z</time>
      </trkpt>
      <trkpt lat="43.72478" lon="3.50238">
        <ele>284.21</ele>
        <time>2024-03-21T14:36:59Z</time>
      </trkpt>
      <trkpt lat="43.72478" lon="3.50236">
        <ele>283.73</ele>
        <time>2024-03-21T14:37:02Z</time>
      </trkpt>
      <trkpt lat="43.7247" lon="3.50238">
        <ele>282.28</ele>
        <time>2024-03-21T14:37:14Z</time>
      </trkpt>
      <trkpt lat="43.72469" lon="3.50239">
        <ele>283.73</ele>
        <time>2024-03-21T14:37:16Z</time>
      </trkpt>
      <trkpt lat="43.72462" lon="3.50238">
        <ele>281.32</ele>
        <time>2024-03-21T14:37:29Z</time>
      </trkpt>
      <trkpt lat="43.7246" lon="3.50237">
        <ele>280.84</ele>
        <time>2024-03-21T14:37:41Z</time>
      </trkpt>
      <trkpt lat="43.72453" lon="3.50235">
        <ele>280.84</ele>
        <time>2024-03-21T14:37:53Z</time>
      </trkpt>
      <trkpt lat="43.72445" lon="3.5024">
        <ele>280.84</ele>
        <time>2024-03-21T14:38:04Z</time>
      </trkpt>
      <trkpt lat="43.72439" lon="3.50238">
        <ele>280.84</ele>
        <time>2024-03-21T14:38:15Z</time>
      </trkpt>
      <trkpt lat="43.72431" lon="3.50241">
        <ele>279.88</ele>
        <time>2024-03-21T14:38:30Z</time>
      </trkpt>
      <trkpt lat="43.72425" lon="3.50242">
        <ele>279.88</ele>
        <time>2024-03-21T14:38:38Z</time>
      </trkpt>
      <trkpt lat="43.72423" lon="3.50243">
        <ele>279.88</ele>
        <time>2024-03-21T14:38:41Z</time>
      </trkpt>
      <trkpt lat="43.72416" lon="3.50246">
        <ele>279.88</ele>
        <time>2024-03-21T14:38:48Z</time>
      </trkpt>
      <trkpt lat="43.72411" lon="3.50246">
        <ele>279.88</ele>
        <time>2024-03-21T14:38:53Z</time>
      </trkpt>
      <trkpt lat="43.72404" lon="3.50235">
        <ele>279.4</ele>
        <time>2024-03-21T14:39:05Z</time>
      </trkpt>
      <trkpt lat="43.72396" lon="3.5023">
        <ele>279.4</ele>
        <time>2024-03-21T14:39:17Z</time>
      </trkpt>
      <trkpt lat="43.72388" lon="3.50224">
        <ele>278.44</ele>
        <time>2024-03-21T14:39:31Z</time>
      </trkpt>
      <trkpt lat="43.72378" lon="3.50217">
        <ele>277.96</ele>
        <time>2024-03-21T14:39:43Z</time>
      </trkpt>
      <trkpt lat="43.72375" lon="3.50217">
        <ele>279.4</ele>
        <time>2024-03-21T14:39:46Z</time>
      </trkpt>
      <trkpt lat="43.72373" lon="3.50218">
        <ele>279.4</ele>
        <time>2024-03-21T14:39:48Z</time>
      </trkpt>
      <trkpt lat="43.7237" lon="3.50219">
        <ele>279.4</ele>
        <time>2024-03-21T14:39:51Z</time>
      </trkpt>
      <trkpt lat="43.72362" lon="3.50216">
        <ele>277.96</ele>
        <time>2024-03-21T14:39:59Z</time>
      </trkpt>
      <trkpt lat="43.7236" lon="3.50215">
        <ele>277.96</ele>
        <time>2024-03-21T14:40:01Z</time>
      </trkpt>
      <trkpt lat="43.72356" lon="3.50215">
        <ele>277.96</ele>
        <time>2024-03-21T14:40:05Z</time>
      </trkpt>
      <trkpt lat="43.72352" lon="3.50213">
        <ele>277.48</ele>
        <time>2024-03-21T14:40:10Z</time>
      </trkpt>
      <trkpt lat="43.7235" lon="3.50211">
        <ele>276.52</ele>
        <time>2024-03-21T14:40:13Z</time>
      </trkpt>
      <trkpt lat="43.72348" lon="3.50206">
        <ele>276.52</ele>
        <time>2024-03-21T14:40:17Z</time>
      </trkpt>
      <trkpt lat="43.72334" lon="3.50206">
        <ele>276.52</ele>
        <time>2024-03-21T14:40:31Z</time>
      </trkpt>
      <trkpt lat="43.72326" lon="3.50204">
        <ele>276.52</ele>
        <time>2024-03-21T14:40:41Z</time>
      </trkpt>
      <trkpt lat="43.72324" lon="3.50204">
        <ele>276.52</ele>
        <time>2024-03-21T14:40:43Z</time>
      </trkpt>
      <trkpt lat="43.72321" lon="3.50204">
        <ele>276.52</ele>
        <time>2024-03-21T14:40:46Z</time>
      </trkpt>
      <trkpt lat="43.72314" lon="3.50204">
        <ele>276.52</ele>
        <time>2024-03-21T14:40:52Z</time>
      </trkpt>
      <trkpt lat="43.72305" lon="3.50201">
        <ele>276.52</ele>
        <time>2024-03-21T14:41:02Z</time>
      </trkpt>
      <trkpt lat="43.72293" lon="3.50198">
        <ele>276.52</ele>
        <time>2024-03-21T14:41:14Z</time>
      </trkpt>
      <trkpt lat="43.72284" lon="3.5019">
        <ele>276.04</ele>
        <time>2024-03-21T14:41:27Z</time>
      </trkpt>
      <trkpt lat="43.72274" lon="3.50187">
        <ele>276.04</ele>
        <time>2024-03-21T14:41:39Z</time>
      </trkpt>
      <trkpt lat="43.72269" lon="3.50184">
        <ele>275.07</ele>
        <time>2024-03-21T14:41:45Z</time>
      </trkpt>
      <trkpt lat="43.72263" lon="3.50179">
        <ele>275.07</ele>
        <time>2024-03-21T14:41:56Z</time>
      </trkpt>
      <trkpt lat="43.72259" lon="3.50178">
        <ele>275.07</ele>
        <time>2024-03-21T14:42:01Z</time>
      </trkpt>
      <trkpt lat="43.72257" lon="3.50176">
        <ele>275.07</ele>
        <time>2024-03-21T14:42:04Z</time>
      </trkpt>
      <trkpt lat="43.72255" lon="3.50175">
        <ele>275.07</ele>
        <time>2024-03-21T14:42:07Z</time>
      </trkpt>
      <trkpt lat="43.72248" lon="3.50176">
        <ele>274.59</ele>
        <time>2024-03-21T14:42:20Z</time>
      </trkpt>
      <trkpt lat="43.72244" lon="3.50175">
        <ele>274.59</ele>
        <time>2024-03-21T14:42:32Z</time>
      </trkpt>
      <trkpt lat="43.72234" lon="3.50175">
        <ele>274.59</ele>
        <time>2024-03-21T14:42:44Z</time>
      </trkpt>
      <trkpt lat="43.72227" lon="3.50174">
        <ele>274.59</ele>
        <time>2024-03-21T14:42:53Z</time>
      </trkpt>
      <trkpt lat="43.72221" lon="3.50161">
        <ele>274.59</ele>
        <time>2024-03-21T14:43:06Z</time>
      </trkpt>
      <trkpt lat="43.72212" lon="3.5015">
        <ele>274.59</ele>
        <time>2024-03-21T14:43:19Z</time>
      </trkpt>
      <trkpt lat="43.72211" lon="3.50149">
        <ele>274.59</ele>
        <time>2024-03-21T14:43:20Z</time>
      </trkpt>
      <trkpt lat="43.72204" lon="3.50134">
        <ele>274.59</ele>
        <time>2024-03-21T14:43:33Z</time>
      </trkpt>
      <trkpt lat="43.72199" lon="3.5013">
        <ele>274.59</ele>
        <time>2024-03-21T14:43:40Z</time>
      </trkpt>
      <trkpt lat="43.72196" lon="3.50127">
        <ele>274.59</ele>
        <time>2024-03-21T14:43:44Z</time>
      </trkpt>
      <trkpt lat="43.72194" lon="3.50122">
        <ele>274.59</ele>
        <time>2024-03-21T14:43:48Z</time>
      </trkpt>
      <trkpt lat="43.72189" lon="3.50117">
        <ele>274.59</ele>
        <time>2024-03-21T14:43:55Z</time>
      </trkpt>
      <trkpt lat="43.7218" lon="3.50109">
        <ele>274.11</ele>
        <time>2024-03-21T14:44:07Z</time>
      </trkpt>
      <trkpt lat="43.72178" lon="3.50108">
        <ele>273.63</ele>
        <time>2024-03-21T14:44:10Z</time>
      </trkpt>
      <trkpt lat="43.7217" lon="3.50099">
        <ele>271.71</ele>
        <time>2024-03-21T14:44:24Z</time>
      </trkpt>
      <trkpt lat="43.72167" lon="3.50094">
        <ele>271.71</ele>
        <time>2024-03-21T14:44:37Z</time>
      </trkpt>
      <trkpt lat="43.72166" lon="3.50091">
        <ele>271.71</ele>
        <time>2024-03-21T14:44:49Z</time>
      </trkpt>
      <trkpt lat="43.72164" lon="3.50088">
        <ele>271.71</ele>
        <time>2024-03-21T14:45:10Z</time>
      </trkpt>
      <trkpt lat="43.72161" lon="3.50082">
        <ele>270.75</ele>
        <time>2024-03-21T14:45:32Z</time>
      </trkpt>
      <trkpt lat="43.7216" lon="3.50079">
        <ele>270.75</ele>
        <time>2024-03-21T14:45:39Z</time>
      </trkpt>
      <trkpt lat="43.72161" lon="3.50075">
        <ele>270.75</ele>
        <time>2024-03-21T14:45:54Z</time>
      </trkpt>
      <trkpt lat="43.72157" lon="3.50066">
        <ele>268.83</ele>
        <time>2024-03-21T14:46:11Z</time>
      </trkpt>
      <trkpt lat="43.72155" lon="3.50061">
        <ele>268.35</ele>
        <time>2024-03-21T14:46:18Z</time>
      </trkpt>
      <trkpt lat="43.72149" lon="3.50047">
        <ele>268.35</ele>
        <time>2024-03-21T14:46:33Z</time>
      </trkpt>
      <trkpt lat="43.72142" lon="3.50036">
        <ele>267.38</ele>
        <time>2024-03-21T14:46:45Z</time>
      </trkpt>
      <trkpt lat="43.72136" lon="3.50025">
        <ele>267.38</ele>
        <time>2024-03-21T14:46:58Z</time>
      </trkpt>
      <trkpt lat="43.7213" lon="3.50014">
        <ele>266.9</ele>
        <time>2024-03-21T14:47:11Z</time>
      </trkpt>
      <trkpt lat="43.72129" lon="3.50004">
        <ele>266.9</ele>
        <time>2024-03-21T14:47:19Z</time>
      </trkpt>
      <trkpt lat="43.72124" lon="3.49986">
        <ele>266.9</ele>
        <time>2024-03-21T14:47:33Z</time>
      </trkpt>
      <trkpt lat="43.7212" lon="3.49982">
        <ele>266.9</ele>
        <time>2024-03-21T14:47:37Z</time>
      </trkpt>
      <trkpt lat="43.72118" lon="3.49981">
        <ele>266.42</ele>
        <time>2024-03-21T14:47:39Z</time>
      </trkpt>
      <trkpt lat="43.72105" lon="3.49969">
        <ele>265.94</ele>
        <time>2024-03-21T14:47:54Z</time>
      </trkpt>
      <trkpt lat="43.72096" lon="3.49969">
        <ele>265.94</ele>
        <time>2024-03-21T14:48:06Z</time>
      </trkpt>
      <trkpt lat="43.72093" lon="3.49969">
        <ele>265.94</ele>
        <time>2024-03-21T14:48:09Z</time>
      </trkpt>
      <trkpt lat="43.72084" lon="3.49966">
        <ele>264.98</ele>
        <time>2024-03-21T14:48:22Z</time>
      </trkpt>
      <trkpt lat="43.72072" lon="3.49973">
        <ele>263.54</ele>
        <time>2024-03-21T14:48:37Z</time>
      </trkpt>
      <trkpt lat="43.72069" lon="3.49974">
        <ele>264.98</ele>
        <time>2024-03-21T14:48:40Z</time>
      </trkpt>
      <trkpt lat="43.72061" lon="3.49975">
        <ele>264.98</ele>
        <time>2024-03-21T14:48:49Z</time>
      </trkpt>
      <trkpt lat="43.72049" lon="3.49982">
        <ele>263.54</ele>
        <time>2024-03-21T14:49:02Z</time>
      </trkpt>
      <trkpt lat="43.72046" lon="3.49983">
        <ele>263.54</ele>
        <time>2024-03-21T14:49:05Z</time>
      </trkpt>
      <trkpt lat="43.72042" lon="3.4998">
        <ele>263.54</ele>
        <time>2024-03-21T14:49:10Z</time>
      </trkpt>
      <trkpt lat="43.72033" lon="3.4997">
        <ele>263.06</ele>
        <time>2024-03-21T14:49:23Z</time>
      </trkpt>
      <trkpt lat="43.72025" lon="3.49962">
        <ele>262.1</ele>
        <time>2024-03-21T14:49:34Z</time>
      </trkpt>
      <trkpt lat="43.72017" lon="3.49957">
        <ele>261.14</ele>
        <time>2024-03-21T14:49:46Z</time>
      </trkpt>
      <trkpt lat="43.72014" lon="3.49954">
        <ele>261.14</ele>
        <time>2024-03-21T14:49:50Z</time>
      </trkpt>
      <trkpt lat="43.72004" lon="3.49949">
        <ele>260.65</ele>
        <time>2024-03-21T14:50:03Z</time>
      </trkpt>
      <trkpt lat="43.72003" lon="3.49949">
        <ele>260.65</ele>
        <time>2024-03-21T14:50:04Z</time>
      </trkpt>
      <trkpt lat="43.7199" lon="3.49941">
        <ele>260.65</ele>
        <time>2024-03-21T14:50:18Z</time>
      </trkpt>
      <trkpt lat="43.71976" lon="3.49933">
        <ele>260.65</ele>
        <time>2024-03-21T14:50:33Z</time>
      </trkpt>
      <trkpt lat="43.71976" lon="3.49932">
        <ele>260.65</ele>
        <time>2024-03-21T14:50:53Z</time>
      </trkpt>
      <trkpt lat="43.71976" lon="3.49931">
        <ele>260.17</ele>
        <time>2024-03-21T14:51:19Z</time>
      </trkpt>
      <trkpt lat="43.71972" lon="3.49932">
        <ele>260.17</ele>
        <time>2024-03-21T14:51:42Z</time>
      </trkpt>
      <trkpt lat="43.71972" lon="3.49932">
        <ele>260.17</ele>
        <time>2024-03-21T14:51:43Z</time>
      </trkpt>
      <trkpt lat="43.71966" lon="3.49938">
        <ele>260.17</ele>
        <time>2024-03-21T14:51:57Z</time>
      </trkpt>
      <trkpt lat="43.71962" lon="3.49936">
        <ele>260.17</ele>
        <time>2024-03-21T14:52:14Z</time>
      </trkpt>
      <trkpt lat="43.71961" lon="3.49943">
        <ele>260.17</ele>
        <time>2024-03-21T14:52:28Z</time>
      </trkpt>
      <trkpt lat="43.71954" lon="3.4995">
        <ele>259.69</ele>
        <time>2024-03-21T14:52:36Z</time>
      </trkpt>
      <trkpt lat="43.71945" lon="3.4997">
        <ele>259.21</ele>
        <time>2024-03-21T14:52:50Z</time>
      </trkpt>
      <trkpt lat="43.71942" lon="3.49979">
        <ele>258.73</ele>
        <time>2024-03-21T14:52:56Z</time>
      </trkpt>
      <trkpt lat="43.71942" lon="3.49982">
        <ele>258.73</ele>
        <time>2024-03-21T14:52:58Z</time>
      </trkpt>
      <trkpt lat="43.71938" lon="3.49996">
        <ele>257.77</ele>
        <time>2024-03-21T14:53:10Z</time>
      </trkpt>
      <trkpt lat="43.71937" lon="3.5">
        <ele>257.77</ele>
        <time>2024-03-21T14:53:13Z</time>
      </trkpt>
      <trkpt lat="43.71935" lon="3.50006">
        <ele>257.77</ele>
        <time>2024-03-21T14:53:19Z</time>
      </trkpt>
      <trkpt lat="43.71931" lon="3.50016">
        <ele>257.29</ele>
        <time>2024-03-21T14:53:30Z</time>
      </trkpt>
      <trkpt lat="43.71927" lon="3.50027">
        <ele>257.77</ele>
        <time>2024-03-21T14:53:41Z</time>
      </trkpt>
      <trkpt lat="43.71923" lon="3.5004">
        <ele>256.33</ele>
        <time>2024-03-21T14:53:56Z</time>
      </trkpt>
      <trkpt lat="43.71923" lon="3.50047">
        <ele>256.33</ele>
        <time>2024-03-21T14:54:02Z</time>
      </trkpt>
      <trkpt lat="43.71923" lon="3.50061">
        <ele>256.33</ele>
        <time>2024-03-21T14:54:15Z</time>
      </trkpt>
      <trkpt lat="43.71922" lon="3.50064">
        <ele>255.85</ele>
        <time>2024-03-21T14:54:18Z</time>
      </trkpt>
      <trkpt lat="43.71921" lon="3.50083">
        <ele>255.85</ele>
        <time>2024-03-21T14:54:32Z</time>
      </trkpt>
      <trkpt lat="43.71921" lon="3.50084">
        <ele>255.85</ele>
        <time>2024-03-21T14:54:33Z</time>
      </trkpt>
      <trkpt lat="43.71919" lon="3.50087">
        <ele>255.85</ele>
        <time>2024-03-21T14:54:36Z</time>
      </trkpt>
      <trkpt lat="43.71912" lon="3.50094">
        <ele>254.89</ele>
        <time>2024-03-21T14:54:47Z</time>
      </trkpt>
      <trkpt lat="43.71904" lon="3.50101">
        <ele>254.89</ele>
        <time>2024-03-21T14:55:00Z</time>
      </trkpt>
      <trkpt lat="43.719" lon="3.50104">
        <ele>254.89</ele>
        <time>2024-03-21T14:55:05Z</time>
      </trkpt>
      <trkpt lat="43.7189" lon="3.50104">
        <ele>254.89</ele>
        <time>2024-03-21T14:55:17Z</time>
      </trkpt>
      <trkpt lat="43.71881" lon="3.50107">
        <ele>254.89</ele>
        <time>2024-03-21T14:55:30Z</time>
      </trkpt>
      <trkpt lat="43.71869" lon="3.50114">
        <ele>253.44</ele>
        <time>2024-03-21T14:55:42Z</time>
      </trkpt>
      <trkpt lat="43.71866" lon="3.50115">
        <ele>252.96</ele>
        <time>2024-03-21T14:55:46Z</time>
      </trkpt>
      <trkpt lat="43.71858" lon="3.50127">
        <ele>252.96</ele>
        <time>2024-03-21T14:56:00Z</time>
      </trkpt>
      <trkpt lat="43.7185" lon="3.50136">
        <ele>252.96</ele>
        <time>2024-03-21T14:56:11Z</time>
      </trkpt>
      <trkpt lat="43.71844" lon="3.50145">
        <ele>252.96</ele>
        <time>2024-03-21T14:56:21Z</time>
      </trkpt>
      <trkpt lat="43.7184" lon="3.50155">
        <ele>252.96</ele>
        <time>2024-03-21T14:56:32Z</time>
      </trkpt>
      <trkpt lat="43.71835" lon="3.50159">
        <ele>252.96</ele>
        <time>2024-03-21T14:56:45Z</time>
      </trkpt>
      <trkpt lat="43.71832" lon="3.50157">
        <ele>252.96</ele>
        <time>2024-03-21T14:57:13Z</time>
      </trkpt>
      <trkpt lat="43.71829" lon="3.50162">
        <ele>252.48</ele>
        <time>2024-03-21T14:57:40Z</time>
      </trkpt>
      <trkpt lat="43.71826" lon="3.50163">
        <ele>252</ele>
        <time>2024-03-21T14:57:46Z</time>
      </trkpt>
      <trkpt lat="43.71817" lon="3.50169">
        <ele>251.52</ele>
        <time>2024-03-21T14:57:56Z</time>
      </trkpt>
      <trkpt lat="43.71808" lon="3.50183">
        <ele>251.04</ele>
        <time>2024-03-21T14:58:10Z</time>
      </trkpt>
      <trkpt lat="43.71796" lon="3.50189">
        <ele>251.04</ele>
        <time>2024-03-21T14:58:23Z</time>
      </trkpt>
      <trkpt lat="43.71787" lon="3.5019">
        <ele>251.04</ele>
        <time>2024-03-21T14:58:35Z</time>
      </trkpt>
      <trkpt lat="43.71786" lon="3.5019">
        <ele>251.04</ele>
        <time>2024-03-21T14:58:36Z</time>
      </trkpt>
      <trkpt lat="43.71783" lon="3.5019">
        <ele>251.04</ele>
        <time>2024-03-21T14:58:40Z</time>
      </trkpt>
      <trkpt lat="43.71773" lon="3.50191">
        <ele>251.04</ele>
        <time>2024-03-21T14:58:52Z</time>
      </trkpt>
      <trkpt lat="43.71767" lon="3.50188">
        <ele>251.04</ele>
        <time>2024-03-21T14:59:01Z</time>
      </trkpt>
      <trkpt lat="43.71761" lon="3.50175">
        <ele>252</ele>
        <time>2024-03-21T14:59:12Z</time>
      </trkpt>
      <trkpt lat="43.71757" lon="3.50166">
        <ele>253.93</ele>
        <time>2024-03-21T14:59:20Z</time>
      </trkpt>
      <trkpt lat="43.71754" lon="3.50161">
        <ele>254.41</ele>
        <time>2024-03-21T14:59:24Z</time>
      </trkpt>
      <trkpt lat="43.71749" lon="3.50154">
        <ele>254.89</ele>
        <time>2024-03-21T14:59:32Z</time>
      </trkpt>
      <trkpt lat="43.71739" lon="3.50141">
        <ele>255.85</ele>
        <time>2024-03-21T14:59:46Z</time>
      </trkpt>
      <trkpt lat="43.71736" lon="3.50138">
        <ele>256.33</ele>
        <time>2024-03-21T14:59:50Z</time>
      </trkpt>
      <trkpt lat="43.7173" lon="3.50138">
        <ele>257.77</ele>
        <time>2024-03-21T14:59:57Z</time>
      </trkpt>
      <trkpt lat="43.71727" lon="3.50137">
        <ele>257.77</ele>
        <time>2024-03-21T15:00:00Z</time>
      </trkpt>
      <trkpt lat="43.71716" lon="3.50135">
        <ele>259.21</ele>
        <time>2024-03-21T15:00:12Z</time>
      </trkpt>
      <trkpt lat="43.71705" lon="3.50131">
        <ele>260.17</ele>
        <time>2024-03-21T15:00:23Z</time>
      </trkpt>
      <trkpt lat="43.71696" lon="3.50125">
        <ele>260.65</ele>
        <time>2024-03-21T15:00:33Z</time>
      </trkpt>
      <trkpt lat="43.71688" lon="3.50116">
        <ele>261.14</ele>
        <time>2024-03-21T15:00:44Z</time>
      </trkpt>
      <trkpt lat="43.71679" lon="3.50107">
        <ele>261.62</ele>
        <time>2024-03-21T15:00:55Z</time>
      </trkpt>
      <trkpt lat="43.71672" lon="3.50101">
        <ele>262.1</ele>
        <time>2024-03-21T15:01:05Z</time>
      </trkpt>
      <trkpt lat="43.71659" lon="3.50092">
        <ele>261.62</ele>
        <time>2024-03-21T15:01:18Z</time>
      </trkpt>
      <trkpt lat="43.71654" lon="3.50088">
        <ele>262.1</ele>
        <time>2024-03-21T15:01:31Z</time>
      </trkpt>
      <trkpt lat="43.71654" lon="3.50085">
        <ele>262.1</ele>
        <time>2024-03-21T15:01:47Z</time>
      </trkpt>
      <trkpt lat="43.71651" lon="3.50083">
        <ele>262.1</ele>
        <time>2024-03-21T15:01:51Z</time>
      </trkpt>
      <trkpt lat="43.71636" lon="3.50076">
        <ele>262.1</ele>
        <time>2024-03-21T15:02:04Z</time>
      </trkpt>
      <trkpt lat="43.71622" lon="3.50065">
        <ele>262.1</ele>
        <time>2024-03-21T15:02:18Z</time>
      </trkpt>
      <trkpt lat="43.7161" lon="3.50052">
        <ele>262.1</ele>
        <time>2024-03-21T15:02:31Z</time>
      </trkpt>
      <trkpt lat="43.716" lon="3.5004">
        <ele>262.58</ele>
        <time>2024-03-21T15:02:43Z</time>
      </trkpt>
      <trkpt lat="43.71594" lon="3.50026">
        <ele>263.06</ele>
        <time>2024-03-21T15:02:54Z</time>
      </trkpt>
      <trkpt lat="43.71588" lon="3.50012">
        <ele>263.54</ele>
        <time>2024-03-21T15:03:05Z</time>
      </trkpt>
      <trkpt lat="43.71586" lon="3.50004">
        <ele>264.02</ele>
        <time>2024-03-21T15:03:11Z</time>
      </trkpt>
      <trkpt lat="43.71585" lon="3.49981">
        <ele>264.02</ele>
        <time>2024-03-21T15:03:25Z</time>
      </trkpt>
      <trkpt lat="43.71584" lon="3.49964">
        <ele>264.02</ele>
        <time>2024-03-21T15:03:36Z</time>
      </trkpt>
      <trkpt lat="43.7158" lon="3.49955">
        <ele>262.58</ele>
        <time>2024-03-21T15:03:43Z</time>
      </trkpt>
      <trkpt lat="43.71571" lon="3.49938">
        <ele>261.62</ele>
        <time>2024-03-21T15:03:57Z</time>
      </trkpt>
      <trkpt lat="43.71563" lon="3.49915">
        <ele>261.62</ele>
        <time>2024-03-21T15:04:11Z</time>
      </trkpt>
      <trkpt lat="43.71562" lon="3.49911">
        <ele>261.62</ele>
        <time>2024-03-21T15:04:14Z</time>
      </trkpt>
      <trkpt lat="43.71559" lon="3.49891">
        <ele>261.62</ele>
        <time>2024-03-21T15:04:28Z</time>
      </trkpt>
      <trkpt lat="43.7155" lon="3.49884">
        <ele>260.65</ele>
        <time>2024-03-21T15:04:40Z</time>
      </trkpt>
      <trkpt lat="43.71549" lon="3.49883">
        <ele>260.65</ele>
        <time>2024-03-21T15:04:51Z</time>
      </trkpt>
      <trkpt lat="43.71545" lon="3.49884">
        <ele>260.65</ele>
        <time>2024-03-21T15:04:55Z</time>
      </trkpt>
      <trkpt lat="43.71539" lon="3.4989">
        <ele>262.1</ele>
        <time>2024-03-21T15:05:01Z</time>
      </trkpt>
      <trkpt lat="43.7153" lon="3.49902">
        <ele>262.58</ele>
        <time>2024-03-21T15:05:12Z</time>
      </trkpt>
      <trkpt lat="43.71518" lon="3.49913">
        <ele>263.06</ele>
        <time>2024-03-21T15:05:25Z</time>
      </trkpt>
      <trkpt lat="43.71505" lon="3.49915">
        <ele>264.02</ele>
        <time>2024-03-21T15:05:37Z</time>
      </trkpt>
      <trkpt lat="43.71492" lon="3.49911">
        <ele>264.98</ele>
        <time>2024-03-21T15:05:49Z</time>
      </trkpt>
      <trkpt lat="43.71482" lon="3.49904">
        <ele>265.94</ele>
        <time>2024-03-21T15:06:01Z</time>
      </trkpt>
      <trkpt lat="43.71475" lon="3.49896">
        <ele>266.9</ele>
        <time>2024-03-21T15:06:14Z</time>
      </trkpt>
      <trkpt lat="43.71477" lon="3.49891">
        <ele>266.9</ele>
        <time>2024-03-21T15:06:30Z</time>
      </trkpt>
      <trkpt lat="43.71475" lon="3.49891">
        <ele>266.9</ele>
        <time>2024-03-21T15:06:39Z</time>
      </trkpt>
      <trkpt lat="43.71473" lon="3.49889">
        <ele>266.9</ele>
        <time>2024-03-21T15:06:44Z</time>
      </trkpt>
      <trkpt lat="43.71464" lon="3.4988">
        <ele>268.83</ele>
        <time>2024-03-21T15:06:56Z</time>
      </trkpt>
      <trkpt lat="43.71456" lon="3.49871">
        <ele>270.27</ele>
        <time>2024-03-21T15:07:07Z</time>
      </trkpt>
      <trkpt lat="43.71448" lon="3.49859">
        <ele>271.71</ele>
        <time>2024-03-21T15:07:20Z</time>
      </trkpt>
      <trkpt lat="43.71441" lon="3.4985">
        <ele>272.67</ele>
        <time>2024-03-21T15:07:31Z</time>
      </trkpt>
      <trkpt lat="43.71432" lon="3.49839">
        <ele>274.59</ele>
        <time>2024-03-21T15:07:43Z</time>
      </trkpt>
      <trkpt lat="43.71425" lon="3.49833">
        <ele>275.56</ele>
        <time>2024-03-21T15:07:55Z</time>
      </trkpt>
      <trkpt lat="43.7142" lon="3.49829">
        <ele>275.56</ele>
        <time>2024-03-21T15:08:16Z</time>
      </trkpt>
      <trkpt lat="43.71413" lon="3.49817">
        <ele>276.52</ele>
        <time>2024-03-21T15:08:27Z</time>
      </trkpt>
      <trkpt lat="43.71409" lon="3.498">
        <ele>277.48</ele>
        <time>2024-03-21T15:08:40Z</time>
      </trkpt>
      <trkpt lat="43.71406" lon="3.49791">
        <ele>277.48</ele>
        <time>2024-03-21T15:08:48Z</time>
      </trkpt>
      <trkpt lat="43.71405" lon="3.49771">
        <ele>277.48</ele>
        <time>2024-03-21T15:09:01Z</time>
      </trkpt>
      <trkpt lat="43.7141" lon="3.49753">
        <ele>277.48</ele>
        <time>2024-03-21T15:09:13Z</time>
      </trkpt>
      <trkpt lat="43.7141" lon="3.49745">
        <ele>277.48</ele>
        <time>2024-03-21T15:09:26Z</time>
      </trkpt>
      <trkpt lat="43.71412" lon="3.49739">
        <ele>277.48</ele>
        <time>2024-03-21T15:09:36Z</time>
      </trkpt>
      <trkpt lat="43.71413" lon="3.49733">
        <ele>277.48</ele>
        <time>2024-03-21T15:09:44Z</time>
      </trkpt>
      <trkpt lat="43.71413" lon="3.49724">
        <ele>277.48</ele>
        <time>2024-03-21T15:09:57Z</time>
      </trkpt>
      <trkpt lat="43.71414" lon="3.49718">
        <ele>277.96</ele>
        <time>2024-03-21T15:10:02Z</time>
      </trkpt>
      <trkpt lat="43.71413" lon="3.49703">
        <ele>279.88</ele>
        <time>2024-03-21T15:10:14Z</time>
      </trkpt>
      <trkpt lat="43.71408" lon="3.49692">
        <ele>280.84</ele>
        <time>2024-03-21T15:10:25Z</time>
      </trkpt>
      <trkpt lat="43.71398" lon="3.49682">
        <ele>281.8</ele>
        <time>2024-03-21T15:10:37Z</time>
      </trkpt>
      <trkpt lat="43.71391" lon="3.49679">
        <ele>282.77</ele>
        <time>2024-03-21T15:10:44Z</time>
      </trkpt>
      <trkpt lat="43.71377" lon="3.49679">
        <ele>283.73</ele>
        <time>2024-03-21T15:10:56Z</time>
      </trkpt>
      <trkpt lat="43.71365" lon="3.4968">
        <ele>283.73</ele>
        <time>2024-03-21T15:11:07Z</time>
      </trkpt>
      <trkpt lat="43.71365" lon="3.4968">
        <ele>283.73</ele>
        <time>2024-03-21T15:11:08Z</time>
      </trkpt>
      <trkpt lat="43.71351" lon="3.49677">
        <ele>284.21</ele>
        <time>2024-03-21T15:11:21Z</time>
      </trkpt>
      <trkpt lat="43.71339" lon="3.49671">
        <ele>285.17</ele>
        <time>2024-03-21T15:11:33Z</time>
      </trkpt>
      <trkpt lat="43.7134" lon="3.49667">
        <ele>285.17</ele>
        <time>2024-03-21T15:11:46Z</time>
      </trkpt>
      <trkpt lat="43.7133" lon="3.49661">
        <ele>286.61</ele>
        <time>2024-03-21T15:11:57Z</time>
      </trkpt>
      <trkpt lat="43.71322" lon="3.4965">
        <ele>286.61</ele>
        <time>2024-03-21T15:12:08Z</time>
      </trkpt>
      <trkpt lat="43.7131" lon="3.4964">
        <ele>286.61</ele>
        <time>2024-03-21T15:12:20Z</time>
      </trkpt>
      <trkpt lat="43.71301" lon="3.49632">
        <ele>285.65</ele>
        <time>2024-03-21T15:12:32Z</time>
      </trkpt>
      <trkpt lat="43.71289" lon="3.49624">
        <ele>285.17</ele>
        <time>2024-03-21T15:12:44Z</time>
      </trkpt>
      <trkpt lat="43.71278" lon="3.49618">
        <ele>284.69</ele>
        <time>2024-03-21T15:12:56Z</time>
      </trkpt>
      <trkpt lat="43.71266" lon="3.49611">
        <ele>284.21</ele>
        <time>2024-03-21T15:13:08Z</time>
      </trkpt>
      <trkpt lat="43.71255" lon="3.49605">
        <ele>283.25</ele>
        <time>2024-03-21T15:13:20Z</time>
      </trkpt>
      <trkpt lat="43.7124" lon="3.49602">
        <ele>281.8</ele>
        <time>2024-03-21T15:13:35Z</time>
      </trkpt>
      <trkpt lat="43.7123" lon="3.49588">
        <ele>280.36</ele>
        <time>2024-03-21T15:13:48Z</time>
      </trkpt>
      <trkpt lat="43.71232" lon="3.49568">
        <ele>280.36</ele>
        <time>2024-03-21T15:14:00Z</time>
      </trkpt>
      <trkpt lat="43.71235" lon="3.49549">
        <ele>280.84</ele>
        <time>2024-03-21T15:14:13Z</time>
      </trkpt>
      <trkpt lat="43.71235" lon="3.49546">
        <ele>282.28</ele>
        <time>2024-03-21T15:14:15Z</time>
      </trkpt>
      <trkpt lat="43.71235" lon="3.49527">
        <ele>282.77</ele>
        <time>2024-03-21T15:14:27Z</time>
      </trkpt>
      <trkpt lat="43.71231" lon="3.49507">
        <ele>282.77</ele>
        <time>2024-03-21T15:14:41Z</time>
      </trkpt>
      <trkpt lat="43.71225" lon="3.49486">
        <ele>282.77</ele>
        <time>2024-03-21T15:14:55Z</time>
      </trkpt>
      <trkpt lat="43.71224" lon="3.49482">
        <ele>282.77</ele>
        <time>2024-03-21T15:14:58Z</time>
      </trkpt>
      <trkpt lat="43.71218" lon="3.49461">
        <ele>283.25</ele>
        <time>2024-03-21T15:15:13Z</time>
      </trkpt>
      <trkpt lat="43.71215" lon="3.49447">
        <ele>284.69</ele>
        <time>2024-03-21T15:15:25Z</time>
      </trkpt>
      <trkpt lat="43.71214" lon="3.49431">
        <ele>286.13</ele>
        <time>2024-03-21T15:15:37Z</time>
      </trkpt>
      <trkpt lat="43.71214" lon="3.49429">
        <ele>286.13</ele>
        <time>2024-03-21T15:15:38Z</time>
      </trkpt>
      <trkpt lat="43.71214" lon="3.49412">
        <ele>287.57</ele>
        <time>2024-03-21T15:15:50Z</time>
      </trkpt>
      <trkpt lat="43.71213" lon="3.49397">
        <ele>289.49</ele>
        <time>2024-03-21T15:16:02Z</time>
      </trkpt>
      <trkpt lat="43.71211" lon="3.49394">
        <ele>290.46</ele>
        <time>2024-03-21T15:16:20Z</time>
      </trkpt>
      <trkpt lat="43.712" lon="3.49388">
        <ele>290.46</ele>
        <time>2024-03-21T15:16:33Z</time>
      </trkpt>
      <trkpt lat="43.71192" lon="3.49388">
        <ele>289.01</ele>
        <time>2024-03-21T15:16:42Z</time>
      </trkpt>
      <trkpt lat="43.71187" lon="3.49386">
        <ele>289.01</ele>
        <time>2024-03-21T15:16:49Z</time>
      </trkpt>
      <trkpt lat="43.71175" lon="3.49383">
        <ele>288.53</ele>
        <time>2024-03-21T15:17:02Z</time>
      </trkpt>
      <trkpt lat="43.71167" lon="3.49383">
        <ele>288.05</ele>
        <time>2024-03-21T15:17:15Z</time>
      </trkpt>
      <trkpt lat="43.71168" lon="3.49383">
        <ele>289.01</ele>
        <time>2024-03-21T15:17:33Z</time>
      </trkpt>
      <trkpt lat="43.71167" lon="3.49383">
        <ele>287.57</ele>
        <time>2024-03-21T15:17:38Z</time>
      </trkpt>
    </trkseg>
  </trk>
</gpx>